<?xml version='1.0' encoding='UTF-8'?>
<gpx version="1.1" creator="https://www.komoot.de" xmlns="http://www.topografix.com/GPX/1/1" xmlns:xsi="http://www.w3.org/2001/XMLSchema-instance" xsi:schemaLocation="http://www.topografix.com/GPX/1/1 http://www.topografix.com/GPX/1/1/gpx.xsd">
  <metadata>
    <name>59_780Wiesenbergrunde</name>
    <author>
      <link href="https://www.komoot.de">
        <text>komoot</text>
        <type>text/html</type>
      </link>
    </author>
  </metadata>
  <trk>
    <name>59_780Wiesenbergrunde</name>
    <trkseg>
      <trkpt lat="47.541011" lon="7.871122">
        <ele>343.307331</ele>
        <time>2021-11-14T21:56:13.767Z</time>
      </trkpt>
      <trkpt lat="47.540933" lon="7.871187">
        <ele>343.307331</ele>
        <time>2021-11-14T21:56:15.630Z</time>
      </trkpt>
      <trkpt lat="47.540894" lon="7.871220">
        <ele>343.307331</ele>
        <time>2021-11-14T21:56:16.758Z</time>
      </trkpt>
      <trkpt lat="47.540693" lon="7.871390">
        <ele>343.307331</ele>
        <time>2021-11-14T21:56:22.126Z</time>
      </trkpt>
      <trkpt lat="47.540463" lon="7.871584">
        <ele>343.307331</ele>
        <time>2021-11-14T21:56:28.317Z</time>
      </trkpt>
      <trkpt lat="47.540265" lon="7.871808">
        <ele>343.307331</ele>
        <time>2021-11-14T21:56:33.810Z</time>
      </trkpt>
      <trkpt lat="47.540216" lon="7.871851">
        <ele>343.369118</ele>
        <time>2021-11-14T21:56:35.265Z</time>
      </trkpt>
      <trkpt lat="47.540034" lon="7.871970">
        <ele>343.698613</ele>
        <time>2021-11-14T21:56:39.833Z</time>
      </trkpt>
      <trkpt lat="47.539930" lon="7.872041">
        <ele>343.888275</ele>
        <time>2021-11-14T21:56:42.411Z</time>
      </trkpt>
      <trkpt lat="47.539841" lon="7.872151">
        <ele>344.080252</ele>
        <time>2021-11-14T21:56:45.420Z</time>
      </trkpt>
      <trkpt lat="47.539678" lon="7.872430">
        <ele>344.492798</ele>
        <time>2021-11-14T21:56:50.962Z</time>
      </trkpt>
      <trkpt lat="47.539222" lon="7.873416">
        <ele>345.829132</ele>
        <time>2021-11-14T21:57:08.504Z</time>
      </trkpt>
      <trkpt lat="47.538278" lon="7.874319">
        <ele>347.145593</ele>
        <time>2021-11-14T21:57:28.158Z</time>
      </trkpt>
      <trkpt lat="47.537716" lon="7.874966">
        <ele>347.867102</ele>
        <time>2021-11-14T21:57:42.133Z</time>
      </trkpt>
      <trkpt lat="47.537261" lon="7.875237">
        <ele>348.726605</ele>
        <time>2021-11-14T21:57:51.650Z</time>
      </trkpt>
      <trkpt lat="47.537182" lon="7.875293">
        <ele>348.941718</ele>
        <time>2021-11-14T21:57:53.638Z</time>
      </trkpt>
      <trkpt lat="47.536921" lon="7.875537">
        <ele>349.699782</ele>
        <time>2021-11-14T21:57:59.605Z</time>
      </trkpt>
      <trkpt lat="47.536757" lon="7.875759">
        <ele>350.245466</ele>
        <time>2021-11-14T21:58:04.207Z</time>
      </trkpt>
      <trkpt lat="47.536632" lon="7.875912">
        <ele>350.643749</ele>
        <time>2021-11-14T21:58:07.375Z</time>
      </trkpt>
      <trkpt lat="47.536444" lon="7.876177">
        <ele>351.281181</ele>
        <time>2021-11-14T21:58:14.337Z</time>
      </trkpt>
      <trkpt lat="47.535851" lon="7.877319">
        <ele>354.931194</ele>
        <time>2021-11-14T21:58:45.651Z</time>
      </trkpt>
      <trkpt lat="47.535770" lon="7.877432">
        <ele>355.506033</ele>
        <time>2021-11-14T21:58:49.831Z</time>
      </trkpt>
      <trkpt lat="47.535635" lon="7.877484">
        <ele>356.226659</ele>
        <time>2021-11-14T21:58:55.698Z</time>
      </trkpt>
      <trkpt lat="47.535551" lon="7.877487">
        <ele>356.660741</ele>
        <time>2021-11-14T21:58:57.606Z</time>
      </trkpt>
      <trkpt lat="47.535322" lon="7.877590">
        <ele>357.897130</ele>
        <time>2021-11-14T21:59:07.658Z</time>
      </trkpt>
      <trkpt lat="47.535088" lon="7.877742">
        <ele>359.217148</ele>
        <time>2021-11-14T21:59:15.490Z</time>
      </trkpt>
      <trkpt lat="47.534855" lon="7.878090">
        <ele>360.926586</ele>
        <time>2021-11-14T21:59:27.473Z</time>
      </trkpt>
      <trkpt lat="47.534778" lon="7.878270">
        <ele>361.669819</ele>
        <time>2021-11-14T21:59:34.780Z</time>
      </trkpt>
      <trkpt lat="47.534825" lon="7.878414">
        <ele>362.182901</ele>
        <time>2021-11-14T21:59:37.406Z</time>
      </trkpt>
      <trkpt lat="47.534946" lon="7.878790">
        <ele>363.476349</ele>
        <time>2021-11-14T21:59:49.454Z</time>
      </trkpt>
      <trkpt lat="47.534908" lon="7.878975">
        <ele>364.076829</ele>
        <time>2021-11-14T21:59:53.512Z</time>
      </trkpt>
      <trkpt lat="47.534616" lon="7.879490">
        <ele>366.165209</ele>
        <time>2021-11-14T22:00:10.459Z</time>
      </trkpt>
      <trkpt lat="47.533892" lon="7.880353">
        <ele>370.225971</ele>
        <time>2021-11-14T22:00:38.198Z</time>
      </trkpt>
      <trkpt lat="47.533606" lon="7.880961">
        <ele>371.111827</ele>
        <time>2021-11-14T22:00:50.507Z</time>
      </trkpt>
      <trkpt lat="47.533374" lon="7.881639">
        <ele>372.020507</ele>
        <time>2021-11-14T22:01:01.552Z</time>
      </trkpt>
      <trkpt lat="47.533014" lon="7.882949">
        <ele>373.154203</ele>
        <time>2021-11-14T22:01:19.467Z</time>
      </trkpt>
      <trkpt lat="47.532859" lon="7.883508">
        <ele>372.950018</ele>
        <time>2021-11-14T22:01:25.345Z</time>
      </trkpt>
      <trkpt lat="47.532713" lon="7.884122">
        <ele>372.730067</ele>
        <time>2021-11-14T22:01:31.043Z</time>
      </trkpt>
      <trkpt lat="47.532699" lon="7.884224">
        <ele>372.694898</ele>
        <time>2021-11-14T22:01:31.997Z</time>
      </trkpt>
      <trkpt lat="47.532670" lon="7.884773">
        <ele>372.508833</ele>
        <time>2021-11-14T22:01:36.490Z</time>
      </trkpt>
      <trkpt lat="47.532658" lon="7.884989">
        <ele>372.435603</ele>
        <time>2021-11-14T22:01:38.102Z</time>
      </trkpt>
      <trkpt lat="47.532650" lon="7.885569">
        <ele>371.920369</ele>
        <time>2021-11-14T22:01:42.605Z</time>
      </trkpt>
      <trkpt lat="47.532505" lon="7.887120">
        <ele>370.160892</ele>
        <time>2021-11-14T22:01:54.556Z</time>
      </trkpt>
      <trkpt lat="47.532288" lon="7.887728">
        <ele>369.388101</ele>
        <time>2021-11-14T22:01:59.733Z</time>
      </trkpt>
      <trkpt lat="47.532011" lon="7.888896">
        <ele>368.224556</ele>
        <time>2021-11-14T22:02:08.962Z</time>
      </trkpt>
      <trkpt lat="47.531843" lon="7.889349">
        <ele>367.739108</ele>
        <time>2021-11-14T22:02:12.999Z</time>
      </trkpt>
      <trkpt lat="47.531560" lon="7.889776">
        <ele>367.177104</ele>
        <time>2021-11-14T22:02:17.939Z</time>
      </trkpt>
      <trkpt lat="47.531265" lon="7.889937">
        <ele>366.915601</ele>
        <time>2021-11-14T22:02:21.907Z</time>
      </trkpt>
      <trkpt lat="47.531076" lon="7.890029">
        <ele>366.982918</ele>
        <time>2021-11-14T22:02:24.749Z</time>
      </trkpt>
      <trkpt lat="47.530606" lon="7.890373">
        <ele>367.160309</ele>
        <time>2021-11-14T22:02:32.597Z</time>
      </trkpt>
      <trkpt lat="47.530322" lon="7.890690">
        <ele>367.280640</ele>
        <time>2021-11-14T22:02:38.591Z</time>
      </trkpt>
      <trkpt lat="47.529972" lon="7.891210">
        <ele>367.448387</ele>
        <time>2021-11-14T22:02:47.753Z</time>
      </trkpt>
      <trkpt lat="47.529714" lon="7.891609">
        <ele>367.754250</ele>
        <time>2021-11-14T22:02:55.086Z</time>
      </trkpt>
      <trkpt lat="47.529695" lon="7.891638">
        <ele>367.783037</ele>
        <time>2021-11-14T22:02:56.073Z</time>
      </trkpt>
      <trkpt lat="47.529235" lon="7.892158">
        <ele>368.393609</ele>
        <time>2021-11-14T22:03:07.006Z</time>
      </trkpt>
      <trkpt lat="47.528331" lon="7.892682">
        <ele>369.438771</ele>
        <time>2021-11-14T22:03:25.709Z</time>
      </trkpt>
      <trkpt lat="47.528003" lon="7.892732">
        <ele>370.026418</ele>
        <time>2021-11-14T22:03:31.415Z</time>
      </trkpt>
      <trkpt lat="47.527498" lon="7.892650">
        <ele>370.931818</ele>
        <time>2021-11-14T22:03:40.888Z</time>
      </trkpt>
      <trkpt lat="47.527011" lon="7.893061">
        <ele>371.930780</ele>
        <time>2021-11-14T22:03:54.080Z</time>
      </trkpt>
      <trkpt lat="47.526709" lon="7.893617">
        <ele>372.898921</ele>
        <time>2021-11-14T22:04:06.612Z</time>
      </trkpt>
      <trkpt lat="47.526504" lon="7.894030">
        <ele>373.859448</ele>
        <time>2021-11-14T22:04:16.793Z</time>
      </trkpt>
      <trkpt lat="47.526451" lon="7.893983">
        <ele>374.030884</ele>
        <time>2021-11-14T22:04:18.182Z</time>
      </trkpt>
      <trkpt lat="47.526401" lon="7.893964">
        <ele>374.174136</ele>
        <time>2021-11-14T22:04:19.000Z</time>
      </trkpt>
      <trkpt lat="47.526335" lon="7.893960">
        <ele>374.357449</ele>
        <time>2021-11-14T22:04:21.074Z</time>
      </trkpt>
      <trkpt lat="47.526257" lon="7.894278">
        <ele>374.991452</ele>
        <time>2021-11-14T22:04:27.285Z</time>
      </trkpt>
      <trkpt lat="47.525725" lon="7.895110">
        <ele>377.138664</ele>
        <time>2021-11-14T22:04:46.368Z</time>
      </trkpt>
      <trkpt lat="47.525603" lon="7.895265">
        <ele>377.584636</ele>
        <time>2021-11-14T22:04:51.984Z</time>
      </trkpt>
      <trkpt lat="47.525631" lon="7.895442">
        <ele>377.716739</ele>
        <time>2021-11-14T22:04:54.833Z</time>
      </trkpt>
      <trkpt lat="47.525631" lon="7.895583">
        <ele>377.819200</ele>
        <time>2021-11-14T22:04:56.025Z</time>
      </trkpt>
      <trkpt lat="47.525622" lon="7.895944">
        <ele>378.081706</ele>
        <time>2021-11-14T22:05:03.460Z</time>
      </trkpt>
      <trkpt lat="47.525590" lon="7.896117">
        <ele>378.212051</ele>
        <time>2021-11-14T22:05:05.013Z</time>
      </trkpt>
      <trkpt lat="47.525518" lon="7.896336">
        <ele>378.389051</ele>
        <time>2021-11-14T22:05:09.821Z</time>
      </trkpt>
      <trkpt lat="47.524834" lon="7.897636">
        <ele>379.523089</ele>
        <time>2021-11-14T22:05:26.744Z</time>
      </trkpt>
      <trkpt lat="47.524617" lon="7.898216">
        <ele>379.544453</ele>
        <time>2021-11-14T22:05:32.917Z</time>
      </trkpt>
      <trkpt lat="47.524360" lon="7.898951">
        <ele>379.571121</ele>
        <time>2021-11-14T22:05:40.458Z</time>
      </trkpt>
      <trkpt lat="47.524309" lon="7.899115">
        <ele>379.576938</ele>
        <time>2021-11-14T22:05:42.372Z</time>
      </trkpt>
      <trkpt lat="47.523896" lon="7.900001">
        <ele>379.877385</ele>
        <time>2021-11-14T22:05:54.295Z</time>
      </trkpt>
      <trkpt lat="47.523861" lon="7.900049">
        <ele>379.986419</ele>
        <time>2021-11-14T22:05:55.274Z</time>
      </trkpt>
      <trkpt lat="47.523890" lon="7.900131">
        <ele>380.129289</ele>
        <time>2021-11-14T22:05:56.229Z</time>
      </trkpt>
      <trkpt lat="47.523945" lon="7.900256">
        <ele>380.359562</ele>
        <time>2021-11-14T22:05:57.820Z</time>
      </trkpt>
      <trkpt lat="47.523989" lon="7.900340">
        <ele>380.523645</ele>
        <time>2021-11-14T22:05:58.870Z</time>
      </trkpt>
      <trkpt lat="47.523957" lon="7.900371">
        <ele>380.611045</ele>
        <time>2021-11-14T22:05:59.575Z</time>
      </trkpt>
      <trkpt lat="47.523878" lon="7.900445">
        <ele>380.824702</ele>
        <time>2021-11-14T22:06:01.692Z</time>
      </trkpt>
      <trkpt lat="47.523739" lon="7.900557">
        <ele>381.186392</ele>
        <time>2021-11-14T22:06:04.623Z</time>
      </trkpt>
      <trkpt lat="47.523648" lon="7.900606">
        <ele>381.407708</ele>
        <time>2021-11-14T22:06:06.802Z</time>
      </trkpt>
      <trkpt lat="47.523620" lon="7.900698">
        <ele>381.563463</ele>
        <time>2021-11-14T22:06:08.765Z</time>
      </trkpt>
      <trkpt lat="47.523567" lon="7.900820">
        <ele>381.787366</ele>
        <time>2021-11-14T22:06:10.862Z</time>
      </trkpt>
      <trkpt lat="47.523433" lon="7.901043">
        <ele>382.248098</ele>
        <time>2021-11-14T22:06:16.106Z</time>
      </trkpt>
      <trkpt lat="47.523340" lon="7.901197">
        <ele>382.566975</ele>
        <time>2021-11-14T22:06:20.149Z</time>
      </trkpt>
      <trkpt lat="47.523036" lon="7.901580">
        <ele>383.479256</ele>
        <time>2021-11-14T22:06:31.791Z</time>
      </trkpt>
      <trkpt lat="47.522688" lon="7.901843">
        <ele>384.900003</ele>
        <time>2021-11-14T22:06:44.099Z</time>
      </trkpt>
      <trkpt lat="47.522554" lon="7.901999">
        <ele>385.603383</ele>
        <time>2021-11-14T22:06:50.363Z</time>
      </trkpt>
      <trkpt lat="47.522260" lon="7.902356">
        <ele>387.172326</ele>
        <time>2021-11-14T22:07:02.724Z</time>
      </trkpt>
      <trkpt lat="47.522132" lon="7.902476">
        <ele>387.797481</ele>
        <time>2021-11-14T22:07:07.357Z</time>
      </trkpt>
      <trkpt lat="47.522065" lon="7.902526">
        <ele>388.107086</ele>
        <time>2021-11-14T22:07:09.529Z</time>
      </trkpt>
      <trkpt lat="47.522038" lon="7.902562">
        <ele>388.257013</ele>
        <time>2021-11-14T22:07:11.022Z</time>
      </trkpt>
      <trkpt lat="47.522013" lon="7.902637">
        <ele>388.490089</ele>
        <time>2021-11-14T22:07:13.138Z</time>
      </trkpt>
      <trkpt lat="47.521826" lon="7.903237">
        <ele>390.331586</ele>
        <time>2021-11-14T22:07:26.868Z</time>
      </trkpt>
      <trkpt lat="47.521792" lon="7.903347">
        <ele>390.668706</ele>
        <time>2021-11-14T22:07:29.264Z</time>
      </trkpt>
      <trkpt lat="47.521297" lon="7.904312">
        <ele>392.918457</ele>
        <time>2021-11-14T22:07:53.237Z</time>
      </trkpt>
      <trkpt lat="47.520989" lon="7.905130">
        <ele>394.516157</ele>
        <time>2021-11-14T22:08:08.719Z</time>
      </trkpt>
      <trkpt lat="47.520916" lon="7.905344">
        <ele>394.925159</ele>
        <time>2021-11-14T22:08:11.936Z</time>
      </trkpt>
      <trkpt lat="47.520750" lon="7.905835">
        <ele>395.703866</ele>
        <time>2021-11-14T22:08:19.079Z</time>
      </trkpt>
      <trkpt lat="47.520678" lon="7.906050">
        <ele>395.752010</ele>
        <time>2021-11-14T22:08:22.214Z</time>
      </trkpt>
      <trkpt lat="47.520566" lon="7.906668">
        <ele>395.880377</ele>
        <time>2021-11-14T22:08:29.216Z</time>
      </trkpt>
      <trkpt lat="47.520528" lon="7.906930">
        <ele>395.934136</ele>
        <time>2021-11-14T22:08:32.478Z</time>
      </trkpt>
      <trkpt lat="47.520515" lon="7.907103">
        <ele>395.969057</ele>
        <time>2021-11-14T22:08:34.280Z</time>
      </trkpt>
      <trkpt lat="47.520506" lon="7.907236">
        <ele>395.995872</ele>
        <time>2021-11-14T22:08:35.356Z</time>
      </trkpt>
      <trkpt lat="47.520551" lon="7.907422">
        <ele>396.035509</ele>
        <time>2021-11-14T22:08:37.761Z</time>
      </trkpt>
      <trkpt lat="47.520733" lon="7.907655">
        <ele>396.106980</ele>
        <time>2021-11-14T22:08:40.890Z</time>
      </trkpt>
      <trkpt lat="47.520738" lon="7.907839">
        <ele>396.143922</ele>
        <time>2021-11-14T22:08:42.999Z</time>
      </trkpt>
      <trkpt lat="47.520493" lon="7.908683">
        <ele>396.357317</ele>
        <time>2021-11-14T22:08:51.263Z</time>
      </trkpt>
      <trkpt lat="47.519997" lon="7.910833">
        <ele>397.007752</ele>
        <time>2021-11-14T22:09:17.210Z</time>
      </trkpt>
      <trkpt lat="47.519891" lon="7.911129">
        <ele>397.247830</ele>
        <time>2021-11-14T22:09:21.800Z</time>
      </trkpt>
      <trkpt lat="47.519720" lon="7.911522">
        <ele>397.582830</ele>
        <time>2021-11-14T22:09:27.884Z</time>
      </trkpt>
      <trkpt lat="47.519421" lon="7.912098">
        <ele>398.103415</ele>
        <time>2021-11-14T22:09:37.451Z</time>
      </trkpt>
      <trkpt lat="47.517688" lon="7.914418">
        <ele>400.579485</ele>
        <time>2021-11-14T22:10:22.029Z</time>
      </trkpt>
      <trkpt lat="47.517281" lon="7.915238">
        <ele>401.260289</ele>
        <time>2021-11-14T22:10:35.198Z</time>
      </trkpt>
      <trkpt lat="47.517140" lon="7.915259">
        <ele>401.398632</ele>
        <time>2021-11-14T22:10:37.862Z</time>
      </trkpt>
      <trkpt lat="47.516806" lon="7.914896">
        <ele>401.803102</ele>
        <time>2021-11-14T22:10:45.524Z</time>
      </trkpt>
      <trkpt lat="47.516748" lon="7.914873">
        <ele>401.861719</ele>
        <time>2021-11-14T22:10:46.677Z</time>
      </trkpt>
      <trkpt lat="47.516662" lon="7.914835">
        <ele>401.949334</ele>
        <time>2021-11-14T22:10:48.440Z</time>
      </trkpt>
      <trkpt lat="47.516626" lon="7.914830">
        <ele>401.984632</ele>
        <time>2021-11-14T22:10:49.124Z</time>
      </trkpt>
      <trkpt lat="47.516590" lon="7.914840">
        <ele>402.020390</ele>
        <time>2021-11-14T22:10:49.895Z</time>
      </trkpt>
      <trkpt lat="47.516569" lon="7.914864">
        <ele>402.046287</ele>
        <time>2021-11-14T22:10:50.418Z</time>
      </trkpt>
      <trkpt lat="47.516544" lon="7.914936">
        <ele>402.099665</ele>
        <time>2021-11-14T22:10:51.243Z</time>
      </trkpt>
      <trkpt lat="47.516391" lon="7.915243">
        <ele>402.351221</ele>
        <time>2021-11-14T22:10:55.929Z</time>
      </trkpt>
      <trkpt lat="47.516390" lon="7.915245">
        <ele>402.352862</ele>
        <time>2021-11-14T22:10:56.145Z</time>
      </trkpt>
      <trkpt lat="47.515014" lon="7.917030">
        <ele>404.040658</ele>
        <time>2021-11-14T22:11:29.729Z</time>
      </trkpt>
      <trkpt lat="47.514635" lon="7.917349">
        <ele>404.647817</ele>
        <time>2021-11-14T22:11:37.678Z</time>
      </trkpt>
      <trkpt lat="47.514561" lon="7.917409">
        <ele>404.774313</ele>
        <time>2021-11-14T22:11:39.546Z</time>
      </trkpt>
      <trkpt lat="47.514255" lon="7.917714">
        <ele>405.327380</ele>
        <time>2021-11-14T22:11:46.918Z</time>
      </trkpt>
      <trkpt lat="47.513894" lon="7.917993">
        <ele>405.937936</ele>
        <time>2021-11-14T22:11:55.864Z</time>
      </trkpt>
      <trkpt lat="47.513378" lon="7.918393">
        <ele>406.811248</ele>
        <time>2021-11-14T22:12:08.566Z</time>
      </trkpt>
      <trkpt lat="47.513160" lon="7.918764">
        <ele>407.414647</ele>
        <time>2021-11-14T22:12:16.069Z</time>
      </trkpt>
      <trkpt lat="47.513058" lon="7.918896">
        <ele>407.660763</ele>
        <time>2021-11-14T22:12:19.228Z</time>
      </trkpt>
      <trkpt lat="47.512938" lon="7.919052">
        <ele>407.950881</ele>
        <time>2021-11-14T22:12:23.006Z</time>
      </trkpt>
      <trkpt lat="47.512664" lon="7.919306">
        <ele>408.538186</ele>
        <time>2021-11-14T22:12:30.321Z</time>
      </trkpt>
      <trkpt lat="47.512255" lon="7.919538">
        <ele>409.333892</ele>
        <time>2021-11-14T22:12:39.972Z</time>
      </trkpt>
      <trkpt lat="47.512085" lon="7.919732">
        <ele>409.723832</ele>
        <time>2021-11-14T22:12:44.594Z</time>
      </trkpt>
      <trkpt lat="47.511964" lon="7.919989">
        <ele>410.094493</ele>
        <time>2021-11-14T22:12:49.131Z</time>
      </trkpt>
      <trkpt lat="47.511883" lon="7.920133">
        <ele>410.217526</ele>
        <time>2021-11-14T22:12:51.785Z</time>
      </trkpt>
      <trkpt lat="47.511632" lon="7.920105">
        <ele>410.462196</ele>
        <time>2021-11-14T22:12:58.435Z</time>
      </trkpt>
      <trkpt lat="47.511613" lon="7.920183">
        <ele>410.516635</ele>
        <time>2021-11-14T22:12:59.350Z</time>
      </trkpt>
      <trkpt lat="47.511186" lon="7.920984">
        <ele>411.186588</ele>
        <time>2021-11-14T22:13:12.038Z</time>
      </trkpt>
      <trkpt lat="47.511067" lon="7.921207">
        <ele>411.373179</ele>
        <time>2021-11-14T22:13:15.356Z</time>
      </trkpt>
      <trkpt lat="47.511052" lon="7.921232">
        <ele>411.395133</ele>
        <time>2021-11-14T22:13:15.801Z</time>
      </trkpt>
      <trkpt lat="47.510872" lon="7.921477">
        <ele>411.632804</ele>
        <time>2021-11-14T22:13:20.121Z</time>
      </trkpt>
      <trkpt lat="47.510639" lon="7.921796">
        <ele>411.975598</ele>
        <time>2021-11-14T22:13:25.634Z</time>
      </trkpt>
      <trkpt lat="47.510211" lon="7.922164">
        <ele>412.601141</ele>
        <time>2021-11-14T22:13:34.064Z</time>
      </trkpt>
      <trkpt lat="47.509688" lon="7.922616">
        <ele>413.366529</ele>
        <time>2021-11-14T22:13:46.122Z</time>
      </trkpt>
      <trkpt lat="47.509615" lon="7.922742">
        <ele>413.508242</ele>
        <time>2021-11-14T22:13:49.104Z</time>
      </trkpt>
      <trkpt lat="47.509583" lon="7.922962">
        <ele>413.700361</ele>
        <time>2021-11-14T22:13:51.869Z</time>
      </trkpt>
      <trkpt lat="47.509550" lon="7.923245">
        <ele>413.945532</ele>
        <time>2021-11-14T22:13:56.577Z</time>
      </trkpt>
      <trkpt lat="47.509595" lon="7.923295">
        <ele>414.016642</ele>
        <time>2021-11-14T22:13:57.684Z</time>
      </trkpt>
      <trkpt lat="47.509668" lon="7.923400">
        <ele>414.179485</ele>
        <time>2021-11-14T22:13:59.612Z</time>
      </trkpt>
      <trkpt lat="47.509817" lon="7.923703">
        <ele>414.742442</ele>
        <time>2021-11-14T22:14:05.778Z</time>
      </trkpt>
      <trkpt lat="47.509869" lon="7.923971">
        <ele>415.161271</ele>
        <time>2021-11-14T22:14:09.690Z</time>
      </trkpt>
      <trkpt lat="47.509886" lon="7.924134">
        <ele>415.409006</ele>
        <time>2021-11-14T22:14:13.000Z</time>
      </trkpt>
      <trkpt lat="47.509806" lon="7.924174">
        <ele>415.596777</ele>
        <time>2021-11-14T22:14:14.761Z</time>
      </trkpt>
      <trkpt lat="47.509676" lon="7.924247">
        <ele>415.905959</ele>
        <time>2021-11-14T22:14:17.669Z</time>
      </trkpt>
      <trkpt lat="47.509605" lon="7.924290">
        <ele>416.076544</ele>
        <time>2021-11-14T22:14:19.673Z</time>
      </trkpt>
      <trkpt lat="47.509572" lon="7.924311">
        <ele>416.156420</ele>
        <time>2021-11-14T22:14:20.892Z</time>
      </trkpt>
      <trkpt lat="47.509223" lon="7.924628">
        <ele>417.066930</ele>
        <time>2021-11-14T22:14:30.960Z</time>
      </trkpt>
      <trkpt lat="47.509032" lon="7.924863">
        <ele>417.619196</ele>
        <time>2021-11-14T22:14:36.898Z</time>
      </trkpt>
      <trkpt lat="47.509016" lon="7.924882">
        <ele>417.664808</ele>
        <time>2021-11-14T22:14:37.487Z</time>
      </trkpt>
      <trkpt lat="47.508667" lon="7.925295">
        <ele>418.654486</ele>
        <time>2021-11-14T22:14:48.518Z</time>
      </trkpt>
      <trkpt lat="47.508355" lon="7.925609">
        <ele>419.487605</ele>
        <time>2021-11-14T22:14:56.637Z</time>
      </trkpt>
      <trkpt lat="47.508106" lon="7.925799">
        <ele>420.106216</ele>
        <time>2021-11-14T22:15:02.737Z</time>
      </trkpt>
      <trkpt lat="47.508002" lon="7.925879">
        <ele>420.365032</ele>
        <time>2021-11-14T22:15:05.003Z</time>
      </trkpt>
      <trkpt lat="47.507856" lon="7.925990">
        <ele>420.727474</ele>
        <time>2021-11-14T22:15:08.729Z</time>
      </trkpt>
      <trkpt lat="47.506112" lon="7.927414">
        <ele>426.526387</ele>
        <time>2021-11-14T22:15:59.853Z</time>
      </trkpt>
      <trkpt lat="47.505881" lon="7.927601">
        <ele>427.374465</ele>
        <time>2021-11-14T22:16:09.346Z</time>
      </trkpt>
      <trkpt lat="47.505868" lon="7.927611">
        <ele>427.421656</ele>
        <time>2021-11-14T22:16:09.830Z</time>
      </trkpt>
      <trkpt lat="47.505814" lon="7.927657">
        <ele>427.622342</ele>
        <time>2021-11-14T22:16:11.724Z</time>
      </trkpt>
      <trkpt lat="47.505253" lon="7.928170">
        <ele>429.730320</ele>
        <time>2021-11-14T22:16:33.598Z</time>
      </trkpt>
      <trkpt lat="47.504799" lon="7.928777">
        <ele>431.684072</ele>
        <time>2021-11-14T22:16:49.432Z</time>
      </trkpt>
      <trkpt lat="47.504724" lon="7.928871">
        <ele>431.997915</ele>
        <time>2021-11-14T22:16:53.938Z</time>
      </trkpt>
      <trkpt lat="47.504650" lon="7.928941">
        <ele>432.278376</ele>
        <time>2021-11-14T22:16:55.896Z</time>
      </trkpt>
      <trkpt lat="47.504005" lon="7.929312">
        <ele>433.905949</ele>
        <time>2021-11-14T22:17:11.162Z</time>
      </trkpt>
      <trkpt lat="47.503815" lon="7.929426">
        <ele>434.126642</ele>
        <time>2021-11-14T22:17:14.068Z</time>
      </trkpt>
      <trkpt lat="47.503598" lon="7.929585">
        <ele>434.387287</ele>
        <time>2021-11-14T22:17:19.484Z</time>
      </trkpt>
      <trkpt lat="47.503528" lon="7.929650">
        <ele>434.476239</ele>
        <time>2021-11-14T22:17:20.543Z</time>
      </trkpt>
      <trkpt lat="47.503485" lon="7.929688">
        <ele>434.530149</ele>
        <time>2021-11-14T22:17:22.079Z</time>
      </trkpt>
      <trkpt lat="47.503042" lon="7.930188">
        <ele>435.129834</ele>
        <time>2021-11-14T22:17:31.712Z</time>
      </trkpt>
      <trkpt lat="47.503014" lon="7.930220">
        <ele>435.167913</ele>
        <time>2021-11-14T22:17:32.193Z</time>
      </trkpt>
      <trkpt lat="47.502761" lon="7.930610">
        <ele>435.557709</ele>
        <time>2021-11-14T22:17:38.545Z</time>
      </trkpt>
      <trkpt lat="47.502613" lon="7.930856">
        <ele>435.743095</ele>
        <time>2021-11-14T22:17:42.293Z</time>
      </trkpt>
      <trkpt lat="47.502400" lon="7.931256">
        <ele>436.029734</ele>
        <time>2021-11-14T22:17:49.102Z</time>
      </trkpt>
      <trkpt lat="47.502023" lon="7.932158">
        <ele>436.626667</ele>
        <time>2021-11-14T22:18:02.201Z</time>
      </trkpt>
      <trkpt lat="47.501901" lon="7.932351">
        <ele>436.775420</ele>
        <time>2021-11-14T22:18:06.053Z</time>
      </trkpt>
      <trkpt lat="47.501794" lon="7.932466">
        <ele>436.885576</ele>
        <time>2021-11-14T22:18:07.873Z</time>
      </trkpt>
      <trkpt lat="47.501463" lon="7.932668">
        <ele>437.108676</ele>
        <time>2021-11-14T22:18:14.013Z</time>
      </trkpt>
      <trkpt lat="47.501075" lon="7.932885">
        <ele>437.267925</ele>
        <time>2021-11-14T22:18:21.546Z</time>
      </trkpt>
      <trkpt lat="47.500990" lon="7.932950">
        <ele>437.304658</ele>
        <time>2021-11-14T22:18:23.509Z</time>
      </trkpt>
      <trkpt lat="47.500843" lon="7.933102">
        <ele>437.373504</ele>
        <time>2021-11-14T22:18:26.252Z</time>
      </trkpt>
      <trkpt lat="47.500435" lon="7.933872">
        <ele>437.627333</ele>
        <time>2021-11-14T22:18:36.125Z</time>
      </trkpt>
      <trkpt lat="47.500386" lon="7.933937">
        <ele>437.652596</ele>
        <time>2021-11-14T22:18:36.961Z</time>
      </trkpt>
      <trkpt lat="47.500352" lon="7.933976">
        <ele>437.669111</ele>
        <time>2021-11-14T22:18:37.719Z</time>
      </trkpt>
      <trkpt lat="47.500275" lon="7.934029">
        <ele>437.701714</ele>
        <time>2021-11-14T22:18:38.872Z</time>
      </trkpt>
      <trkpt lat="47.500208" lon="7.934071">
        <ele>437.729650</ele>
        <time>2021-11-14T22:18:40.153Z</time>
      </trkpt>
      <trkpt lat="47.500193" lon="7.934023">
        <ele>437.760578</ele>
        <time>2021-11-14T22:18:40.615Z</time>
      </trkpt>
      <trkpt lat="47.500169" lon="7.933984">
        <ele>437.802402</ele>
        <time>2021-11-14T22:18:41.038Z</time>
      </trkpt>
      <trkpt lat="47.500138" lon="7.933956">
        <ele>437.845019</ele>
        <time>2021-11-14T22:18:41.556Z</time>
      </trkpt>
      <trkpt lat="47.500067" lon="7.933946">
        <ele>437.928715</ele>
        <time>2021-11-14T22:18:42.483Z</time>
      </trkpt>
      <trkpt lat="47.500034" lon="7.933965">
        <ele>437.970267</ele>
        <time>2021-11-14T22:18:43.298Z</time>
      </trkpt>
      <trkpt lat="47.499993" lon="7.933864">
        <ele>438.063685</ele>
        <time>2021-11-14T22:18:44.926Z</time>
      </trkpt>
      <trkpt lat="47.499822" lon="7.933272">
        <ele>438.574131</ele>
        <time>2021-11-14T22:18:52.803Z</time>
      </trkpt>
      <trkpt lat="47.499538" lon="7.932868">
        <ele>439.036371</ele>
        <time>2021-11-14T22:19:00.760Z</time>
      </trkpt>
      <trkpt lat="47.499421" lon="7.932805">
        <ele>439.182475</ele>
        <time>2021-11-14T22:19:03.811Z</time>
      </trkpt>
      <trkpt lat="47.499354" lon="7.932769">
        <ele>439.266120</ele>
        <time>2021-11-14T22:19:05.539Z</time>
      </trkpt>
      <trkpt lat="47.499088" lon="7.932741">
        <ele>439.579063</ele>
        <time>2021-11-14T22:19:11.416Z</time>
      </trkpt>
      <trkpt lat="47.498997" lon="7.932758">
        <ele>439.686700</ele>
        <time>2021-11-14T22:19:13.454Z</time>
      </trkpt>
      <trkpt lat="47.498925" lon="7.932781">
        <ele>439.773138</ele>
        <time>2021-11-14T22:19:15.161Z</time>
      </trkpt>
      <trkpt lat="47.498481" lon="7.933011">
        <ele>440.618706</ele>
        <time>2021-11-14T22:19:24.414Z</time>
      </trkpt>
      <trkpt lat="47.498431" lon="7.932995">
        <ele>440.715492</ele>
        <time>2021-11-14T22:19:25.637Z</time>
      </trkpt>
      <trkpt lat="47.498391" lon="7.932972">
        <ele>440.796682</ele>
        <time>2021-11-14T22:19:26.556Z</time>
      </trkpt>
      <trkpt lat="47.498196" lon="7.932613">
        <ele>441.385499</ele>
        <time>2021-11-14T22:19:33.279Z</time>
      </trkpt>
      <trkpt lat="47.498138" lon="7.932522">
        <ele>441.545414</ele>
        <time>2021-11-14T22:19:35.280Z</time>
      </trkpt>
      <trkpt lat="47.498068" lon="7.932426">
        <ele>441.725967</ele>
        <time>2021-11-14T22:19:37.727Z</time>
      </trkpt>
      <trkpt lat="47.497907" lon="7.932254">
        <ele>442.101639</ele>
        <time>2021-11-14T22:19:42.429Z</time>
      </trkpt>
      <trkpt lat="47.497676" lon="7.932013">
        <ele>442.636354</ele>
        <time>2021-11-14T22:19:48.907Z</time>
      </trkpt>
      <trkpt lat="47.497430" lon="7.931757">
        <ele>443.205314</ele>
        <time>2021-11-14T22:19:56.499Z</time>
      </trkpt>
      <trkpt lat="47.497221" lon="7.931528">
        <ele>443.581321</ele>
        <time>2021-11-14T22:20:02.496Z</time>
      </trkpt>
      <trkpt lat="47.497104" lon="7.931414">
        <ele>443.777813</ele>
        <time>2021-11-14T22:20:05.294Z</time>
      </trkpt>
      <trkpt lat="47.496998" lon="7.931330">
        <ele>443.946476</ele>
        <time>2021-11-14T22:20:07.705Z</time>
      </trkpt>
      <trkpt lat="47.496424" lon="7.931075">
        <ele>444.787144</ele>
        <time>2021-11-14T22:20:18.453Z</time>
      </trkpt>
      <trkpt lat="47.496205" lon="7.930904">
        <ele>445.134475</ele>
        <time>2021-11-14T22:20:22.473Z</time>
      </trkpt>
      <trkpt lat="47.496162" lon="7.930842">
        <ele>445.218684</ele>
        <time>2021-11-14T22:20:24.039Z</time>
      </trkpt>
      <trkpt lat="47.496117" lon="7.930763">
        <ele>445.316616</ele>
        <time>2021-11-14T22:20:25.307Z</time>
      </trkpt>
      <trkpt lat="47.496051" lon="7.930607">
        <ele>445.491061</ele>
        <time>2021-11-14T22:20:28.089Z</time>
      </trkpt>
      <trkpt lat="47.495985" lon="7.930428">
        <ele>445.684328</ele>
        <time>2021-11-14T22:20:30.921Z</time>
      </trkpt>
      <trkpt lat="47.495801" lon="7.929891">
        <ele>446.661253</ele>
        <time>2021-11-14T22:20:40.578Z</time>
      </trkpt>
      <trkpt lat="47.495622" lon="7.929400">
        <ele>447.634664</ele>
        <time>2021-11-14T22:20:49.191Z</time>
      </trkpt>
      <trkpt lat="47.495562" lon="7.929221">
        <ele>447.983292</ele>
        <time>2021-11-14T22:20:52.151Z</time>
      </trkpt>
      <trkpt lat="47.495530" lon="7.929063">
        <ele>448.271078</ele>
        <time>2021-11-14T22:20:54.625Z</time>
      </trkpt>
      <trkpt lat="47.495455" lon="7.928595">
        <ele>449.110268</ele>
        <time>2021-11-14T22:21:03.452Z</time>
      </trkpt>
      <trkpt lat="47.495268" lon="7.927740">
        <ele>450.806472</ele>
        <time>2021-11-14T22:21:20.462Z</time>
      </trkpt>
      <trkpt lat="47.495031" lon="7.927006">
        <ele>452.921273</ele>
        <time>2021-11-14T22:21:37.364Z</time>
      </trkpt>
      <trkpt lat="47.494945" lon="7.926765">
        <ele>453.629791</ele>
        <time>2021-11-14T22:21:44.007Z</time>
      </trkpt>
      <trkpt lat="47.494515" lon="7.925509">
        <ele>457.290153</ele>
        <time>2021-11-14T22:22:12.426Z</time>
      </trkpt>
      <trkpt lat="47.494438" lon="7.925289">
        <ele>457.865213</ele>
        <time>2021-11-14T22:22:17.859Z</time>
      </trkpt>
      <trkpt lat="47.494034" lon="7.924101">
        <ele>460.923141</ele>
        <time>2021-11-14T22:22:42.922Z</time>
      </trkpt>
      <trkpt lat="47.493708" lon="7.923049">
        <ele>463.602390</ele>
        <time>2021-11-14T22:23:04.494Z</time>
      </trkpt>
      <trkpt lat="47.493397" lon="7.921760">
        <ele>467.201201</ele>
        <time>2021-11-14T22:23:31.474Z</time>
      </trkpt>
      <trkpt lat="47.493307" lon="7.921373">
        <ele>468.277343</ele>
        <time>2021-11-14T22:23:39.968Z</time>
      </trkpt>
      <trkpt lat="47.493236" lon="7.921091">
        <ele>469.068624</ele>
        <time>2021-11-14T22:23:46.349Z</time>
      </trkpt>
      <trkpt lat="47.493132" lon="7.920716">
        <ele>470.134458</ele>
        <time>2021-11-14T22:23:55.399Z</time>
      </trkpt>
      <trkpt lat="47.492813" lon="7.919900">
        <ele>473.083534</ele>
        <time>2021-11-14T22:24:16.882Z</time>
      </trkpt>
      <trkpt lat="47.492584" lon="7.919482">
        <ele>474.807059</ele>
        <time>2021-11-14T22:24:29.654Z</time>
      </trkpt>
      <trkpt lat="47.492227" lon="7.918989">
        <ele>477.121519</ele>
        <time>2021-11-14T22:24:46.556Z</time>
      </trkpt>
      <trkpt lat="47.491324" lon="7.917985">
        <ele>481.765670</ele>
        <time>2021-11-14T22:25:23.341Z</time>
      </trkpt>
      <trkpt lat="47.490822" lon="7.917158">
        <ele>484.603046</ele>
        <time>2021-11-14T22:25:45.501Z</time>
      </trkpt>
      <trkpt lat="47.490607" lon="7.916690">
        <ele>485.953039</ele>
        <time>2021-11-14T22:25:55.699Z</time>
      </trkpt>
      <trkpt lat="47.490429" lon="7.916164">
        <ele>486.931695</ele>
        <time>2021-11-14T22:26:05.568Z</time>
      </trkpt>
      <trkpt lat="47.490283" lon="7.915612">
        <ele>487.917848</ele>
        <time>2021-11-14T22:26:15.396Z</time>
      </trkpt>
      <trkpt lat="47.489987" lon="7.914083">
        <ele>490.618317</ele>
        <time>2021-11-14T22:26:41.177Z</time>
      </trkpt>
      <trkpt lat="47.489951" lon="7.913893">
        <ele>490.996368</ele>
        <time>2021-11-14T22:26:44.171Z</time>
      </trkpt>
      <trkpt lat="47.489922" lon="7.913738">
        <ele>491.304497</ele>
        <time>2021-11-14T22:26:46.676Z</time>
      </trkpt>
      <trkpt lat="47.489843" lon="7.913398">
        <ele>491.993321</ele>
        <time>2021-11-14T22:26:52.022Z</time>
      </trkpt>
      <trkpt lat="47.489607" lon="7.912646">
        <ele>493.581846</ele>
        <time>2021-11-14T22:27:06.251Z</time>
      </trkpt>
      <trkpt lat="47.489216" lon="7.911685">
        <ele>495.915909</ele>
        <time>2021-11-14T22:27:28.565Z</time>
      </trkpt>
      <trkpt lat="47.489040" lon="7.911300">
        <ele>497.192332</ele>
        <time>2021-11-14T22:27:38.032Z</time>
      </trkpt>
      <trkpt lat="47.488908" lon="7.911009">
        <ele>498.154775</ele>
        <time>2021-11-14T22:27:46.593Z</time>
      </trkpt>
      <trkpt lat="47.488699" lon="7.910498">
        <ele>499.795020</ele>
        <time>2021-11-14T22:28:00.256Z</time>
      </trkpt>
      <trkpt lat="47.488366" lon="7.909318">
        <ele>503.154221</ele>
        <time>2021-11-14T22:28:26.128Z</time>
      </trkpt>
      <trkpt lat="47.488241" lon="7.908835">
        <ele>504.262295</ele>
        <time>2021-11-14T22:28:35.315Z</time>
      </trkpt>
      <trkpt lat="47.488185" lon="7.908663">
        <ele>504.671331</ele>
        <time>2021-11-14T22:28:39.367Z</time>
      </trkpt>
      <trkpt lat="47.488080" lon="7.908344">
        <ele>505.431525</ele>
        <time>2021-11-14T22:28:45.328Z</time>
      </trkpt>
      <trkpt lat="47.487763" lon="7.907711">
        <ele>507.119492</ele>
        <time>2021-11-14T22:29:00.385Z</time>
      </trkpt>
      <trkpt lat="47.487587" lon="7.907459">
        <ele>507.895924</ele>
        <time>2021-11-14T22:29:06.845Z</time>
      </trkpt>
      <trkpt lat="47.487378" lon="7.907191">
        <ele>508.960101</ele>
        <time>2021-11-14T22:29:14.044Z</time>
      </trkpt>
      <trkpt lat="47.487197" lon="7.906946">
        <ele>510.056919</ele>
        <time>2021-11-14T22:29:20.185Z</time>
      </trkpt>
      <trkpt lat="47.486969" lon="7.906583">
        <ele>511.554367</ele>
        <time>2021-11-14T22:29:28.493Z</time>
      </trkpt>
      <trkpt lat="47.486769" lon="7.905976">
        <ele>513.594863</ele>
        <time>2021-11-14T22:29:44.523Z</time>
      </trkpt>
      <trkpt lat="47.486724" lon="7.905485">
        <ele>515.092039</ele>
        <time>2021-11-14T22:29:57.194Z</time>
      </trkpt>
      <trkpt lat="47.486755" lon="7.904487">
        <ele>518.735075</ele>
        <time>2021-11-14T22:30:24.060Z</time>
      </trkpt>
      <trkpt lat="47.486721" lon="7.904326">
        <ele>519.426335</ele>
        <time>2021-11-14T22:30:29.076Z</time>
      </trkpt>
      <trkpt lat="47.486688" lon="7.904238">
        <ele>519.838773</ele>
        <time>2021-11-14T22:30:32.231Z</time>
      </trkpt>
      <trkpt lat="47.486480" lon="7.904016">
        <ele>521.394028</ele>
        <time>2021-11-14T22:30:41.335Z</time>
      </trkpt>
      <trkpt lat="47.486247" lon="7.904043">
        <ele>522.811360</ele>
        <time>2021-11-14T22:30:50.002Z</time>
      </trkpt>
      <trkpt lat="47.486049" lon="7.904262">
        <ele>524.310458</ele>
        <time>2021-11-14T22:31:01.397Z</time>
      </trkpt>
      <trkpt lat="47.485593" lon="7.905145">
        <ele>527.834500</ele>
        <time>2021-11-14T22:31:31.165Z</time>
      </trkpt>
      <trkpt lat="47.485331" lon="7.905337">
        <ele>528.464877</ele>
        <time>2021-11-14T22:31:39.748Z</time>
      </trkpt>
      <trkpt lat="47.485073" lon="7.905345">
        <ele>529.021276</ele>
        <time>2021-11-14T22:31:46.361Z</time>
      </trkpt>
      <trkpt lat="47.485049" lon="7.905336">
        <ele>529.074658</ele>
        <time>2021-11-14T22:31:47.958Z</time>
      </trkpt>
      <trkpt lat="47.484936" lon="7.905289">
        <ele>529.327740</ele>
        <time>2021-11-14T22:31:50.587Z</time>
      </trkpt>
      <trkpt lat="47.484713" lon="7.905133">
        <ele>529.859574</ele>
        <time>2021-11-14T22:31:56.207Z</time>
      </trkpt>
      <trkpt lat="47.484481" lon="7.904947">
        <ele>530.428491</ele>
        <time>2021-11-14T22:31:59.583Z</time>
      </trkpt>
      <trkpt lat="47.484248" lon="7.904856">
        <ele>530.948069</ele>
        <time>2021-11-14T22:32:02.612Z</time>
      </trkpt>
      <trkpt lat="47.484124" lon="7.904824">
        <ele>530.971216</ele>
        <time>2021-11-14T22:32:04.089Z</time>
      </trkpt>
      <trkpt lat="47.484064" lon="7.904808">
        <ele>530.669201</ele>
        <time>2021-11-14T22:32:04.757Z</time>
      </trkpt>
      <trkpt lat="47.484005" lon="7.904793">
        <ele>530.372646</ele>
        <time>2021-11-14T22:32:05.490Z</time>
      </trkpt>
      <trkpt lat="47.483385" lon="7.904708">
        <ele>527.288151</ele>
        <time>2021-11-14T22:32:11.944Z</time>
      </trkpt>
      <trkpt lat="47.483329" lon="7.904705">
        <ele>527.010558</ele>
        <time>2021-11-14T22:32:12.451Z</time>
      </trkpt>
      <trkpt lat="47.483101" lon="7.904680">
        <ele>525.878000</ele>
        <time>2021-11-14T22:32:14.580Z</time>
      </trkpt>
      <trkpt lat="47.482433" lon="7.904538">
        <ele>522.534905</ele>
        <time>2021-11-14T22:32:20.551Z</time>
      </trkpt>
      <trkpt lat="47.482157" lon="7.904346">
        <ele>520.633467</ele>
        <time>2021-11-14T22:32:23.265Z</time>
      </trkpt>
      <trkpt lat="47.481709" lon="7.903892">
        <ele>517.075192</ele>
        <time>2021-11-14T22:32:28.104Z</time>
      </trkpt>
      <trkpt lat="47.481588" lon="7.903776">
        <ele>516.130396</ele>
        <time>2021-11-14T22:32:29.390Z</time>
      </trkpt>
      <trkpt lat="47.481478" lon="7.903693">
        <ele>515.321248</ele>
        <time>2021-11-14T22:32:30.522Z</time>
      </trkpt>
      <trkpt lat="47.480980" lon="7.903461">
        <ele>511.899907</ele>
        <time>2021-11-14T22:32:35.353Z</time>
      </trkpt>
      <trkpt lat="47.478367" lon="7.903166">
        <ele>497.517328</ele>
        <time>2021-11-14T22:32:59.985Z</time>
      </trkpt>
      <trkpt lat="47.478182" lon="7.903109">
        <ele>496.372461</ele>
        <time>2021-11-14T22:33:01.729Z</time>
      </trkpt>
      <trkpt lat="47.478118" lon="7.903075">
        <ele>495.960481</ele>
        <time>2021-11-14T22:33:02.327Z</time>
      </trkpt>
      <trkpt lat="47.476982" lon="7.902234">
        <ele>488.244534</ele>
        <time>2021-11-14T22:33:13.820Z</time>
      </trkpt>
      <trkpt lat="47.476536" lon="7.901977">
        <ele>485.315632</ele>
        <time>2021-11-14T22:33:18.188Z</time>
      </trkpt>
      <trkpt lat="47.476364" lon="7.901870">
        <ele>484.173855</ele>
        <time>2021-11-14T22:33:19.883Z</time>
      </trkpt>
      <trkpt lat="47.475300" lon="7.901112">
        <ele>477.269214</ele>
        <time>2021-11-14T22:33:30.792Z</time>
      </trkpt>
      <trkpt lat="47.475163" lon="7.901034">
        <ele>476.496433</ele>
        <time>2021-11-14T22:33:32.118Z</time>
      </trkpt>
      <trkpt lat="47.474888" lon="7.900841">
        <ele>474.894098</ele>
        <time>2021-11-14T22:33:34.970Z</time>
      </trkpt>
      <trkpt lat="47.474617" lon="7.900560">
        <ele>473.151948</ele>
        <time>2021-11-14T22:33:38.100Z</time>
      </trkpt>
      <trkpt lat="47.474336" lon="7.900125">
        <ele>471.010878</ele>
        <time>2021-11-14T22:33:41.941Z</time>
      </trkpt>
      <trkpt lat="47.474186" lon="7.899915">
        <ele>469.923708</ele>
        <time>2021-11-14T22:33:43.876Z</time>
      </trkpt>
      <trkpt lat="47.474087" lon="7.899774">
        <ele>469.248451</ele>
        <time>2021-11-14T22:33:45.188Z</time>
      </trkpt>
      <trkpt lat="47.473931" lon="7.899567">
        <ele>468.236627</ele>
        <time>2021-11-14T22:33:47.148Z</time>
      </trkpt>
      <trkpt lat="47.473317" lon="7.898945">
        <ele>464.643524</ele>
        <time>2021-11-14T22:33:54.388Z</time>
      </trkpt>
      <trkpt lat="47.471910" lon="7.898392">
        <ele>457.291618</ele>
        <time>2021-11-14T22:34:07.981Z</time>
      </trkpt>
      <trkpt lat="47.471825" lon="7.898370">
        <ele>456.836376</ele>
        <time>2021-11-14T22:34:08.769Z</time>
      </trkpt>
      <trkpt lat="47.471597" lon="7.898344">
        <ele>455.629961</ele>
        <time>2021-11-14T22:34:10.921Z</time>
      </trkpt>
      <trkpt lat="47.471002" lon="7.898222">
        <ele>452.460944</ele>
        <time>2021-11-14T22:34:16.516Z</time>
      </trkpt>
      <trkpt lat="47.469999" lon="7.897879">
        <ele>448.430467</ele>
        <time>2021-11-14T22:34:26.268Z</time>
      </trkpt>
      <trkpt lat="47.469806" lon="7.897795">
        <ele>447.693784</ele>
        <time>2021-11-14T22:34:28.297Z</time>
      </trkpt>
      <trkpt lat="47.469534" lon="7.897638">
        <ele>446.624638</ele>
        <time>2021-11-14T22:34:31.382Z</time>
      </trkpt>
      <trkpt lat="47.469598" lon="7.897405">
        <ele>446.002092</ele>
        <time>2021-11-14T22:34:33.173Z</time>
      </trkpt>
      <trkpt lat="47.469652" lon="7.897139">
        <ele>445.314607</ele>
        <time>2021-11-14T22:34:35.197Z</time>
      </trkpt>
      <trkpt lat="47.469678" lon="7.896938">
        <ele>444.952906</ele>
        <time>2021-11-14T22:34:36.660Z</time>
      </trkpt>
      <trkpt lat="47.469692" lon="7.896826">
        <ele>444.861847</ele>
        <time>2021-11-14T22:34:37.556Z</time>
      </trkpt>
      <trkpt lat="47.469738" lon="7.896220">
        <ele>444.374321</ele>
        <time>2021-11-14T22:34:42.155Z</time>
      </trkpt>
      <trkpt lat="47.469747" lon="7.895922">
        <ele>444.135841</ele>
        <time>2021-11-14T22:34:44.395Z</time>
      </trkpt>
      <trkpt lat="47.469734" lon="7.895575">
        <ele>443.857998</ele>
        <time>2021-11-14T22:34:47.434Z</time>
      </trkpt>
      <trkpt lat="47.469728" lon="7.895384">
        <ele>443.705134</ele>
        <time>2021-11-14T22:34:49.030Z</time>
      </trkpt>
      <trkpt lat="47.469714" lon="7.895204">
        <ele>443.560279</ele>
        <time>2021-11-14T22:34:50.702Z</time>
      </trkpt>
      <trkpt lat="47.469691" lon="7.894970">
        <ele>443.371235</ele>
        <time>2021-11-14T22:34:52.838Z</time>
      </trkpt>
      <trkpt lat="47.469658" lon="7.894567">
        <ele>443.046692</ele>
        <time>2021-11-14T22:34:56.505Z</time>
      </trkpt>
      <trkpt lat="47.469496" lon="7.893085">
        <ele>442.208754</ele>
        <time>2021-11-14T22:35:09.719Z</time>
      </trkpt>
      <trkpt lat="47.469288" lon="7.891996">
        <ele>441.616692</ele>
        <time>2021-11-14T22:35:19.231Z</time>
      </trkpt>
      <trkpt lat="47.468951" lon="7.890216">
        <ele>440.330960</ele>
        <time>2021-11-14T22:35:34.234Z</time>
      </trkpt>
      <trkpt lat="47.468718" lon="7.888938">
        <ele>439.554493</ele>
        <time>2021-11-14T22:35:45.113Z</time>
      </trkpt>
      <trkpt lat="47.468546" lon="7.888014">
        <ele>439.436308</ele>
        <time>2021-11-14T22:35:53.439Z</time>
      </trkpt>
      <trkpt lat="47.468250" lon="7.886308">
        <ele>439.787057</ele>
        <time>2021-11-14T22:36:11.792Z</time>
      </trkpt>
      <trkpt lat="47.468174" lon="7.885724">
        <ele>440.672073</ele>
        <time>2021-11-14T22:36:20.692Z</time>
      </trkpt>
      <trkpt lat="47.468160" lon="7.885412">
        <ele>441.137387</ele>
        <time>2021-11-14T22:36:25.630Z</time>
      </trkpt>
      <trkpt lat="47.468160" lon="7.885131">
        <ele>441.555548</ele>
        <time>2021-11-14T22:36:30.149Z</time>
      </trkpt>
      <trkpt lat="47.468170" lon="7.884753">
        <ele>442.118486</ele>
        <time>2021-11-14T22:36:35.887Z</time>
      </trkpt>
      <trkpt lat="47.468175" lon="7.884477">
        <ele>442.529354</ele>
        <time>2021-11-14T22:36:41.849Z</time>
      </trkpt>
      <trkpt lat="47.468139" lon="7.884094">
        <ele>443.104785</ele>
        <time>2021-11-14T22:36:49.460Z</time>
      </trkpt>
      <trkpt lat="47.468085" lon="7.883534">
        <ele>443.911686</ele>
        <time>2021-11-14T22:37:01.304Z</time>
      </trkpt>
      <trkpt lat="47.467855" lon="7.882596">
        <ele>445.325050</ele>
        <time>2021-11-14T22:37:20.659Z</time>
      </trkpt>
      <trkpt lat="47.467832" lon="7.882502">
        <ele>445.466653</ele>
        <time>2021-11-14T22:37:23.011Z</time>
      </trkpt>
      <trkpt lat="47.467789" lon="7.882188">
        <ele>445.920464</ele>
        <time>2021-11-14T22:37:28.338Z</time>
      </trkpt>
      <trkpt lat="47.467755" lon="7.881902">
        <ele>446.331795</ele>
        <time>2021-11-14T22:37:32.679Z</time>
      </trkpt>
      <trkpt lat="47.467712" lon="7.880819">
        <ele>444.800661</ele>
        <time>2021-11-14T22:37:41.421Z</time>
      </trkpt>
      <trkpt lat="47.467695" lon="7.879712">
        <ele>440.886436</ele>
        <time>2021-11-14T22:37:48.307Z</time>
      </trkpt>
      <trkpt lat="47.467758" lon="7.879308">
        <ele>439.420802</ele>
        <time>2021-11-14T22:37:50.794Z</time>
      </trkpt>
      <trkpt lat="47.467814" lon="7.879126">
        <ele>438.713928</ele>
        <time>2021-11-14T22:37:51.963Z</time>
      </trkpt>
      <trkpt lat="47.467908" lon="7.878819">
        <ele>437.499183</ele>
        <time>2021-11-14T22:37:53.990Z</time>
      </trkpt>
      <trkpt lat="47.468067" lon="7.878427">
        <ele>435.281746</ele>
        <time>2021-11-14T22:37:56.767Z</time>
      </trkpt>
      <trkpt lat="47.468104" lon="7.878354">
        <ele>434.839180</ele>
        <time>2021-11-14T22:37:57.278Z</time>
      </trkpt>
      <trkpt lat="47.468268" lon="7.878083">
        <ele>433.074902</ele>
        <time>2021-11-14T22:37:59.483Z</time>
      </trkpt>
      <trkpt lat="47.468308" lon="7.877998">
        <ele>432.572542</ele>
        <time>2021-11-14T22:38:00.122Z</time>
      </trkpt>
      <trkpt lat="47.468327" lon="7.877957">
        <ele>432.331426</ele>
        <time>2021-11-14T22:38:00.400Z</time>
      </trkpt>
      <trkpt lat="47.468377" lon="7.877826">
        <ele>431.601718</ele>
        <time>2021-11-14T22:38:01.277Z</time>
      </trkpt>
      <trkpt lat="47.468557" lon="7.876917">
        <ele>427.007314</ele>
        <time>2021-11-14T22:38:06.945Z</time>
      </trkpt>
      <trkpt lat="47.468639" lon="7.876439">
        <ele>424.655034</ele>
        <time>2021-11-14T22:38:10.141Z</time>
      </trkpt>
      <trkpt lat="47.468698" lon="7.876140">
        <ele>424.080270</ele>
        <time>2021-11-14T22:38:12.242Z</time>
      </trkpt>
      <trkpt lat="47.468806" lon="7.875696">
        <ele>423.209540</ele>
        <time>2021-11-14T22:38:15.521Z</time>
      </trkpt>
      <trkpt lat="47.468925" lon="7.875205">
        <ele>422.247039</ele>
        <time>2021-11-14T22:38:19.450Z</time>
      </trkpt>
      <trkpt lat="47.468989" lon="7.874967">
        <ele>421.774393</ele>
        <time>2021-11-14T22:38:21.243Z</time>
      </trkpt>
      <trkpt lat="47.469050" lon="7.874738">
        <ele>421.320202</ele>
        <time>2021-11-14T22:38:23.127Z</time>
      </trkpt>
      <trkpt lat="47.469068" lon="7.874689">
        <ele>421.217296</ele>
        <time>2021-11-14T22:38:23.560Z</time>
      </trkpt>
      <trkpt lat="47.469097" lon="7.874606">
        <ele>421.044890</ele>
        <time>2021-11-14T22:38:24.195Z</time>
      </trkpt>
      <trkpt lat="47.469136" lon="7.874516">
        <ele>420.847624</ele>
        <time>2021-11-14T22:38:24.950Z</time>
      </trkpt>
      <trkpt lat="47.469173" lon="7.874432">
        <ele>420.662619</ele>
        <time>2021-11-14T22:38:25.702Z</time>
      </trkpt>
      <trkpt lat="47.469224" lon="7.874328">
        <ele>420.425534</ele>
        <time>2021-11-14T22:38:26.744Z</time>
      </trkpt>
      <trkpt lat="47.469422" lon="7.873965">
        <ele>419.632834</ele>
        <time>2021-11-14T22:38:30.193Z</time>
      </trkpt>
      <trkpt lat="47.469489" lon="7.873809">
        <ele>419.405020</ele>
        <time>2021-11-14T22:38:31.634Z</time>
      </trkpt>
      <trkpt lat="47.469626" lon="7.873477">
        <ele>418.925573</ele>
        <time>2021-11-14T22:38:34.510Z</time>
      </trkpt>
      <trkpt lat="47.469682" lon="7.873326">
        <ele>418.713280</ele>
        <time>2021-11-14T22:38:35.850Z</time>
      </trkpt>
      <trkpt lat="47.469710" lon="7.873249">
        <ele>418.605508</ele>
        <time>2021-11-14T22:38:36.431Z</time>
      </trkpt>
      <trkpt lat="47.469969" lon="7.872276">
        <ele>417.316557</ele>
        <time>2021-11-14T22:38:44.417Z</time>
      </trkpt>
      <trkpt lat="47.470156" lon="7.871491">
        <ele>416.350474</ele>
        <time>2021-11-14T22:38:50.714Z</time>
      </trkpt>
      <trkpt lat="47.470217" lon="7.871214">
        <ele>416.099178</ele>
        <time>2021-11-14T22:38:52.879Z</time>
      </trkpt>
      <trkpt lat="47.470245" lon="7.871088">
        <ele>415.984769</ele>
        <time>2021-11-14T22:38:53.877Z</time>
      </trkpt>
      <trkpt lat="47.470316" lon="7.870753">
        <ele>415.681933</ele>
        <time>2021-11-14T22:38:56.753Z</time>
      </trkpt>
      <trkpt lat="47.470333" lon="7.870669">
        <ele>415.606298</ele>
        <time>2021-11-14T22:38:57.369Z</time>
      </trkpt>
      <trkpt lat="47.470350" lon="7.870570">
        <ele>415.518190</ele>
        <time>2021-11-14T22:38:58.163Z</time>
      </trkpt>
      <trkpt lat="47.470379" lon="7.870338">
        <ele>415.314678</ele>
        <time>2021-11-14T22:39:00.149Z</time>
      </trkpt>
      <trkpt lat="47.470397" lon="7.870147">
        <ele>415.148331</ele>
        <time>2021-11-14T22:39:02.245Z</time>
      </trkpt>
      <trkpt lat="47.470378" lon="7.869626">
        <ele>414.698272</ele>
        <time>2021-11-14T22:39:08.263Z</time>
      </trkpt>
      <trkpt lat="47.470309" lon="7.869201">
        <ele>414.321248</ele>
        <time>2021-11-14T22:39:13.623Z</time>
      </trkpt>
      <trkpt lat="47.470234" lon="7.868884">
        <ele>414.105417</ele>
        <time>2021-11-14T22:39:17.632Z</time>
      </trkpt>
      <trkpt lat="47.470127" lon="7.868484">
        <ele>413.902303</ele>
        <time>2021-11-14T22:39:23.046Z</time>
      </trkpt>
      <trkpt lat="47.469915" lon="7.867494">
        <ele>413.411969</ele>
        <time>2021-11-14T22:39:36.213Z</time>
      </trkpt>
      <trkpt lat="47.469808" lon="7.866690">
        <ele>413.025064</ele>
        <time>2021-11-14T22:39:45.937Z</time>
      </trkpt>
      <trkpt lat="47.469764" lon="7.866452">
        <ele>412.873015</ele>
        <time>2021-11-14T22:39:48.948Z</time>
      </trkpt>
      <trkpt lat="47.469710" lon="7.866208">
        <ele>412.607495</ele>
        <time>2021-11-14T22:39:51.915Z</time>
      </trkpt>
      <trkpt lat="47.469629" lon="7.865918">
        <ele>412.282988</ele>
        <time>2021-11-14T22:39:55.670Z</time>
      </trkpt>
      <trkpt lat="47.469305" lon="7.864692">
        <ele>410.921622</ele>
        <time>2021-11-14T22:40:10.068Z</time>
      </trkpt>
      <trkpt lat="47.469011" lon="7.863405">
        <ele>409.445088</ele>
        <time>2021-11-14T22:40:24.779Z</time>
      </trkpt>
      <trkpt lat="47.468986" lon="7.863323">
        <ele>409.342119</ele>
        <time>2021-11-14T22:40:25.636Z</time>
      </trkpt>
      <trkpt lat="47.468943" lon="7.863195">
        <ele>409.178504</ele>
        <time>2021-11-14T22:40:27.184Z</time>
      </trkpt>
      <trkpt lat="47.468859" lon="7.862978">
        <ele>408.892263</ele>
        <time>2021-11-14T22:40:29.947Z</time>
      </trkpt>
      <trkpt lat="47.468825" lon="7.862900">
        <ele>408.786025</ele>
        <time>2021-11-14T22:40:30.923Z</time>
      </trkpt>
      <trkpt lat="47.468543" lon="7.862357">
        <ele>408.002203</ele>
        <time>2021-11-14T22:40:38.333Z</time>
      </trkpt>
      <trkpt lat="47.468224" lon="7.861805">
        <ele>407.170905</ele>
        <time>2021-11-14T22:40:46.495Z</time>
      </trkpt>
      <trkpt lat="47.467944" lon="7.861300">
        <ele>406.714697</ele>
        <time>2021-11-14T22:40:53.869Z</time>
      </trkpt>
      <trkpt lat="47.467266" lon="7.860107">
        <ele>405.655074</ele>
        <time>2021-11-14T22:41:12.580Z</time>
      </trkpt>
      <trkpt lat="47.467047" lon="7.859682">
        <ele>405.299974</ele>
        <time>2021-11-14T22:41:18.777Z</time>
      </trkpt>
      <trkpt lat="47.466922" lon="7.859398">
        <ele>405.116584</ele>
        <time>2021-11-14T22:41:22.739Z</time>
      </trkpt>
      <trkpt lat="47.466824" lon="7.859137">
        <ele>404.955019</ele>
        <time>2021-11-14T22:41:26.437Z</time>
      </trkpt>
      <trkpt lat="47.466673" lon="7.858620">
        <ele>404.650248</ele>
        <time>2021-11-14T22:41:32.991Z</time>
      </trkpt>
      <trkpt lat="47.466576" lon="7.858236">
        <ele>404.428412</ele>
        <time>2021-11-14T22:41:37.790Z</time>
      </trkpt>
      <trkpt lat="47.466518" lon="7.858022">
        <ele>404.303644</ele>
        <time>2021-11-14T22:41:39.784Z</time>
      </trkpt>
      <trkpt lat="47.466443" lon="7.857566">
        <ele>404.049679</ele>
        <time>2021-11-14T22:41:43.836Z</time>
      </trkpt>
      <trkpt lat="47.466347" lon="7.856973">
        <ele>403.908177</ele>
        <time>2021-11-14T22:41:49.488Z</time>
      </trkpt>
      <trkpt lat="47.466344" lon="7.856945">
        <ele>403.909596</ele>
        <time>2021-11-14T22:41:49.679Z</time>
      </trkpt>
      <trkpt lat="47.466322" lon="7.856655">
        <ele>403.924204</ele>
        <time>2021-11-14T22:41:52.583Z</time>
      </trkpt>
      <trkpt lat="47.466310" lon="7.856541">
        <ele>403.929980</ele>
        <time>2021-11-14T22:41:53.697Z</time>
      </trkpt>
      <trkpt lat="47.466334" lon="7.856525">
        <ele>403.931929</ele>
        <time>2021-11-14T22:41:54.076Z</time>
      </trkpt>
      <trkpt lat="47.466353" lon="7.856496">
        <ele>403.933951</ele>
        <time>2021-11-14T22:41:54.546Z</time>
      </trkpt>
      <trkpt lat="47.466361" lon="7.856459">
        <ele>403.935896</ele>
        <time>2021-11-14T22:41:54.857Z</time>
      </trkpt>
      <trkpt lat="47.466359" lon="7.856420">
        <ele>403.937853</ele>
        <time>2021-11-14T22:41:55.164Z</time>
      </trkpt>
      <trkpt lat="47.466324" lon="7.856362">
        <ele>403.941745</ele>
        <time>2021-11-14T22:41:56.138Z</time>
      </trkpt>
      <trkpt lat="47.466298" lon="7.856354">
        <ele>403.943712</ele>
        <time>2021-11-14T22:41:56.492Z</time>
      </trkpt>
      <trkpt lat="47.466271" lon="7.856363">
        <ele>403.945761</ele>
        <time>2021-11-14T22:41:56.900Z</time>
      </trkpt>
      <trkpt lat="47.466237" lon="7.856421">
        <ele>403.949604</ele>
        <time>2021-11-14T22:41:57.644Z</time>
      </trkpt>
      <trkpt lat="47.466235" lon="7.856461">
        <ele>403.951612</ele>
        <time>2021-11-14T22:41:57.996Z</time>
      </trkpt>
      <trkpt lat="47.466156" lon="7.856481">
        <ele>403.957547</ele>
        <time>2021-11-14T22:41:59.193Z</time>
      </trkpt>
      <trkpt lat="47.465801" lon="7.856657">
        <ele>403.985272</ele>
        <time>2021-11-14T22:42:05.093Z</time>
      </trkpt>
      <trkpt lat="47.465748" lon="7.856649">
        <ele>403.989217</ele>
        <time>2021-11-14T22:42:05.936Z</time>
      </trkpt>
      <trkpt lat="47.465709" lon="7.856610">
        <ele>403.992703</ele>
        <time>2021-11-14T22:42:06.530Z</time>
      </trkpt>
      <trkpt lat="47.465583" lon="7.856194">
        <ele>404.015523</ele>
        <time>2021-11-14T22:42:11.900Z</time>
      </trkpt>
      <trkpt lat="47.465550" lon="7.856132">
        <ele>404.019473</ele>
        <time>2021-11-14T22:42:12.552Z</time>
      </trkpt>
      <trkpt lat="47.465527" lon="7.856111">
        <ele>404.021475</ele>
        <time>2021-11-14T22:42:13.204Z</time>
      </trkpt>
      <trkpt lat="47.465400" lon="7.856122">
        <ele>404.074700</ele>
        <time>2021-11-14T22:42:15.325Z</time>
      </trkpt>
      <trkpt lat="47.464855" lon="7.856521">
        <ele>404.479195</ele>
        <time>2021-11-14T22:42:26.442Z</time>
      </trkpt>
      <trkpt lat="47.464813" lon="7.856540">
        <ele>404.508409</ele>
        <time>2021-11-14T22:42:27.339Z</time>
      </trkpt>
      <trkpt lat="47.464805" lon="7.856519">
        <ele>404.519249</ele>
        <time>2021-11-14T22:42:27.615Z</time>
      </trkpt>
      <trkpt lat="47.464741" lon="7.856458">
        <ele>404.569893</ele>
        <time>2021-11-14T22:42:28.830Z</time>
      </trkpt>
      <trkpt lat="47.464713" lon="7.856451">
        <ele>404.588782</ele>
        <time>2021-11-14T22:42:29.276Z</time>
      </trkpt>
      <trkpt lat="47.464688" lon="7.856453">
        <ele>404.605436</ele>
        <time>2021-11-14T22:42:29.697Z</time>
      </trkpt>
      <trkpt lat="47.464650" lon="7.856478">
        <ele>404.633100</ele>
        <time>2021-11-14T22:42:30.432Z</time>
      </trkpt>
      <trkpt lat="47.464638" lon="7.856496">
        <ele>404.644468</ele>
        <time>2021-11-14T22:42:30.819Z</time>
      </trkpt>
      <trkpt lat="47.464622" lon="7.856523">
        <ele>404.660614</ele>
        <time>2021-11-14T22:42:31.308Z</time>
      </trkpt>
      <trkpt lat="47.464610" lon="7.856554">
        <ele>404.676678</ele>
        <time>2021-11-14T22:42:31.652Z</time>
      </trkpt>
      <trkpt lat="47.464600" lon="7.856587">
        <ele>404.692940</ele>
        <time>2021-11-14T22:42:32.082Z</time>
      </trkpt>
      <trkpt lat="47.464530" lon="7.856598">
        <ele>404.739765</ele>
        <time>2021-11-14T22:42:33.473Z</time>
      </trkpt>
      <trkpt lat="47.463900" lon="7.856772">
        <ele>405.166070</ele>
        <time>2021-11-14T22:42:44.403Z</time>
      </trkpt>
      <trkpt lat="47.463826" lon="7.856840">
        <ele>405.224270</ele>
        <time>2021-11-14T22:42:45.925Z</time>
      </trkpt>
      <trkpt lat="47.463762" lon="7.856925">
        <ele>405.288045</ele>
        <time>2021-11-14T22:42:47.455Z</time>
      </trkpt>
      <trkpt lat="47.463161" lon="7.858061">
        <ele>406.011122</ele>
        <time>2021-11-14T22:43:03.984Z</time>
      </trkpt>
      <trkpt lat="47.463081" lon="7.858188">
        <ele>406.098135</ele>
        <time>2021-11-14T22:43:06.282Z</time>
      </trkpt>
      <trkpt lat="47.462979" lon="7.858360">
        <ele>406.212824</ele>
        <time>2021-11-14T22:43:09.023Z</time>
      </trkpt>
      <trkpt lat="47.462764" lon="7.858828">
        <ele>406.496458</ele>
        <time>2021-11-14T22:43:16.171Z</time>
      </trkpt>
      <trkpt lat="47.462720" lon="7.858959">
        <ele>406.588467</ele>
        <time>2021-11-14T22:43:18.146Z</time>
      </trkpt>
      <trkpt lat="47.462691" lon="7.859060">
        <ele>406.715160</ele>
        <time>2021-11-14T22:43:19.624Z</time>
      </trkpt>
      <trkpt lat="47.462623" lon="7.859309">
        <ele>407.025218</ele>
        <time>2021-11-14T22:43:23.160Z</time>
      </trkpt>
      <trkpt lat="47.462535" lon="7.859721">
        <ele>407.524078</ele>
        <time>2021-11-14T22:43:28.939Z</time>
      </trkpt>
      <trkpt lat="47.462471" lon="7.860097">
        <ele>407.971747</ele>
        <time>2021-11-14T22:43:34.605Z</time>
      </trkpt>
      <trkpt lat="47.462442" lon="7.860255">
        <ele>408.160774</ele>
        <time>2021-11-14T22:43:36.855Z</time>
      </trkpt>
      <trkpt lat="47.462327" lon="7.860669">
        <ele>408.677543</ele>
        <time>2021-11-14T22:43:43.599Z</time>
      </trkpt>
      <trkpt lat="47.462285" lon="7.860769">
        <ele>408.813467</ele>
        <time>2021-11-14T22:43:45.497Z</time>
      </trkpt>
      <trkpt lat="47.462231" lon="7.860873">
        <ele>408.964870</ele>
        <time>2021-11-14T22:43:47.859Z</time>
      </trkpt>
      <trkpt lat="47.461855" lon="7.861499">
        <ele>409.981204</ele>
        <time>2021-11-14T22:44:00.967Z</time>
      </trkpt>
      <trkpt lat="47.461541" lon="7.862217">
        <ele>411.129069</ele>
        <time>2021-11-14T22:44:14.647Z</time>
      </trkpt>
      <trkpt lat="47.461527" lon="7.862242">
        <ele>411.172644</ele>
        <time>2021-11-14T22:44:15.117Z</time>
      </trkpt>
      <trkpt lat="47.461353" lon="7.862539">
        <ele>411.700181</ele>
        <time>2021-11-14T22:44:21.431Z</time>
      </trkpt>
      <trkpt lat="47.461281" lon="7.862627">
        <ele>411.885627</ele>
        <time>2021-11-14T22:44:23.565Z</time>
      </trkpt>
      <trkpt lat="47.461098" lon="7.862848">
        <ele>412.354695</ele>
        <time>2021-11-14T22:44:28.942Z</time>
      </trkpt>
      <trkpt lat="47.460786" lon="7.863164">
        <ele>413.105477</ele>
        <time>2021-11-14T22:44:37.331Z</time>
      </trkpt>
      <trkpt lat="47.460527" lon="7.863440">
        <ele>413.531679</ele>
        <time>2021-11-14T22:44:44.096Z</time>
      </trkpt>
      <trkpt lat="47.460398" lon="7.863603">
        <ele>413.739276</ele>
        <time>2021-11-14T22:44:47.533Z</time>
      </trkpt>
      <trkpt lat="47.460271" lon="7.863810">
        <ele>413.970515</ele>
        <time>2021-11-14T22:44:51.038Z</time>
      </trkpt>
      <trkpt lat="47.460115" lon="7.864146">
        <ele>414.307704</ele>
        <time>2021-11-14T22:44:55.812Z</time>
      </trkpt>
      <trkpt lat="47.460001" lon="7.864512">
        <ele>414.641069</ele>
        <time>2021-11-14T22:45:00.586Z</time>
      </trkpt>
      <trkpt lat="47.459616" lon="7.865526">
        <ele>415.642351</ele>
        <time>2021-11-14T22:45:16.819Z</time>
      </trkpt>
      <trkpt lat="47.459563" lon="7.865651">
        <ele>415.787863</ele>
        <time>2021-11-14T22:45:18.687Z</time>
      </trkpt>
      <trkpt lat="47.459497" lon="7.865844">
        <ele>416.001162</ele>
        <time>2021-11-14T22:45:21.626Z</time>
      </trkpt>
      <trkpt lat="47.459383" lon="7.866214">
        <ele>416.402163</ele>
        <time>2021-11-14T22:45:27.229Z</time>
      </trkpt>
      <trkpt lat="47.459231" lon="7.866811">
        <ele>417.031294</ele>
        <time>2021-11-14T22:45:35.915Z</time>
      </trkpt>
      <trkpt lat="47.459152" lon="7.867074">
        <ele>417.315114</ele>
        <time>2021-11-14T22:45:39.968Z</time>
      </trkpt>
      <trkpt lat="47.459058" lon="7.867339">
        <ele>417.610246</ele>
        <time>2021-11-14T22:45:44.043Z</time>
      </trkpt>
      <trkpt lat="47.458844" lon="7.867795">
        <ele>418.193945</ele>
        <time>2021-11-14T22:45:51.993Z</time>
      </trkpt>
      <trkpt lat="47.458680" lon="7.868173">
        <ele>418.755853</ele>
        <time>2021-11-14T22:45:59.249Z</time>
      </trkpt>
      <trkpt lat="47.458252" lon="7.869378">
        <ele>420.458801</ele>
        <time>2021-11-14T22:46:19.640Z</time>
      </trkpt>
      <trkpt lat="47.458055" lon="7.870048">
        <ele>421.384404</ele>
        <time>2021-11-14T22:46:30.408Z</time>
      </trkpt>
      <trkpt lat="47.457897" lon="7.870571">
        <ele>422.476372</ele>
        <time>2021-11-14T22:46:39.184Z</time>
      </trkpt>
      <trkpt lat="47.457834" lon="7.870782">
        <ele>422.916067</ele>
        <time>2021-11-14T22:46:43.163Z</time>
      </trkpt>
      <trkpt lat="47.457598" lon="7.871461">
        <ele>424.371431</ele>
        <time>2021-11-14T22:46:55.301Z</time>
      </trkpt>
      <trkpt lat="47.457107" lon="7.872555">
        <ele>426.903160</ele>
        <time>2021-11-14T22:47:22.226Z</time>
      </trkpt>
      <trkpt lat="47.456956" lon="7.873025">
        <ele>427.957857</ele>
        <time>2021-11-14T22:47:33.149Z</time>
      </trkpt>
      <trkpt lat="47.456839" lon="7.873690">
        <ele>429.350607</ele>
        <time>2021-11-14T22:47:46.130Z</time>
      </trkpt>
      <trkpt lat="47.456816" lon="7.873911">
        <ele>429.803820</ele>
        <time>2021-11-14T22:47:50.546Z</time>
      </trkpt>
      <trkpt lat="47.456788" lon="7.874217">
        <ele>430.429696</ele>
        <time>2021-11-14T22:47:55.778Z</time>
      </trkpt>
      <trkpt lat="47.456714" lon="7.874531">
        <ele>431.103685</ele>
        <time>2021-11-14T22:48:01.340Z</time>
      </trkpt>
      <trkpt lat="47.456658" lon="7.874665">
        <ele>431.422977</ele>
        <time>2021-11-14T22:48:03.193Z</time>
      </trkpt>
      <trkpt lat="47.456403" lon="7.875046">
        <ele>431.998456</ele>
        <time>2021-11-14T22:48:11.049Z</time>
      </trkpt>
      <trkpt lat="47.455780" lon="7.875652">
        <ele>432.592005</ele>
        <time>2021-11-14T22:48:26.543Z</time>
      </trkpt>
      <trkpt lat="47.455446" lon="7.875966">
        <ele>432.907036</ele>
        <time>2021-11-14T22:48:32.234Z</time>
      </trkpt>
      <trkpt lat="47.455123" lon="7.876253">
        <ele>433.206977</ele>
        <time>2021-11-14T22:48:37.209Z</time>
      </trkpt>
      <trkpt lat="47.454502" lon="7.876895">
        <ele>433.569470</ele>
        <time>2021-11-14T22:48:48.318Z</time>
      </trkpt>
      <trkpt lat="47.454362" lon="7.877045">
        <ele>433.648446</ele>
        <time>2021-11-14T22:48:51.246Z</time>
      </trkpt>
      <trkpt lat="47.453945" lon="7.877554">
        <ele>433.895448</ele>
        <time>2021-11-14T22:49:01.386Z</time>
      </trkpt>
      <trkpt lat="47.453517" lon="7.878069">
        <ele>434.195838</ele>
        <time>2021-11-14T22:49:11.521Z</time>
      </trkpt>
      <trkpt lat="47.453302" lon="7.878355">
        <ele>434.407283</ele>
        <time>2021-11-14T22:49:16.853Z</time>
      </trkpt>
      <trkpt lat="47.453057" lon="7.878652">
        <ele>434.638919</ele>
        <time>2021-11-14T22:49:22.453Z</time>
      </trkpt>
      <trkpt lat="47.452813" lon="7.878981">
        <ele>434.880354</ele>
        <time>2021-11-14T22:49:28.135Z</time>
      </trkpt>
      <trkpt lat="47.452655" lon="7.879223">
        <ele>435.046677</ele>
        <time>2021-11-14T22:49:31.995Z</time>
      </trkpt>
      <trkpt lat="47.452247" lon="7.879980">
        <ele>435.582107</ele>
        <time>2021-11-14T22:49:43.549Z</time>
      </trkpt>
      <trkpt lat="47.451953" lon="7.880518">
        <ele>436.059857</ele>
        <time>2021-11-14T22:49:51.889Z</time>
      </trkpt>
      <trkpt lat="47.451581" lon="7.881111">
        <ele>436.618529</ele>
        <time>2021-11-14T22:50:02.454Z</time>
      </trkpt>
      <trkpt lat="47.451351" lon="7.881477">
        <ele>436.963622</ele>
        <time>2021-11-14T22:50:09.005Z</time>
      </trkpt>
      <trkpt lat="47.451309" lon="7.881545">
        <ele>437.027231</ele>
        <time>2021-11-14T22:50:10.251Z</time>
      </trkpt>
      <trkpt lat="47.451241" lon="7.881654">
        <ele>437.129660</ele>
        <time>2021-11-14T22:50:12.209Z</time>
      </trkpt>
      <trkpt lat="47.451051" lon="7.881948">
        <ele>437.458842</ele>
        <time>2021-11-14T22:50:17.793Z</time>
      </trkpt>
      <trkpt lat="47.450772" lon="7.882435">
        <ele>438.011042</ele>
        <time>2021-11-14T22:50:26.573Z</time>
      </trkpt>
      <trkpt lat="47.450733" lon="7.882508">
        <ele>438.091529</ele>
        <time>2021-11-14T22:50:27.838Z</time>
      </trkpt>
      <trkpt lat="47.450650" lon="7.882664">
        <ele>438.263258</ele>
        <time>2021-11-14T22:50:30.560Z</time>
      </trkpt>
      <trkpt lat="47.450548" lon="7.882846">
        <ele>438.467762</ele>
        <time>2021-11-14T22:50:33.788Z</time>
      </trkpt>
      <trkpt lat="47.450472" lon="7.882973">
        <ele>438.614481</ele>
        <time>2021-11-14T22:50:36.014Z</time>
      </trkpt>
      <trkpt lat="47.450274" lon="7.883264">
        <ele>438.971625</ele>
        <time>2021-11-14T22:50:41.619Z</time>
      </trkpt>
      <trkpt lat="47.449712" lon="7.884119">
        <ele>440.004279</ele>
        <time>2021-11-14T22:50:57.340Z</time>
      </trkpt>
      <trkpt lat="47.449068" lon="7.885121">
        <ele>441.202931</ele>
        <time>2021-11-14T22:51:15.667Z</time>
      </trkpt>
      <trkpt lat="47.449022" lon="7.885187">
        <ele>441.285115</ele>
        <time>2021-11-14T22:51:16.998Z</time>
      </trkpt>
      <trkpt lat="47.448867" lon="7.885429">
        <ele>441.574137</ele>
        <time>2021-11-14T22:51:21.595Z</time>
      </trkpt>
      <trkpt lat="47.448801" lon="7.885554">
        <ele>441.711651</ele>
        <time>2021-11-14T22:51:23.872Z</time>
      </trkpt>
      <trkpt lat="47.448759" lon="7.885611">
        <ele>441.784747</ele>
        <time>2021-11-14T22:51:24.827Z</time>
      </trkpt>
      <trkpt lat="47.448727" lon="7.885648">
        <ele>441.839978</ele>
        <time>2021-11-14T22:51:25.595Z</time>
      </trkpt>
      <trkpt lat="47.448623" lon="7.885730">
        <ele>442.038243</ele>
        <time>2021-11-14T22:51:28.114Z</time>
      </trkpt>
      <trkpt lat="47.448497" lon="7.885784">
        <ele>442.258923</ele>
        <time>2021-11-14T22:51:31.133Z</time>
      </trkpt>
      <trkpt lat="47.448256" lon="7.885830">
        <ele>442.667697</ele>
        <time>2021-11-14T22:51:36.306Z</time>
      </trkpt>
      <trkpt lat="47.447948" lon="7.885889">
        <ele>443.190145</ele>
        <time>2021-11-14T22:51:42.723Z</time>
      </trkpt>
      <trkpt lat="47.447927" lon="7.885893">
        <ele>443.225764</ele>
        <time>2021-11-14T22:51:43.497Z</time>
      </trkpt>
      <trkpt lat="47.447843" lon="7.885915">
        <ele>443.369268</ele>
        <time>2021-11-14T22:51:45.657Z</time>
      </trkpt>
      <trkpt lat="47.447578" lon="7.886047">
        <ele>443.839664</ele>
        <time>2021-11-14T22:51:51.315Z</time>
      </trkpt>
      <trkpt lat="47.447271" lon="7.886367">
        <ele>444.471511</ele>
        <time>2021-11-14T22:51:59.637Z</time>
      </trkpt>
      <trkpt lat="47.446926" lon="7.886788">
        <ele>445.258378</ele>
        <time>2021-11-14T22:52:09.673Z</time>
      </trkpt>
      <trkpt lat="47.446791" lon="7.886928">
        <ele>445.561442</ele>
        <time>2021-11-14T22:52:13.152Z</time>
      </trkpt>
      <trkpt lat="47.446303" lon="7.887408">
        <ele>446.638684</ele>
        <time>2021-11-14T22:52:26.319Z</time>
      </trkpt>
      <trkpt lat="47.446228" lon="7.887482">
        <ele>446.804402</ele>
        <time>2021-11-14T22:52:28.327Z</time>
      </trkpt>
      <trkpt lat="47.446159" lon="7.887548">
        <ele>446.955443</ele>
        <time>2021-11-14T22:52:30.146Z</time>
      </trkpt>
      <trkpt lat="47.445865" lon="7.887829">
        <ele>447.598862</ele>
        <time>2021-11-14T22:52:37.930Z</time>
      </trkpt>
      <trkpt lat="47.445713" lon="7.887975">
        <ele>447.932003</ele>
        <time>2021-11-14T22:52:41.830Z</time>
      </trkpt>
      <trkpt lat="47.445254" lon="7.888414">
        <ele>449.142561</ele>
        <time>2021-11-14T22:52:53.668Z</time>
      </trkpt>
      <trkpt lat="47.445147" lon="7.888511">
        <ele>449.434238</ele>
        <time>2021-11-14T22:52:56.384Z</time>
      </trkpt>
      <trkpt lat="47.444943" lon="7.888709">
        <ele>450.001336</ele>
        <time>2021-11-14T22:53:02.462Z</time>
      </trkpt>
      <trkpt lat="47.444488" lon="7.889150">
        <ele>451.265658</ele>
        <time>2021-11-14T22:53:15.109Z</time>
      </trkpt>
      <trkpt lat="47.444393" lon="7.889238">
        <ele>451.526180</ele>
        <time>2021-11-14T22:53:18.256Z</time>
      </trkpt>
      <trkpt lat="47.444034" lon="7.889556">
        <ele>452.726364</ele>
        <time>2021-11-14T22:53:28.839Z</time>
      </trkpt>
      <trkpt lat="47.443891" lon="7.889667">
        <ele>453.634100</ele>
        <time>2021-11-14T22:53:33.195Z</time>
      </trkpt>
      <trkpt lat="47.443758" lon="7.889758">
        <ele>454.457767</ele>
        <time>2021-11-14T22:53:37.678Z</time>
      </trkpt>
      <trkpt lat="47.443195" lon="7.890087">
        <ele>457.860220</ele>
        <time>2021-11-14T22:53:56.855Z</time>
      </trkpt>
      <trkpt lat="47.442695" lon="7.890269">
        <ele>460.754327</ele>
        <time>2021-11-14T22:54:18.291Z</time>
      </trkpt>
      <trkpt lat="47.441565" lon="7.890682">
        <ele>471.246708</ele>
        <time>2021-11-14T22:55:18.769Z</time>
      </trkpt>
      <trkpt lat="47.441263" lon="7.890792">
        <ele>474.418833</ele>
        <time>2021-11-14T22:55:37.296Z</time>
      </trkpt>
      <trkpt lat="47.440728" lon="7.890993">
        <ele>480.048598</ele>
        <time>2021-11-14T22:56:10.093Z</time>
      </trkpt>
      <trkpt lat="47.440254" lon="7.891376">
        <ele>486.192775</ele>
        <time>2021-11-14T22:56:43.888Z</time>
      </trkpt>
      <trkpt lat="47.439256" lon="7.892823">
        <ele>502.036143</ele>
        <time>2021-11-14T22:58:11.478Z</time>
      </trkpt>
      <trkpt lat="47.439228" lon="7.892871">
        <ele>502.330354</ele>
        <time>2021-11-14T22:58:14.368Z</time>
      </trkpt>
      <trkpt lat="47.439042" lon="7.893234">
        <ele>504.444159</ele>
        <time>2021-11-14T22:58:30.031Z</time>
      </trkpt>
      <trkpt lat="47.438836" lon="7.893774">
        <ele>507.321820</ele>
        <time>2021-11-14T22:58:50.524Z</time>
      </trkpt>
      <trkpt lat="47.438723" lon="7.894209">
        <ele>509.484728</ele>
        <time>2021-11-14T22:59:03.994Z</time>
      </trkpt>
      <trkpt lat="47.438683" lon="7.894397">
        <ele>510.399515</ele>
        <time>2021-11-14T22:59:09.188Z</time>
      </trkpt>
      <trkpt lat="47.438392" lon="7.895853">
        <ele>513.027083</ele>
        <time>2021-11-14T22:59:36.548Z</time>
      </trkpt>
      <trkpt lat="47.438129" lon="7.896764">
        <ele>511.858087</ele>
        <time>2021-11-14T22:59:43.533Z</time>
      </trkpt>
      <trkpt lat="47.438061" lon="7.896935">
        <ele>511.623979</ele>
        <time>2021-11-14T22:59:44.863Z</time>
      </trkpt>
      <trkpt lat="47.438020" lon="7.897061">
        <ele>511.458960</ele>
        <time>2021-11-14T22:59:45.691Z</time>
      </trkpt>
      <trkpt lat="47.437727" lon="7.897775">
        <ele>509.764393</ele>
        <time>2021-11-14T22:59:51.125Z</time>
      </trkpt>
      <trkpt lat="47.437513" lon="7.898238">
        <ele>507.595285</ele>
        <time>2021-11-14T22:59:54.635Z</time>
      </trkpt>
      <trkpt lat="47.437451" lon="7.898374">
        <ele>506.960898</ele>
        <time>2021-11-14T22:59:55.588Z</time>
      </trkpt>
      <trkpt lat="47.436614" lon="7.900163">
        <ele>500.361532</ele>
        <time>2021-11-14T23:00:09.065Z</time>
      </trkpt>
      <trkpt lat="47.436392" lon="7.900644">
        <ele>500.203139</ele>
        <time>2021-11-14T23:00:13.630Z</time>
      </trkpt>
      <trkpt lat="47.436162" lon="7.901123">
        <ele>500.043355</ele>
        <time>2021-11-14T23:00:19.729Z</time>
      </trkpt>
      <trkpt lat="47.435966" lon="7.901542">
        <ele>499.904783</ele>
        <time>2021-11-14T23:00:27.212Z</time>
      </trkpt>
      <trkpt lat="47.435289" lon="7.902539">
        <ele>502.890890</ele>
        <time>2021-11-14T23:00:57.903Z</time>
      </trkpt>
      <trkpt lat="47.434454" lon="7.903404">
        <ele>507.900432</ele>
        <time>2021-11-14T23:01:38.124Z</time>
      </trkpt>
      <trkpt lat="47.433904" lon="7.903847">
        <ele>510.477510</ele>
        <time>2021-11-14T23:01:56.759Z</time>
      </trkpt>
      <trkpt lat="47.433528" lon="7.904076">
        <ele>512.052903</ele>
        <time>2021-11-14T23:02:08.050Z</time>
      </trkpt>
      <trkpt lat="47.433057" lon="7.904364">
        <ele>514.027478</ele>
        <time>2021-11-14T23:02:20.675Z</time>
      </trkpt>
      <trkpt lat="47.432000" lon="7.904989">
        <ele>519.786688</ele>
        <time>2021-11-14T23:03:00.227Z</time>
      </trkpt>
      <trkpt lat="47.431501" lon="7.905134">
        <ele>522.687001</ele>
        <time>2021-11-14T23:03:19.262Z</time>
      </trkpt>
      <trkpt lat="47.431347" lon="7.905140">
        <ele>523.565585</ele>
        <time>2021-11-14T23:03:27.301Z</time>
      </trkpt>
      <trkpt lat="47.430772" lon="7.905115">
        <ele>526.799194</ele>
        <time>2021-11-14T23:03:50.760Z</time>
      </trkpt>
      <trkpt lat="47.429366" lon="7.905049">
        <ele>534.446876</ele>
        <time>2021-11-14T23:04:46.626Z</time>
      </trkpt>
      <trkpt lat="47.427817" lon="7.905261">
        <ele>537.385634</ele>
        <time>2021-11-14T23:05:20.602Z</time>
      </trkpt>
      <trkpt lat="47.426850" lon="7.905086">
        <ele>536.955863</ele>
        <time>2021-11-14T23:05:32.563Z</time>
      </trkpt>
      <trkpt lat="47.426720" lon="7.905004">
        <ele>536.672504</ele>
        <time>2021-11-14T23:05:34.244Z</time>
      </trkpt>
      <trkpt lat="47.426613" lon="7.904841">
        <ele>536.364462</ele>
        <time>2021-11-14T23:05:36.673Z</time>
      </trkpt>
      <trkpt lat="47.426552" lon="7.904727">
        <ele>536.167327</ele>
        <time>2021-11-14T23:05:37.590Z</time>
      </trkpt>
      <trkpt lat="47.426425" lon="7.904463">
        <ele>535.727970</ele>
        <time>2021-11-14T23:05:40.077Z</time>
      </trkpt>
      <trkpt lat="47.426367" lon="7.904349">
        <ele>535.534509</ele>
        <time>2021-11-14T23:05:41.098Z</time>
      </trkpt>
      <trkpt lat="47.426138" lon="7.904113">
        <ele>534.974844</ele>
        <time>2021-11-14T23:05:44.005Z</time>
      </trkpt>
      <trkpt lat="47.425619" lon="7.903851">
        <ele>533.504092</ele>
        <time>2021-11-14T23:05:49.385Z</time>
      </trkpt>
      <trkpt lat="47.425434" lon="7.903707">
        <ele>532.779218</ele>
        <time>2021-11-14T23:05:51.708Z</time>
      </trkpt>
      <trkpt lat="47.425311" lon="7.903615">
        <ele>532.301300</ele>
        <time>2021-11-14T23:05:52.943Z</time>
      </trkpt>
      <trkpt lat="47.423589" lon="7.902766">
        <ele>527.014970</ele>
        <time>2021-11-14T23:06:11.229Z</time>
      </trkpt>
      <trkpt lat="47.423452" lon="7.902645">
        <ele>526.721946</ele>
        <time>2021-11-14T23:06:12.845Z</time>
      </trkpt>
      <trkpt lat="47.423374" lon="7.902581">
        <ele>526.558149</ele>
        <time>2021-11-14T23:06:13.827Z</time>
      </trkpt>
      <trkpt lat="47.423315" lon="7.902540">
        <ele>526.438447</ele>
        <time>2021-11-14T23:06:14.669Z</time>
      </trkpt>
      <trkpt lat="47.423238" lon="7.902495">
        <ele>526.286423</ele>
        <time>2021-11-14T23:06:15.596Z</time>
      </trkpt>
      <trkpt lat="47.423044" lon="7.902393">
        <ele>525.908367</ele>
        <time>2021-11-14T23:06:17.825Z</time>
      </trkpt>
      <trkpt lat="47.422906" lon="7.902320">
        <ele>525.639256</ele>
        <time>2021-11-14T23:06:19.761Z</time>
      </trkpt>
      <trkpt lat="47.421602" lon="7.901655">
        <ele>525.263937</ele>
        <time>2021-11-14T23:06:41.132Z</time>
      </trkpt>
      <trkpt lat="47.421521" lon="7.901542">
        <ele>525.313025</ele>
        <time>2021-11-14T23:06:43.310Z</time>
      </trkpt>
      <trkpt lat="47.421502" lon="7.901465">
        <ele>525.337465</ele>
        <time>2021-11-14T23:06:46.041Z</time>
      </trkpt>
      <trkpt lat="47.421410" lon="7.901506">
        <ele>525.379813</ele>
        <time>2021-11-14T23:06:47.141Z</time>
      </trkpt>
      <trkpt lat="47.421321" lon="7.901553">
        <ele>525.421465</ele>
        <time>2021-11-14T23:06:48.201Z</time>
      </trkpt>
      <trkpt lat="47.421222" lon="7.901610">
        <ele>525.468289</ele>
        <time>2021-11-14T23:06:49.866Z</time>
      </trkpt>
      <trkpt lat="47.421180" lon="7.901635">
        <ele>525.488243</ele>
        <time>2021-11-14T23:06:52.325Z</time>
      </trkpt>
      <trkpt lat="47.420695" lon="7.901920">
        <ele>525.877520</ele>
        <time>2021-11-14T23:06:59.785Z</time>
      </trkpt>
      <trkpt lat="47.420637" lon="7.901954">
        <ele>525.960278</ele>
        <time>2021-11-14T23:07:00.486Z</time>
      </trkpt>
      <trkpt lat="47.420085" lon="7.902235">
        <ele>526.734633</ele>
        <time>2021-11-14T23:07:12.860Z</time>
      </trkpt>
      <trkpt lat="47.419578" lon="7.902441">
        <ele>527.432039</ele>
        <time>2021-11-14T23:07:22.200Z</time>
      </trkpt>
      <trkpt lat="47.419204" lon="7.902583">
        <ele>527.944199</ele>
        <time>2021-11-14T23:07:30.863Z</time>
      </trkpt>
      <trkpt lat="47.419043" lon="7.902685">
        <ele>528.464381</ele>
        <time>2021-11-14T23:07:35.915Z</time>
      </trkpt>
      <trkpt lat="47.418932" lon="7.902787">
        <ele>528.966258</ele>
        <time>2021-11-14T23:07:38.993Z</time>
      </trkpt>
      <trkpt lat="47.418668" lon="7.903098">
        <ele>530.262572</ele>
        <time>2021-11-14T23:07:48.496Z</time>
      </trkpt>
      <trkpt lat="47.418532" lon="7.903258">
        <ele>530.930027</ele>
        <time>2021-11-14T23:07:53.242Z</time>
      </trkpt>
      <trkpt lat="47.418268" lon="7.903613">
        <ele>532.300518</ele>
        <time>2021-11-14T23:08:03.776Z</time>
      </trkpt>
      <trkpt lat="47.418232" lon="7.903669">
        <ele>532.501207</ele>
        <time>2021-11-14T23:08:05.761Z</time>
      </trkpt>
      <trkpt lat="47.418168" lon="7.903812">
        <ele>532.946655</ele>
        <time>2021-11-14T23:08:09.583Z</time>
      </trkpt>
      <trkpt lat="47.417991" lon="7.904019">
        <ele>533.813337</ele>
        <time>2021-11-14T23:08:17.125Z</time>
      </trkpt>
      <trkpt lat="47.417618" lon="7.904179">
        <ele>535.564288</ele>
        <time>2021-11-14T23:08:31.074Z</time>
      </trkpt>
      <trkpt lat="47.417531" lon="7.904238">
        <ele>536.187157</ele>
        <time>2021-11-14T23:08:34.758Z</time>
      </trkpt>
      <trkpt lat="47.417427" lon="7.904326">
        <ele>536.966960</ele>
        <time>2021-11-14T23:08:38.513Z</time>
      </trkpt>
      <trkpt lat="47.417265" lon="7.904453">
        <ele>538.160229</ele>
        <time>2021-11-14T23:08:46.073Z</time>
      </trkpt>
      <trkpt lat="47.416980" lon="7.904605">
        <ele>540.131800</ele>
        <time>2021-11-14T23:08:57.119Z</time>
      </trkpt>
      <trkpt lat="47.416822" lon="7.904701">
        <ele>541.243411</ele>
        <time>2021-11-14T23:09:04.081Z</time>
      </trkpt>
      <trkpt lat="47.416754" lon="7.904710">
        <ele>541.687659</ele>
        <time>2021-11-14T23:09:06.471Z</time>
      </trkpt>
      <trkpt lat="47.416543" lon="7.904651">
        <ele>543.085003</ele>
        <time>2021-11-14T23:09:15.424Z</time>
      </trkpt>
      <trkpt lat="47.416158" lon="7.904395">
        <ele>545.832113</ele>
        <time>2021-11-14T23:09:33.343Z</time>
      </trkpt>
      <trkpt lat="47.415794" lon="7.903917">
        <ele>549.228220</ele>
        <time>2021-11-14T23:09:59.257Z</time>
      </trkpt>
      <trkpt lat="47.415429" lon="7.903578">
        <ele>552.303182</ele>
        <time>2021-11-14T23:10:21.501Z</time>
      </trkpt>
      <trkpt lat="47.414946" lon="7.903337">
        <ele>555.939423</ele>
        <time>2021-11-14T23:10:43.674Z</time>
      </trkpt>
      <trkpt lat="47.414457" lon="7.903126">
        <ele>559.502060</ele>
        <time>2021-11-14T23:11:02.384Z</time>
      </trkpt>
      <trkpt lat="47.414360" lon="7.903055">
        <ele>559.770752</ele>
        <time>2021-11-14T23:11:05.081Z</time>
      </trkpt>
      <trkpt lat="47.413979" lon="7.902876">
        <ele>560.763122</ele>
        <time>2021-11-14T23:11:16.720Z</time>
      </trkpt>
      <trkpt lat="47.413779" lon="7.902818">
        <ele>561.269035</ele>
        <time>2021-11-14T23:11:22.639Z</time>
      </trkpt>
      <trkpt lat="47.413454" lon="7.902818">
        <ele>562.075757</ele>
        <time>2021-11-14T23:11:30.489Z</time>
      </trkpt>
      <trkpt lat="47.413324" lon="7.902797">
        <ele>562.400368</ele>
        <time>2021-11-14T23:11:33.552Z</time>
      </trkpt>
      <trkpt lat="47.413185" lon="7.902732">
        <ele>562.762260</ele>
        <time>2021-11-14T23:11:36.526Z</time>
      </trkpt>
      <trkpt lat="47.412722" lon="7.902491">
        <ele>563.976690</ele>
        <time>2021-11-14T23:11:44.250Z</time>
      </trkpt>
      <trkpt lat="47.412218" lon="7.902425">
        <ele>565.134662</ele>
        <time>2021-11-14T23:11:52.669Z</time>
      </trkpt>
      <trkpt lat="47.412053" lon="7.902324">
        <ele>565.543396</ele>
        <time>2021-11-14T23:11:56.680Z</time>
      </trkpt>
      <trkpt lat="47.411995" lon="7.902289">
        <ele>565.686775</ele>
        <time>2021-11-14T23:11:58.501Z</time>
      </trkpt>
      <trkpt lat="47.411203" lon="7.901793">
        <ele>567.655405</ele>
        <time>2021-11-14T23:12:21.790Z</time>
      </trkpt>
      <trkpt lat="47.410416" lon="7.901443">
        <ele>570.267616</ele>
        <time>2021-11-14T23:12:46.357Z</time>
      </trkpt>
      <trkpt lat="47.410305" lon="7.901395">
        <ele>570.662111</ele>
        <time>2021-11-14T23:12:49.830Z</time>
      </trkpt>
      <trkpt lat="47.410000" lon="7.901340">
        <ele>571.710170</ele>
        <time>2021-11-14T23:12:58.021Z</time>
      </trkpt>
      <trkpt lat="47.408980" lon="7.901427">
        <ele>575.489975</ele>
        <time>2021-11-14T23:13:26.599Z</time>
      </trkpt>
      <trkpt lat="47.408633" lon="7.901528">
        <ele>577.046791</ele>
        <time>2021-11-14T23:13:37.603Z</time>
      </trkpt>
      <trkpt lat="47.408249" lon="7.901503">
        <ele>578.738765</ele>
        <time>2021-11-14T23:13:49.697Z</time>
      </trkpt>
      <trkpt lat="47.407950" lon="7.901419">
        <ele>580.078515</ele>
        <time>2021-11-14T23:13:59.669Z</time>
      </trkpt>
      <trkpt lat="47.407700" lon="7.901346">
        <ele>581.200275</ele>
        <time>2021-11-14T23:14:08.232Z</time>
      </trkpt>
      <trkpt lat="47.407183" lon="7.901226">
        <ele>584.487989</ele>
        <time>2021-11-14T23:14:26.716Z</time>
      </trkpt>
      <trkpt lat="47.406056" lon="7.900591">
        <ele>593.512668</ele>
        <time>2021-11-14T23:15:24.025Z</time>
      </trkpt>
      <trkpt lat="47.405726" lon="7.900247">
        <ele>596.603415</ele>
        <time>2021-11-14T23:15:43.601Z</time>
      </trkpt>
      <trkpt lat="47.405648" lon="7.900181">
        <ele>597.323341</ele>
        <time>2021-11-14T23:15:48.552Z</time>
      </trkpt>
      <trkpt lat="47.405377" lon="7.900042">
        <ele>599.620958</ele>
        <time>2021-11-14T23:16:02.043Z</time>
      </trkpt>
      <trkpt lat="47.404734" lon="7.899896">
        <ele>604.831468</ele>
        <time>2021-11-14T23:16:33.614Z</time>
      </trkpt>
      <trkpt lat="47.404452" lon="7.899711">
        <ele>607.302756</ele>
        <time>2021-11-14T23:16:48.395Z</time>
      </trkpt>
      <trkpt lat="47.403746" lon="7.898667">
        <ele>614.413913</ele>
        <time>2021-11-14T23:17:30.674Z</time>
      </trkpt>
      <trkpt lat="47.403389" lon="7.898027">
        <ele>618.161425</ele>
        <time>2021-11-14T23:17:51.826Z</time>
      </trkpt>
      <trkpt lat="47.403337" lon="7.897962">
        <ele>618.616165</ele>
        <time>2021-11-14T23:17:55.366Z</time>
      </trkpt>
      <trkpt lat="47.403251" lon="7.897904">
        <ele>619.247305</ele>
        <time>2021-11-14T23:17:59.238Z</time>
      </trkpt>
      <trkpt lat="47.402533" lon="7.897738">
        <ele>624.553738</ele>
        <time>2021-11-14T23:18:29.028Z</time>
      </trkpt>
      <trkpt lat="47.402452" lon="7.897680">
        <ele>625.282956</ele>
        <time>2021-11-14T23:18:32.273Z</time>
      </trkpt>
      <trkpt lat="47.401903" lon="7.897350">
        <ele>630.084617</ele>
        <time>2021-11-14T23:19:03.308Z</time>
      </trkpt>
      <trkpt lat="47.400945" lon="7.896926">
        <ele>638.188628</ele>
        <time>2021-11-14T23:19:50.466Z</time>
      </trkpt>
      <trkpt lat="47.400890" lon="7.896903">
        <ele>638.652309</ele>
        <time>2021-11-14T23:19:55.257Z</time>
      </trkpt>
      <trkpt lat="47.400751" lon="7.896863">
        <ele>639.801051</ele>
        <time>2021-11-14T23:20:01.579Z</time>
      </trkpt>
      <trkpt lat="47.399796" lon="7.896698">
        <ele>647.600690</ele>
        <time>2021-11-14T23:20:48.906Z</time>
      </trkpt>
      <trkpt lat="47.399633" lon="7.896675">
        <ele>648.928943</ele>
        <time>2021-11-14T23:20:55.198Z</time>
      </trkpt>
      <trkpt lat="47.399538" lon="7.896644">
        <ele>649.718146</ele>
        <time>2021-11-14T23:20:59.940Z</time>
      </trkpt>
      <trkpt lat="47.399246" lon="7.896363">
        <ele>652.065527</ele>
        <time>2021-11-14T23:21:15.999Z</time>
      </trkpt>
      <trkpt lat="47.398784" lon="7.895173">
        <ele>657.043039</ele>
        <time>2021-11-14T23:21:50.025Z</time>
      </trkpt>
      <trkpt lat="47.397727" lon="7.893516">
        <ele>663.454663</ele>
        <time>2021-11-14T23:22:38.726Z</time>
      </trkpt>
      <trkpt lat="47.397426" lon="7.893177">
        <ele>664.655392</ele>
        <time>2021-11-14T23:22:48.160Z</time>
      </trkpt>
      <trkpt lat="47.396808" lon="7.892644">
        <ele>666.713037</ele>
        <time>2021-11-14T23:23:05.032Z</time>
      </trkpt>
      <trkpt lat="47.396399" lon="7.892118">
        <ele>667.615090</ele>
        <time>2021-11-14T23:23:16.823Z</time>
      </trkpt>
      <trkpt lat="47.395697" lon="7.890534">
        <ele>669.764562</ele>
        <time>2021-11-14T23:23:43.511Z</time>
      </trkpt>
      <trkpt lat="47.395063" lon="7.889509">
        <ele>671.427376</ele>
        <time>2021-11-14T23:24:03.288Z</time>
      </trkpt>
      <trkpt lat="47.394937" lon="7.889307">
        <ele>671.756336</ele>
        <time>2021-11-14T23:24:07.434Z</time>
      </trkpt>
      <trkpt lat="47.394848" lon="7.889167">
        <ele>671.986345</ele>
        <time>2021-11-14T23:24:10.176Z</time>
      </trkpt>
      <trkpt lat="47.394678" lon="7.888935">
        <ele>672.395800</ele>
        <time>2021-11-14T23:24:15.534Z</time>
      </trkpt>
      <trkpt lat="47.394482" lon="7.888702">
        <ele>673.120440</ele>
        <time>2021-11-14T23:24:21.467Z</time>
      </trkpt>
      <trkpt lat="47.394359" lon="7.888578">
        <ele>673.775421</ele>
        <time>2021-11-14T23:24:25.184Z</time>
      </trkpt>
      <trkpt lat="47.394146" lon="7.888371">
        <ele>674.896842</ele>
        <time>2021-11-14T23:24:31.337Z</time>
      </trkpt>
      <trkpt lat="47.393995" lon="7.888223">
        <ele>675.693899</ele>
        <time>2021-11-14T23:24:36.762Z</time>
      </trkpt>
      <trkpt lat="47.393916" lon="7.888143">
        <ele>676.115180</ele>
        <time>2021-11-14T23:24:38.992Z</time>
      </trkpt>
      <trkpt lat="47.393730" lon="7.887967">
        <ele>677.086734</ele>
        <time>2021-11-14T23:24:46.465Z</time>
      </trkpt>
      <trkpt lat="47.393623" lon="7.887857">
        <ele>677.660116</ele>
        <time>2021-11-14T23:24:49.620Z</time>
      </trkpt>
      <trkpt lat="47.393478" lon="7.887667">
        <ele>678.512643</ele>
        <time>2021-11-14T23:24:57.543Z</time>
      </trkpt>
      <trkpt lat="47.393429" lon="7.887604">
        <ele>678.798366</ele>
        <time>2021-11-14T23:24:59.886Z</time>
      </trkpt>
      <trkpt lat="47.393194" lon="7.887284">
        <ele>680.204155</ele>
        <time>2021-11-14T23:25:12.184Z</time>
      </trkpt>
      <trkpt lat="47.393034" lon="7.887066">
        <ele>681.752346</ele>
        <time>2021-11-14T23:25:21.093Z</time>
      </trkpt>
      <trkpt lat="47.392970" lon="7.886964">
        <ele>682.575845</ele>
        <time>2021-11-14T23:25:25.432Z</time>
      </trkpt>
      <trkpt lat="47.392849" lon="7.886770">
        <ele>684.137801</ele>
        <time>2021-11-14T23:25:33.987Z</time>
      </trkpt>
      <trkpt lat="47.392831" lon="7.886731">
        <ele>684.417295</ele>
        <time>2021-11-14T23:25:35.631Z</time>
      </trkpt>
      <trkpt lat="47.392756" lon="7.886570">
        <ele>685.574526</ele>
        <time>2021-11-14T23:25:43.570Z</time>
      </trkpt>
      <trkpt lat="47.392679" lon="7.886220">
        <ele>687.753674</ele>
        <time>2021-11-14T23:25:56.736Z</time>
      </trkpt>
      <trkpt lat="47.392677" lon="7.886170">
        <ele>688.050256</ele>
        <time>2021-11-14T23:25:59.490Z</time>
      </trkpt>
      <trkpt lat="47.392666" lon="7.885811">
        <ele>690.178184</ele>
        <time>2021-11-14T23:26:13.144Z</time>
      </trkpt>
      <trkpt lat="47.392623" lon="7.885495">
        <ele>692.086746</ele>
        <time>2021-11-14T23:26:24.780Z</time>
      </trkpt>
      <trkpt lat="47.392609" lon="7.885409">
        <ele>692.610496</ele>
        <time>2021-11-14T23:26:28.248Z</time>
      </trkpt>
      <trkpt lat="47.392513" lon="7.884798">
        <ele>696.308660</ele>
        <time>2021-11-14T23:26:49.493Z</time>
      </trkpt>
      <trkpt lat="47.392466" lon="7.884585">
        <ele>696.888275</ele>
        <time>2021-11-14T23:26:57.198Z</time>
      </trkpt>
      <trkpt lat="47.392466" lon="7.884585">
        <ele>696.888275</ele>
        <time>2021-11-14T23:26:57.204Z</time>
      </trkpt>
      <trkpt lat="47.392466" lon="7.884585">
        <ele>696.888275</ele>
        <time>2021-11-14T23:26:57.261Z</time>
      </trkpt>
      <trkpt lat="47.392294" lon="7.884155">
        <ele>698.180477</ele>
        <time>2021-11-14T23:27:11.214Z</time>
      </trkpt>
      <trkpt lat="47.392254" lon="7.884010">
        <ele>698.585578</ele>
        <time>2021-11-14T23:27:14.723Z</time>
      </trkpt>
      <trkpt lat="47.392243" lon="7.883926">
        <ele>698.806935</ele>
        <time>2021-11-14T23:27:17.631Z</time>
      </trkpt>
      <trkpt lat="47.392257" lon="7.883748">
        <ele>699.270562</ele>
        <time>2021-11-14T23:27:21.972Z</time>
      </trkpt>
      <trkpt lat="47.392295" lon="7.883568">
        <ele>699.758385</ele>
        <time>2021-11-14T23:27:25.879Z</time>
      </trkpt>
      <trkpt lat="47.392327" lon="7.883402">
        <ele>700.204939</ele>
        <time>2021-11-14T23:27:29.516Z</time>
      </trkpt>
      <trkpt lat="47.392391" lon="7.882852">
        <ele>701.648789</ele>
        <time>2021-11-14T23:27:38.587Z</time>
      </trkpt>
      <trkpt lat="47.392399" lon="7.882631">
        <ele>702.221385</ele>
        <time>2021-11-14T23:27:41.751Z</time>
      </trkpt>
      <trkpt lat="47.392394" lon="7.882220">
        <ele>703.068815</ele>
        <time>2021-11-14T23:27:45.366Z</time>
      </trkpt>
      <trkpt lat="47.392492" lon="7.881363">
        <ele>701.077837</ele>
        <time>2021-11-14T23:27:51.546Z</time>
      </trkpt>
      <trkpt lat="47.392530" lon="7.881231">
        <ele>700.749255</ele>
        <time>2021-11-14T23:27:52.462Z</time>
      </trkpt>
      <trkpt lat="47.392576" lon="7.881042">
        <ele>700.289175</ele>
        <time>2021-11-14T23:27:53.826Z</time>
      </trkpt>
      <trkpt lat="47.392973" lon="7.879797">
        <ele>697.136667</ele>
        <time>2021-11-14T23:28:02.852Z</time>
      </trkpt>
      <trkpt lat="47.393030" lon="7.879335">
        <ele>694.991960</ele>
        <time>2021-11-14T23:28:05.805Z</time>
      </trkpt>
      <trkpt lat="47.392980" lon="7.878739">
        <ele>692.178893</ele>
        <time>2021-11-14T23:28:09.526Z</time>
      </trkpt>
      <trkpt lat="47.392853" lon="7.877912">
        <ele>688.206733</ele>
        <time>2021-11-14T23:28:14.756Z</time>
      </trkpt>
      <trkpt lat="47.392796" lon="7.877526">
        <ele>686.356156</ele>
        <time>2021-11-14T23:28:17.145Z</time>
      </trkpt>
      <trkpt lat="47.392627" lon="7.875850">
        <ele>675.186298</ele>
        <time>2021-11-14T23:28:26.960Z</time>
      </trkpt>
      <trkpt lat="47.392620" lon="7.875265">
        <ele>671.021251</ele>
        <time>2021-11-14T23:28:30.343Z</time>
      </trkpt>
      <trkpt lat="47.392622" lon="7.875217">
        <ele>670.678911</ele>
        <time>2021-11-14T23:28:30.609Z</time>
      </trkpt>
      <trkpt lat="47.392645" lon="7.874997">
        <ele>669.094248</ele>
        <time>2021-11-14T23:28:31.922Z</time>
      </trkpt>
      <trkpt lat="47.392733" lon="7.874549">
        <ele>665.773570</ele>
        <time>2021-11-14T23:28:34.596Z</time>
      </trkpt>
      <trkpt lat="47.392729" lon="7.874456">
        <ele>665.269838</ele>
        <time>2021-11-14T23:28:35.132Z</time>
      </trkpt>
      <trkpt lat="47.392680" lon="7.874314">
        <ele>664.429683</ele>
        <time>2021-11-14T23:28:36.058Z</time>
      </trkpt>
      <trkpt lat="47.392178" lon="7.872950">
        <ele>656.245781</ele>
        <time>2021-11-14T23:28:45.149Z</time>
      </trkpt>
      <trkpt lat="47.392145" lon="7.872809">
        <ele>655.459358</ele>
        <time>2021-11-14T23:28:46.016Z</time>
      </trkpt>
      <trkpt lat="47.392122" lon="7.872711">
        <ele>654.912604</ele>
        <time>2021-11-14T23:28:46.749Z</time>
      </trkpt>
      <trkpt lat="47.392003" lon="7.871960">
        <ele>651.459504</ele>
        <time>2021-11-14T23:28:52.794Z</time>
      </trkpt>
      <trkpt lat="47.391971" lon="7.871747">
        <ele>651.116332</ele>
        <time>2021-11-14T23:28:54.067Z</time>
      </trkpt>
      <trkpt lat="47.391928" lon="7.871611">
        <ele>650.880242</ele>
        <time>2021-11-14T23:28:56.582Z</time>
      </trkpt>
      <trkpt lat="47.391668" lon="7.871191">
        <ele>649.985083</ele>
        <time>2021-11-14T23:29:00.859Z</time>
      </trkpt>
      <trkpt lat="47.391313" lon="7.870991">
        <ele>649.102335</ele>
        <time>2021-11-14T23:29:04.945Z</time>
      </trkpt>
      <trkpt lat="47.391248" lon="7.870968">
        <ele>648.947043</ele>
        <time>2021-11-14T23:29:08.065Z</time>
      </trkpt>
      <trkpt lat="47.391246" lon="7.870873">
        <ele>648.797546</ele>
        <time>2021-11-14T23:29:08.622Z</time>
      </trkpt>
      <trkpt lat="47.390810" lon="7.869784">
        <ele>645.425645</ele>
        <time>2021-11-14T23:29:18.767Z</time>
      </trkpt>
      <trkpt lat="47.390135" lon="7.868913">
        <ele>639.420649</ele>
        <time>2021-11-14T23:29:26.989Z</time>
      </trkpt>
      <trkpt lat="47.389999" lon="7.868629">
        <ele>637.842788</ele>
        <time>2021-11-14T23:29:29.033Z</time>
      </trkpt>
      <trkpt lat="47.389908" lon="7.868143">
        <ele>635.555612</ele>
        <time>2021-11-14T23:29:31.952Z</time>
      </trkpt>
      <trkpt lat="47.389913" lon="7.867526">
        <ele>630.313559</ele>
        <time>2021-11-14T23:29:35.459Z</time>
      </trkpt>
      <trkpt lat="47.390028" lon="7.865801">
        <ele>615.424609</ele>
        <time>2021-11-14T23:29:45.294Z</time>
      </trkpt>
      <trkpt lat="47.390057" lon="7.865367">
        <ele>611.890487</ele>
        <time>2021-11-14T23:29:47.772Z</time>
      </trkpt>
      <trkpt lat="47.390138" lon="7.864689">
        <ele>607.241316</ele>
        <time>2021-11-14T23:29:51.712Z</time>
      </trkpt>
      <trkpt lat="47.390658" lon="7.863426">
        <ele>597.259168</ele>
        <time>2021-11-14T23:30:00.388Z</time>
      </trkpt>
      <trkpt lat="47.390852" lon="7.863147">
        <ele>594.608090</ele>
        <time>2021-11-14T23:30:02.803Z</time>
      </trkpt>
      <trkpt lat="47.391861" lon="7.862140">
        <ele>586.002287</ele>
        <time>2021-11-14T23:30:13.733Z</time>
      </trkpt>
      <trkpt lat="47.391930" lon="7.862028">
        <ele>585.277775</ele>
        <time>2021-11-14T23:30:14.655Z</time>
      </trkpt>
      <trkpt lat="47.392013" lon="7.861871">
        <ele>584.324737</ele>
        <time>2021-11-14T23:30:15.848Z</time>
      </trkpt>
      <trkpt lat="47.392159" lon="7.861591">
        <ele>582.633828</ele>
        <time>2021-11-14T23:30:18.058Z</time>
      </trkpt>
      <trkpt lat="47.392252" lon="7.861291">
        <ele>581.255220</ele>
        <time>2021-11-14T23:30:20.081Z</time>
      </trkpt>
      <trkpt lat="47.392446" lon="7.860609">
        <ele>578.451607</ele>
        <time>2021-11-14T23:30:24.636Z</time>
      </trkpt>
      <trkpt lat="47.392873" lon="7.859213">
        <ele>572.645971</ele>
        <time>2021-11-14T23:30:34.228Z</time>
      </trkpt>
      <trkpt lat="47.393583" lon="7.857849">
        <ele>568.173248</ele>
        <time>2021-11-14T23:30:45.936Z</time>
      </trkpt>
      <trkpt lat="47.393712" lon="7.857629">
        <ele>567.458171</ele>
        <time>2021-11-14T23:30:47.941Z</time>
      </trkpt>
      <trkpt lat="47.393747" lon="7.857569">
        <ele>567.263582</ele>
        <time>2021-11-14T23:30:48.471Z</time>
      </trkpt>
      <trkpt lat="47.393840" lon="7.857424">
        <ele>566.772839</ele>
        <time>2021-11-14T23:30:49.852Z</time>
      </trkpt>
      <trkpt lat="47.394330" lon="7.856716">
        <ele>564.150381</ele>
        <time>2021-11-14T23:30:56.693Z</time>
      </trkpt>
      <trkpt lat="47.394762" lon="7.856268">
        <ele>562.007196</ele>
        <time>2021-11-14T23:31:01.856Z</time>
      </trkpt>
      <trkpt lat="47.394873" lon="7.856111">
        <ele>561.383206</ele>
        <time>2021-11-14T23:31:03.315Z</time>
      </trkpt>
      <trkpt lat="47.394997" lon="7.855921">
        <ele>560.657778</ele>
        <time>2021-11-14T23:31:05.088Z</time>
      </trkpt>
      <trkpt lat="47.395030" lon="7.855860">
        <ele>560.443146</ele>
        <time>2021-11-14T23:31:05.605Z</time>
      </trkpt>
      <trkpt lat="47.395075" lon="7.855775">
        <ele>560.146545</ele>
        <time>2021-11-14T23:31:06.288Z</time>
      </trkpt>
      <trkpt lat="47.395196" lon="7.855528">
        <ele>559.308503</ele>
        <time>2021-11-14T23:31:08.311Z</time>
      </trkpt>
      <trkpt lat="47.395261" lon="7.855418">
        <ele>558.907163</ele>
        <time>2021-11-14T23:31:09.258Z</time>
      </trkpt>
      <trkpt lat="47.395350" lon="7.855275">
        <ele>558.373228</ele>
        <time>2021-11-14T23:31:10.519Z</time>
      </trkpt>
      <trkpt lat="47.395428" lon="7.855175">
        <ele>557.917098</ele>
        <time>2021-11-14T23:31:11.559Z</time>
      </trkpt>
      <trkpt lat="47.395483" lon="7.855116">
        <ele>557.578967</ele>
        <time>2021-11-14T23:31:12.214Z</time>
      </trkpt>
      <trkpt lat="47.395563" lon="7.855042">
        <ele>557.109419</ele>
        <time>2021-11-14T23:31:13.104Z</time>
      </trkpt>
      <trkpt lat="47.395630" lon="7.854989">
        <ele>556.731344</ele>
        <time>2021-11-14T23:31:13.808Z</time>
      </trkpt>
      <trkpt lat="47.396094" lon="7.854648">
        <ele>554.153276</ele>
        <time>2021-11-14T23:31:18.668Z</time>
      </trkpt>
      <trkpt lat="47.396458" lon="7.854340">
        <ele>552.066524</ele>
        <time>2021-11-14T23:31:22.576Z</time>
      </trkpt>
      <trkpt lat="47.396734" lon="7.854071">
        <ele>550.421646</ele>
        <time>2021-11-14T23:31:25.672Z</time>
      </trkpt>
      <trkpt lat="47.396904" lon="7.853864">
        <ele>549.325720</ele>
        <time>2021-11-14T23:31:27.803Z</time>
      </trkpt>
      <trkpt lat="47.396956" lon="7.853787">
        <ele>548.979230</ele>
        <time>2021-11-14T23:31:28.477Z</time>
      </trkpt>
      <trkpt lat="47.397013" lon="7.853694">
        <ele>548.596490</ele>
        <time>2021-11-14T23:31:29.270Z</time>
      </trkpt>
      <trkpt lat="47.397171" lon="7.853390">
        <ele>547.427224</ele>
        <time>2021-11-14T23:31:31.775Z</time>
      </trkpt>
      <trkpt lat="47.397240" lon="7.853282">
        <ele>546.974166</ele>
        <time>2021-11-14T23:31:32.714Z</time>
      </trkpt>
      <trkpt lat="47.397399" lon="7.853113">
        <ele>546.091376</ele>
        <time>2021-11-14T23:31:34.668Z</time>
      </trkpt>
      <trkpt lat="47.397466" lon="7.853058">
        <ele>545.745931</ele>
        <time>2021-11-14T23:31:35.369Z</time>
      </trkpt>
      <trkpt lat="47.397512" lon="7.852929">
        <ele>545.301120</ele>
        <time>2021-11-14T23:31:36.291Z</time>
      </trkpt>
      <trkpt lat="47.397687" lon="7.852768">
        <ele>544.371986</ele>
        <time>2021-11-14T23:31:38.336Z</time>
      </trkpt>
      <trkpt lat="47.397732" lon="7.852726">
        <ele>544.132094</ele>
        <time>2021-11-14T23:31:38.822Z</time>
      </trkpt>
      <trkpt lat="47.398683" lon="7.852271">
        <ele>539.532823</ele>
        <time>2021-11-14T23:31:48.457Z</time>
      </trkpt>
      <trkpt lat="47.398855" lon="7.852033">
        <ele>538.401159</ele>
        <time>2021-11-14T23:31:50.704Z</time>
      </trkpt>
      <trkpt lat="47.399381" lon="7.851687">
        <ele>535.636225</ele>
        <time>2021-11-14T23:31:56.347Z</time>
      </trkpt>
      <trkpt lat="47.400271" lon="7.851396">
        <ele>530.974205</ele>
        <time>2021-11-14T23:32:04.765Z</time>
      </trkpt>
      <trkpt lat="47.400404" lon="7.851285">
        <ele>530.061715</ele>
        <time>2021-11-14T23:32:06.175Z</time>
      </trkpt>
      <trkpt lat="47.400801" lon="7.850539">
        <ele>526.224757</ele>
        <time>2021-11-14T23:32:12.060Z</time>
      </trkpt>
      <trkpt lat="47.401066" lon="7.850337">
        <ele>524.443477</ele>
        <time>2021-11-14T23:32:14.773Z</time>
      </trkpt>
      <trkpt lat="47.402640" lon="7.849136">
        <ele>514.585608</ele>
        <time>2021-11-14T23:32:31.056Z</time>
      </trkpt>
      <trkpt lat="47.403067" lon="7.848750">
        <ele>511.902198</ele>
        <time>2021-11-14T23:32:35.860Z</time>
      </trkpt>
      <trkpt lat="47.403453" lon="7.848183">
        <ele>510.406924</ele>
        <time>2021-11-14T23:32:41.166Z</time>
      </trkpt>
      <trkpt lat="47.404016" lon="7.847743">
        <ele>508.657259</ele>
        <time>2021-11-14T23:32:47.728Z</time>
      </trkpt>
      <trkpt lat="47.404047" lon="7.847714">
        <ele>508.556464</ele>
        <time>2021-11-14T23:32:48.075Z</time>
      </trkpt>
      <trkpt lat="47.404245" lon="7.847452">
        <ele>507.826286</ele>
        <time>2021-11-14T23:32:51.151Z</time>
      </trkpt>
      <trkpt lat="47.404354" lon="7.847312">
        <ele>507.429526</ele>
        <time>2021-11-14T23:32:52.824Z</time>
      </trkpt>
      <trkpt lat="47.404540" lon="7.847030">
        <ele>506.978867</ele>
        <time>2021-11-14T23:32:56.158Z</time>
      </trkpt>
      <trkpt lat="47.404926" lon="7.846030">
        <ele>506.884524</ele>
        <time>2021-11-14T23:33:07.494Z</time>
      </trkpt>
      <trkpt lat="47.404935" lon="7.846014">
        <ele>506.882819</ele>
        <time>2021-11-14T23:33:08.051Z</time>
      </trkpt>
      <trkpt lat="47.405496" lon="7.845083">
        <ele>506.780664</ele>
        <time>2021-11-14T23:33:22.660Z</time>
      </trkpt>
      <trkpt lat="47.406046" lon="7.844638">
        <ele>506.109791</ele>
        <time>2021-11-14T23:33:30.118Z</time>
      </trkpt>
      <trkpt lat="47.406522" lon="7.844392">
        <ele>505.524671</ele>
        <time>2021-11-14T23:33:36.481Z</time>
      </trkpt>
      <trkpt lat="47.406657" lon="7.844343">
        <ele>505.363372</ele>
        <time>2021-11-14T23:33:38.481Z</time>
      </trkpt>
      <trkpt lat="47.406729" lon="7.844331">
        <ele>505.279300</ele>
        <time>2021-11-14T23:33:39.171Z</time>
      </trkpt>
      <trkpt lat="47.407179" lon="7.844394">
        <ele>504.754820</ele>
        <time>2021-11-14T23:33:45.401Z</time>
      </trkpt>
      <trkpt lat="47.407338" lon="7.844468">
        <ele>504.246549</ele>
        <time>2021-11-14T23:33:47.025Z</time>
      </trkpt>
      <trkpt lat="47.408022" lon="7.844815">
        <ele>501.305152</ele>
        <time>2021-11-14T23:33:57.312Z</time>
      </trkpt>
      <trkpt lat="47.408130" lon="7.844887">
        <ele>500.823251</ele>
        <time>2021-11-14T23:33:58.780Z</time>
      </trkpt>
      <trkpt lat="47.408170" lon="7.844961">
        <ele>500.562562</ele>
        <time>2021-11-14T23:34:00.415Z</time>
      </trkpt>
      <trkpt lat="47.408437" lon="7.844931">
        <ele>499.473474</ele>
        <time>2021-11-14T23:34:02.860Z</time>
      </trkpt>
      <trkpt lat="47.409142" lon="7.844968">
        <ele>496.453466</ele>
        <time>2021-11-14T23:34:09.722Z</time>
      </trkpt>
      <trkpt lat="47.409210" lon="7.844968">
        <ele>496.122539</ele>
        <time>2021-11-14T23:34:10.347Z</time>
      </trkpt>
      <trkpt lat="47.409459" lon="7.844940">
        <ele>494.907259</ele>
        <time>2021-11-14T23:34:12.707Z</time>
      </trkpt>
      <trkpt lat="47.409665" lon="7.844882">
        <ele>493.886709</ele>
        <time>2021-11-14T23:34:14.673Z</time>
      </trkpt>
      <trkpt lat="47.409752" lon="7.844850">
        <ele>493.450397</ele>
        <time>2021-11-14T23:34:15.459Z</time>
      </trkpt>
      <trkpt lat="47.409830" lon="7.844820">
        <ele>493.058157</ele>
        <time>2021-11-14T23:34:16.200Z</time>
      </trkpt>
      <trkpt lat="47.409986" lon="7.844760">
        <ele>492.273676</ele>
        <time>2021-11-14T23:34:17.666Z</time>
      </trkpt>
      <trkpt lat="47.410148" lon="7.844709">
        <ele>491.467598</ele>
        <time>2021-11-14T23:34:19.225Z</time>
      </trkpt>
      <trkpt lat="47.410293" lon="7.844651">
        <ele>490.736548</ele>
        <time>2021-11-14T23:34:20.665Z</time>
      </trkpt>
      <trkpt lat="47.410433" lon="7.844607">
        <ele>490.039988</ele>
        <time>2021-11-14T23:34:22.015Z</time>
      </trkpt>
      <trkpt lat="47.411166" lon="7.844371">
        <ele>487.273591</ele>
        <time>2021-11-14T23:34:29.394Z</time>
      </trkpt>
      <trkpt lat="47.411235" lon="7.844348">
        <ele>487.065941</ele>
        <time>2021-11-14T23:34:30.162Z</time>
      </trkpt>
      <trkpt lat="47.411264" lon="7.844343">
        <ele>486.980229</ele>
        <time>2021-11-14T23:34:30.560Z</time>
      </trkpt>
      <trkpt lat="47.411785" lon="7.844178">
        <ele>485.416020</ele>
        <time>2021-11-14T23:34:36.187Z</time>
      </trkpt>
      <trkpt lat="47.412769" lon="7.843850">
        <ele>482.630568</ele>
        <time>2021-11-14T23:34:46.793Z</time>
      </trkpt>
      <trkpt lat="47.412891" lon="7.843894">
        <ele>482.335279</ele>
        <time>2021-11-14T23:34:48.634Z</time>
      </trkpt>
      <trkpt lat="47.413673" lon="7.843752">
        <ele>480.482667</ele>
        <time>2021-11-14T23:35:00.464Z</time>
      </trkpt>
      <trkpt lat="47.414428" lon="7.843767">
        <ele>479.066322</ele>
        <time>2021-11-14T23:35:12.386Z</time>
      </trkpt>
      <trkpt lat="47.414534" lon="7.843769">
        <ele>479.039941</ele>
        <time>2021-11-14T23:35:14.236Z</time>
      </trkpt>
      <trkpt lat="47.414737" lon="7.843840">
        <ele>478.988026</ele>
        <time>2021-11-14T23:35:18.019Z</time>
      </trkpt>
      <trkpt lat="47.415123" lon="7.843938">
        <ele>478.890559</ele>
        <time>2021-11-14T23:35:25.518Z</time>
      </trkpt>
      <trkpt lat="47.415184" lon="7.843954">
        <ele>478.875141</ele>
        <time>2021-11-14T23:35:26.922Z</time>
      </trkpt>
      <trkpt lat="47.416215" lon="7.844386">
        <ele>478.471877</ele>
        <time>2021-11-14T23:35:51.050Z</time>
      </trkpt>
      <trkpt lat="47.417039" lon="7.844872">
        <ele>477.679596</ele>
        <time>2021-11-14T23:36:08.601Z</time>
      </trkpt>
      <trkpt lat="47.417634" lon="7.845250">
        <ele>477.101239</ele>
        <time>2021-11-14T23:36:18.880Z</time>
      </trkpt>
      <trkpt lat="47.417834" lon="7.845378">
        <ele>476.492177</ele>
        <time>2021-11-14T23:36:22.034Z</time>
      </trkpt>
      <trkpt lat="47.418505" lon="7.845770">
        <ele>474.048387</ele>
        <time>2021-11-14T23:36:32.512Z</time>
      </trkpt>
      <trkpt lat="47.418787" lon="7.845930">
        <ele>473.025289</ele>
        <time>2021-11-14T23:36:36.758Z</time>
      </trkpt>
      <trkpt lat="47.419677" lon="7.846349">
        <ele>469.902263</ele>
        <time>2021-11-14T23:36:50.007Z</time>
      </trkpt>
      <trkpt lat="47.420292" lon="7.846569">
        <ele>467.838196</ele>
        <time>2021-11-14T23:36:59.123Z</time>
      </trkpt>
      <trkpt lat="47.421216" lon="7.846840">
        <ele>464.811389</ele>
        <time>2021-11-14T23:37:13.074Z</time>
      </trkpt>
      <trkpt lat="47.421469" lon="7.846914">
        <ele>464.087362</ele>
        <time>2021-11-14T23:37:16.884Z</time>
      </trkpt>
      <trkpt lat="47.421782" lon="7.847034">
        <ele>463.179590</ele>
        <time>2021-11-14T23:37:21.605Z</time>
      </trkpt>
      <trkpt lat="47.422224" lon="7.847204">
        <ele>461.897429</ele>
        <time>2021-11-14T23:37:28.314Z</time>
      </trkpt>
      <trkpt lat="47.422830" lon="7.847504">
        <ele>460.103300</ele>
        <time>2021-11-14T23:37:37.890Z</time>
      </trkpt>
      <trkpt lat="47.423160" lon="7.847639">
        <ele>459.512271</ele>
        <time>2021-11-14T23:37:43.248Z</time>
      </trkpt>
      <trkpt lat="47.423175" lon="7.847645">
        <ele>459.486504</ele>
        <time>2021-11-14T23:37:43.493Z</time>
      </trkpt>
      <trkpt lat="47.423326" lon="7.847739">
        <ele>459.214823</ele>
        <time>2021-11-14T23:37:46.186Z</time>
      </trkpt>
      <trkpt lat="47.423401" lon="7.847760">
        <ele>459.088251</ele>
        <time>2021-11-14T23:37:47.449Z</time>
      </trkpt>
      <trkpt lat="47.423488" lon="7.847784">
        <ele>458.941502</ele>
        <time>2021-11-14T23:37:48.929Z</time>
      </trkpt>
      <trkpt lat="47.423788" lon="7.847858">
        <ele>458.437181</ele>
        <time>2021-11-14T23:37:53.879Z</time>
      </trkpt>
      <trkpt lat="47.423887" lon="7.847874">
        <ele>458.272047</ele>
        <time>2021-11-14T23:37:55.631Z</time>
      </trkpt>
      <trkpt lat="47.424743" lon="7.847935">
        <ele>456.849284</ele>
        <time>2021-11-14T23:38:09.859Z</time>
      </trkpt>
      <trkpt lat="47.425016" lon="7.848030">
        <ele>456.380421</ele>
        <time>2021-11-14T23:38:14.595Z</time>
      </trkpt>
      <trkpt lat="47.425093" lon="7.848037">
        <ele>456.251453</ele>
        <time>2021-11-14T23:38:15.892Z</time>
      </trkpt>
      <trkpt lat="47.425165" lon="7.848031">
        <ele>456.130897</ele>
        <time>2021-11-14T23:38:16.974Z</time>
      </trkpt>
      <trkpt lat="47.427648" lon="7.848283">
        <ele>451.846726</ele>
        <time>2021-11-14T23:38:56.932Z</time>
      </trkpt>
      <trkpt lat="47.428268" lon="7.848175">
        <ele>450.728254</ele>
        <time>2021-11-14T23:39:07.032Z</time>
      </trkpt>
      <trkpt lat="47.428781" lon="7.847991">
        <ele>449.700306</ele>
        <time>2021-11-14T23:39:15.469Z</time>
      </trkpt>
      <trkpt lat="47.429321" lon="7.847805">
        <ele>448.620598</ele>
        <time>2021-11-14T23:39:24.368Z</time>
      </trkpt>
      <trkpt lat="47.429436" lon="7.847758">
        <ele>448.388257</ele>
        <time>2021-11-14T23:39:26.195Z</time>
      </trkpt>
      <trkpt lat="47.430098" lon="7.847528">
        <ele>446.980731</ele>
        <time>2021-11-14T23:39:36.783Z</time>
      </trkpt>
      <trkpt lat="47.430641" lon="7.847433">
        <ele>445.626086</ele>
        <time>2021-11-14T23:39:45.024Z</time>
      </trkpt>
      <trkpt lat="47.431292" lon="7.847484">
        <ele>444.011003</ele>
        <time>2021-11-14T23:39:54.722Z</time>
      </trkpt>
      <trkpt lat="47.431726" lon="7.847615">
        <ele>442.913685</ele>
        <time>2021-11-14T23:40:01.597Z</time>
      </trkpt>
      <trkpt lat="47.432368" lon="7.847858">
        <ele>441.717741</ele>
        <time>2021-11-14T23:40:12.056Z</time>
      </trkpt>
      <trkpt lat="47.432515" lon="7.847914">
        <ele>441.443794</ele>
        <time>2021-11-14T23:40:14.604Z</time>
      </trkpt>
      <trkpt lat="47.433365" lon="7.848309">
        <ele>439.835858</ele>
        <time>2021-11-14T23:40:28.896Z</time>
      </trkpt>
      <trkpt lat="47.433528" lon="7.848396">
        <ele>439.527678</ele>
        <time>2021-11-14T23:40:31.898Z</time>
      </trkpt>
      <trkpt lat="47.433795" lon="7.848524">
        <ele>439.037077</ele>
        <time>2021-11-14T23:40:36.476Z</time>
      </trkpt>
      <trkpt lat="47.434500" lon="7.848920">
        <ele>437.718894</ele>
        <time>2021-11-14T23:40:48.919Z</time>
      </trkpt>
      <trkpt lat="47.436050" lon="7.850036">
        <ele>434.686616</ele>
        <time>2021-11-14T23:41:15.756Z</time>
      </trkpt>
      <trkpt lat="47.436479" lon="7.850260">
        <ele>433.883135</ele>
        <time>2021-11-14T23:41:23.321Z</time>
      </trkpt>
      <trkpt lat="47.436538" lon="7.850283">
        <ele>433.775379</ele>
        <time>2021-11-14T23:41:24.191Z</time>
      </trkpt>
      <trkpt lat="47.436663" lon="7.850327">
        <ele>433.548457</ele>
        <time>2021-11-14T23:41:26.625Z</time>
      </trkpt>
      <trkpt lat="47.437310" lon="7.850269">
        <ele>432.863323</ele>
        <time>2021-11-14T23:41:37.845Z</time>
      </trkpt>
      <trkpt lat="47.437750" lon="7.850017">
        <ele>432.435653</ele>
        <time>2021-11-14T23:41:46.443Z</time>
      </trkpt>
      <trkpt lat="47.438127" lon="7.849642">
        <ele>432.023823</ele>
        <time>2021-11-14T23:41:54.816Z</time>
      </trkpt>
      <trkpt lat="47.442391" lon="7.843670">
        <ele>424.785884</ele>
        <time>2021-11-14T23:43:34.111Z</time>
      </trkpt>
      <trkpt lat="47.443079" lon="7.842585">
        <ele>422.776752</ele>
        <time>2021-11-14T23:43:50.190Z</time>
      </trkpt>
      <trkpt lat="47.444584" lon="7.839628">
        <ele>416.790521</ele>
        <time>2021-11-14T23:44:28.266Z</time>
      </trkpt>
      <trkpt lat="47.444718" lon="7.839397">
        <ele>416.204940</ele>
        <time>2021-11-14T23:44:31.292Z</time>
      </trkpt>
      <trkpt lat="47.445072" lon="7.838787">
        <ele>414.658333</ele>
        <time>2021-11-14T23:44:39.377Z</time>
      </trkpt>
      <trkpt lat="47.445528" lon="7.838233">
        <ele>412.979221</ele>
        <time>2021-11-14T23:44:48.068Z</time>
      </trkpt>
      <trkpt lat="47.446064" lon="7.837840">
        <ele>411.320965</ele>
        <time>2021-11-14T23:44:56.928Z</time>
      </trkpt>
      <trkpt lat="47.446145" lon="7.837696">
        <ele>410.989783</ele>
        <time>2021-11-14T23:44:58.824Z</time>
      </trkpt>
      <trkpt lat="47.447146" lon="7.836805">
        <ele>407.935013</ele>
        <time>2021-11-14T23:45:16.297Z</time>
      </trkpt>
      <trkpt lat="47.448622" lon="7.835311">
        <ele>404.571004</ele>
        <time>2021-11-14T23:45:44.358Z</time>
      </trkpt>
      <trkpt lat="47.448978" lon="7.835062">
        <ele>403.991623</ele>
        <time>2021-11-14T23:45:51.520Z</time>
      </trkpt>
      <trkpt lat="47.448956" lon="7.834983">
        <ele>403.973682</ele>
        <time>2021-11-14T23:45:52.620Z</time>
      </trkpt>
      <trkpt lat="47.448594" lon="7.835238">
        <ele>403.849165</ele>
        <time>2021-11-14T23:45:58.312Z</time>
      </trkpt>
      <trkpt lat="47.448080" lon="7.835715">
        <ele>403.660721</ele>
        <time>2021-11-14T23:46:07.019Z</time>
      </trkpt>
      <trkpt lat="47.447586" lon="7.836236">
        <ele>403.472297</ele>
        <time>2021-11-14T23:46:16.218Z</time>
      </trkpt>
      <trkpt lat="47.448080" lon="7.835715">
        <ele>402.859369</ele>
        <time>2021-11-14T23:46:24.162Z</time>
      </trkpt>
      <trkpt lat="47.448594" lon="7.835238">
        <ele>402.203527</ele>
        <time>2021-11-14T23:46:31.444Z</time>
      </trkpt>
      <trkpt lat="47.448956" lon="7.834983">
        <ele>401.770170</ele>
        <time>2021-11-14T23:46:35.954Z</time>
      </trkpt>
      <trkpt lat="47.449275" lon="7.834788">
        <ele>401.387161</ele>
        <time>2021-11-14T23:46:39.848Z</time>
      </trkpt>
      <trkpt lat="47.449505" lon="7.834629">
        <ele>401.088813</ele>
        <time>2021-11-14T23:46:42.778Z</time>
      </trkpt>
      <trkpt lat="47.449669" lon="7.834494">
        <ele>400.868250</ele>
        <time>2021-11-14T23:46:44.887Z</time>
      </trkpt>
      <trkpt lat="47.449811" lon="7.834354">
        <ele>400.667700</ele>
        <time>2021-11-14T23:46:46.942Z</time>
      </trkpt>
      <trkpt lat="47.450016" lon="7.834124">
        <ele>400.365319</ele>
        <time>2021-11-14T23:46:49.906Z</time>
      </trkpt>
      <trkpt lat="47.451121" lon="7.832696">
        <ele>399.206833</ele>
        <time>2021-11-14T23:47:08.437Z</time>
      </trkpt>
      <trkpt lat="47.451327" lon="7.832461">
        <ele>399.129778</ele>
        <time>2021-11-14T23:47:12.278Z</time>
      </trkpt>
      <trkpt lat="47.451426" lon="7.832356">
        <ele>399.093696</ele>
        <time>2021-11-14T23:47:14.027Z</time>
      </trkpt>
      <trkpt lat="47.451426" lon="7.832356">
        <ele>399.093696</ele>
        <time>2021-11-14T23:47:14.030Z</time>
      </trkpt>
      <trkpt lat="47.451701" lon="7.832106">
        <ele>398.998089</ele>
        <time>2021-11-14T23:47:18.922Z</time>
      </trkpt>
      <trkpt lat="47.451989" lon="7.831857">
        <ele>398.899284</ele>
        <time>2021-11-14T23:47:24.016Z</time>
      </trkpt>
      <trkpt lat="47.452175" lon="7.831696">
        <ele>398.788108</ele>
        <time>2021-11-14T23:47:27.420Z</time>
      </trkpt>
      <trkpt lat="47.452373" lon="7.831505">
        <ele>398.605269</ele>
        <time>2021-11-14T23:47:30.728Z</time>
      </trkpt>
      <trkpt lat="47.452618" lon="7.831252">
        <ele>398.374154</ele>
        <time>2021-11-14T23:47:34.967Z</time>
      </trkpt>
      <trkpt lat="47.453092" lon="7.830660">
        <ele>397.894302</ele>
        <time>2021-11-14T23:47:42.779Z</time>
      </trkpt>
      <trkpt lat="47.453250" lon="7.830464">
        <ele>397.734801</ele>
        <time>2021-11-14T23:47:45.170Z</time>
      </trkpt>
      <trkpt lat="47.453398" lon="7.830308">
        <ele>397.594235</ele>
        <time>2021-11-14T23:47:47.456Z</time>
      </trkpt>
      <trkpt lat="47.453492" lon="7.830220">
        <ele>397.508190</ele>
        <time>2021-11-14T23:47:48.679Z</time>
      </trkpt>
      <trkpt lat="47.453757" lon="7.829984">
        <ele>396.926747</ele>
        <time>2021-11-14T23:47:52.289Z</time>
      </trkpt>
      <trkpt lat="47.453989" lon="7.829813">
        <ele>396.391235</ele>
        <time>2021-11-14T23:47:55.047Z</time>
      </trkpt>
      <trkpt lat="47.454287" lon="7.829611">
        <ele>395.714017</ele>
        <time>2021-11-14T23:47:58.493Z</time>
      </trkpt>
      <trkpt lat="47.454472" lon="7.829506">
        <ele>395.304650</ele>
        <time>2021-11-14T23:48:00.747Z</time>
      </trkpt>
      <trkpt lat="47.454625" lon="7.829495">
        <ele>394.988198</ele>
        <time>2021-11-14T23:48:02.305Z</time>
      </trkpt>
      <trkpt lat="47.454803" lon="7.829577">
        <ele>394.603044</ele>
        <time>2021-11-14T23:48:04.400Z</time>
      </trkpt>
      <trkpt lat="47.455119" lon="7.829864">
        <ele>393.836953</ele>
        <time>2021-11-14T23:48:08.363Z</time>
      </trkpt>
      <trkpt lat="47.455185" lon="7.829882">
        <ele>393.721972</ele>
        <time>2021-11-14T23:48:09.011Z</time>
      </trkpt>
      <trkpt lat="47.455265" lon="7.829874">
        <ele>393.622068</ele>
        <time>2021-11-14T23:48:09.841Z</time>
      </trkpt>
      <trkpt lat="47.455471" lon="7.829717">
        <ele>393.333326</ele>
        <time>2021-11-14T23:48:12.605Z</time>
      </trkpt>
      <trkpt lat="47.455556" lon="7.829615">
        <ele>393.196942</ele>
        <time>2021-11-14T23:48:13.707Z</time>
      </trkpt>
      <trkpt lat="47.455584" lon="7.829685">
        <ele>393.128423</ele>
        <time>2021-11-14T23:48:14.745Z</time>
      </trkpt>
      <trkpt lat="47.455626" lon="7.829799">
        <ele>393.019051</ele>
        <time>2021-11-14T23:48:16.277Z</time>
      </trkpt>
      <trkpt lat="47.455644" lon="7.829891">
        <ele>392.938365</ele>
        <time>2021-11-14T23:48:17.593Z</time>
      </trkpt>
      <trkpt lat="47.455667" lon="7.830016">
        <ele>392.829227</ele>
        <time>2021-11-14T23:48:18.938Z</time>
      </trkpt>
      <trkpt lat="47.455686" lon="7.830084">
        <ele>392.767241</ele>
        <time>2021-11-14T23:48:19.707Z</time>
      </trkpt>
      <trkpt lat="47.456217" lon="7.829960">
        <ele>392.097443</ele>
        <time>2021-11-14T23:48:29.126Z</time>
      </trkpt>
      <trkpt lat="47.456508" lon="7.829890">
        <ele>391.730106</ele>
        <time>2021-11-14T23:48:34.257Z</time>
      </trkpt>
      <trkpt lat="47.456847" lon="7.829841">
        <ele>391.405479</ele>
        <time>2021-11-14T23:48:41.182Z</time>
      </trkpt>
      <trkpt lat="47.457427" lon="7.829810">
        <ele>391.023946</ele>
        <time>2021-11-14T23:48:52.516Z</time>
      </trkpt>
      <trkpt lat="47.457731" lon="7.829812">
        <ele>390.824098</ele>
        <time>2021-11-14T23:48:57.985Z</time>
      </trkpt>
      <trkpt lat="47.458230" lon="7.829919">
        <ele>390.492631</ele>
        <time>2021-11-14T23:49:07.094Z</time>
      </trkpt>
      <trkpt lat="47.458385" lon="7.829959">
        <ele>390.389197</ele>
        <time>2021-11-14T23:49:09.012Z</time>
      </trkpt>
      <trkpt lat="47.458483" lon="7.830002">
        <ele>390.305736</ele>
        <time>2021-11-14T23:49:10.148Z</time>
      </trkpt>
      <trkpt lat="47.458605" lon="7.829769">
        <ele>390.004416</ele>
        <time>2021-11-14T23:49:12.445Z</time>
      </trkpt>
      <trkpt lat="47.458779" lon="7.829408">
        <ele>389.551117</ele>
        <time>2021-11-14T23:49:15.889Z</time>
      </trkpt>
      <trkpt lat="47.458992" lon="7.829105">
        <ele>389.104201</ele>
        <time>2021-11-14T23:49:19.280Z</time>
      </trkpt>
      <trkpt lat="47.459358" lon="7.828780">
        <ele>388.458628</ele>
        <time>2021-11-14T23:49:24.180Z</time>
      </trkpt>
      <trkpt lat="47.459456" lon="7.828693">
        <ele>388.285781</ele>
        <time>2021-11-14T23:49:25.519Z</time>
      </trkpt>
      <trkpt lat="47.459537" lon="7.828672">
        <ele>388.161422</ele>
        <time>2021-11-14T23:49:26.367Z</time>
      </trkpt>
      <trkpt lat="47.459940" lon="7.828652">
        <ele>387.586229</ele>
        <time>2021-11-14T23:49:30.819Z</time>
      </trkpt>
      <trkpt lat="47.460628" lon="7.828763">
        <ele>387.115434</ele>
        <time>2021-11-14T23:49:38.995Z</time>
      </trkpt>
      <trkpt lat="47.460850" lon="7.828883">
        <ele>386.954648</ele>
        <time>2021-11-14T23:49:42.169Z</time>
      </trkpt>
      <trkpt lat="47.461473" lon="7.829886">
        <ele>386.423271</ele>
        <time>2021-11-14T23:49:55.286Z</time>
      </trkpt>
      <trkpt lat="47.461548" lon="7.829918">
        <ele>386.450616</ele>
        <time>2021-11-14T23:49:56.566Z</time>
      </trkpt>
      <trkpt lat="47.461585" lon="7.830158">
        <ele>386.508918</ele>
        <time>2021-11-14T23:49:59.326Z</time>
      </trkpt>
      <trkpt lat="47.461787" lon="7.831158">
        <ele>386.756108</ele>
        <time>2021-11-14T23:50:10.495Z</time>
      </trkpt>
      <trkpt lat="47.461918" lon="7.831668">
        <ele>386.885322</ele>
        <time>2021-11-14T23:50:16.497Z</time>
      </trkpt>
      <trkpt lat="47.462048" lon="7.832204">
        <ele>387.020192</ele>
        <time>2021-11-14T23:50:23.368Z</time>
      </trkpt>
      <trkpt lat="47.462080" lon="7.832335">
        <ele>387.096852</ele>
        <time>2021-11-14T23:50:24.997Z</time>
      </trkpt>
      <trkpt lat="47.462179" lon="7.832744">
        <ele>387.339631</ele>
        <time>2021-11-14T23:50:30.197Z</time>
      </trkpt>
      <trkpt lat="47.462217" lon="7.832953">
        <ele>387.460581</ele>
        <time>2021-11-14T23:50:33.041Z</time>
      </trkpt>
      <trkpt lat="47.462285" lon="7.833721">
        <ele>387.893444</ele>
        <time>2021-11-14T23:50:42.548Z</time>
      </trkpt>
      <trkpt lat="47.462296" lon="7.833933">
        <ele>388.012269</ele>
        <time>2021-11-14T23:50:45.496Z</time>
      </trkpt>
      <trkpt lat="47.462317" lon="7.834216">
        <ele>388.171374</ele>
        <time>2021-11-14T23:50:49.006Z</time>
      </trkpt>
      <trkpt lat="47.462357" lon="7.834782">
        <ele>388.489407</ele>
        <time>2021-11-14T23:50:55.768Z</time>
      </trkpt>
      <trkpt lat="47.462375" lon="7.834910">
        <ele>388.576224</ele>
        <time>2021-11-14T23:50:57.552Z</time>
      </trkpt>
      <trkpt lat="47.462388" lon="7.834991">
        <ele>388.634462</ele>
        <time>2021-11-14T23:50:58.582Z</time>
      </trkpt>
      <trkpt lat="47.462586" lon="7.835900">
        <ele>389.302534</ele>
        <time>2021-11-14T23:51:09.730Z</time>
      </trkpt>
      <trkpt lat="47.462666" lon="7.836201">
        <ele>389.528782</ele>
        <time>2021-11-14T23:51:13.841Z</time>
      </trkpt>
      <trkpt lat="47.462700" lon="7.836337">
        <ele>389.630216</ele>
        <time>2021-11-14T23:51:15.714Z</time>
      </trkpt>
      <trkpt lat="47.462730" lon="7.836472">
        <ele>389.729624</ele>
        <time>2021-11-14T23:51:17.436Z</time>
      </trkpt>
      <trkpt lat="47.462748" lon="7.836556">
        <ele>389.791267</ele>
        <time>2021-11-14T23:51:18.324Z</time>
      </trkpt>
      <trkpt lat="47.462851" lon="7.837404">
        <ele>390.392823</ele>
        <time>2021-11-14T23:51:30.936Z</time>
      </trkpt>
      <trkpt lat="47.462856" lon="7.837506">
        <ele>390.461082</ele>
        <time>2021-11-14T23:51:32.828Z</time>
      </trkpt>
      <trkpt lat="47.462865" lon="7.837711">
        <ele>390.598198</ele>
        <time>2021-11-14T23:51:35.236Z</time>
      </trkpt>
      <trkpt lat="47.462869" lon="7.837866">
        <ele>390.701729</ele>
        <time>2021-11-14T23:51:37.192Z</time>
      </trkpt>
      <trkpt lat="47.462871" lon="7.837954">
        <ele>390.760498</ele>
        <time>2021-11-14T23:51:38.722Z</time>
      </trkpt>
      <trkpt lat="47.462873" lon="7.838016">
        <ele>390.801927</ele>
        <time>2021-11-14T23:51:39.763Z</time>
      </trkpt>
      <trkpt lat="47.462883" lon="7.838488">
        <ele>391.117119</ele>
        <time>2021-11-14T23:51:45.897Z</time>
      </trkpt>
      <trkpt lat="47.462936" lon="7.838934">
        <ele>391.419366</ele>
        <time>2021-11-14T23:51:51.239Z</time>
      </trkpt>
      <trkpt lat="47.462967" lon="7.839047">
        <ele>391.500761</ele>
        <time>2021-11-14T23:51:52.937Z</time>
      </trkpt>
      <trkpt lat="47.462982" lon="7.839106">
        <ele>391.542833</ele>
        <time>2021-11-14T23:51:53.876Z</time>
      </trkpt>
      <trkpt lat="47.463043" lon="7.839292">
        <ele>391.680815</ele>
        <time>2021-11-14T23:51:55.692Z</time>
      </trkpt>
      <trkpt lat="47.463133" lon="7.839561">
        <ele>391.881142</ele>
        <time>2021-11-14T23:51:59.598Z</time>
      </trkpt>
      <trkpt lat="47.463287" lon="7.840028">
        <ele>392.127067</ele>
        <time>2021-11-14T23:52:05.633Z</time>
      </trkpt>
      <trkpt lat="47.463588" lon="7.840904">
        <ele>391.988681</ele>
        <time>2021-11-14T23:52:16.928Z</time>
      </trkpt>
      <trkpt lat="47.463616" lon="7.840992">
        <ele>391.974984</ele>
        <time>2021-11-14T23:52:18.006Z</time>
      </trkpt>
      <trkpt lat="47.463685" lon="7.841203">
        <ele>391.941975</ele>
        <time>2021-11-14T23:52:19.949Z</time>
      </trkpt>
      <trkpt lat="47.463874" lon="7.841863">
        <ele>391.841033</ele>
        <time>2021-11-14T23:52:26.237Z</time>
      </trkpt>
      <trkpt lat="47.463922" lon="7.842123">
        <ele>391.803077</ele>
        <time>2021-11-14T23:52:28.221Z</time>
      </trkpt>
      <trkpt lat="47.463971" lon="7.842355">
        <ele>391.770186</ele>
        <time>2021-11-14T23:52:30.784Z</time>
      </trkpt>
      <trkpt lat="47.464053" lon="7.842690">
        <ele>391.779895</ele>
        <time>2021-11-14T23:52:33.585Z</time>
      </trkpt>
      <trkpt lat="47.464075" lon="7.842774">
        <ele>391.782350</ele>
        <time>2021-11-14T23:52:34.783Z</time>
      </trkpt>
      <trkpt lat="47.464165" lon="7.843130">
        <ele>391.792708</ele>
        <time>2021-11-14T23:52:37.908Z</time>
      </trkpt>
      <trkpt lat="47.464176" lon="7.843178">
        <ele>391.794089</ele>
        <time>2021-11-14T23:52:38.393Z</time>
      </trkpt>
      <trkpt lat="47.464234" lon="7.843434">
        <ele>391.801447</ele>
        <time>2021-11-14T23:52:41.457Z</time>
      </trkpt>
      <trkpt lat="47.464354" lon="7.843960">
        <ele>391.816575</ele>
        <time>2021-11-14T23:52:47.474Z</time>
      </trkpt>
      <trkpt lat="47.464386" lon="7.844088">
        <ele>391.820295</ele>
        <time>2021-11-14T23:52:48.816Z</time>
      </trkpt>
      <trkpt lat="47.464433" lon="7.844273">
        <ele>391.825680</ele>
        <time>2021-11-14T23:52:51.300Z</time>
      </trkpt>
      <trkpt lat="47.464585" lon="7.844988">
        <ele>391.930021</ele>
        <time>2021-11-14T23:52:59.813Z</time>
      </trkpt>
      <trkpt lat="47.464737" lon="7.846119">
        <ele>392.687240</ele>
        <time>2021-11-14T23:53:13.921Z</time>
      </trkpt>
      <trkpt lat="47.464771" lon="7.847028">
        <ele>393.285059</ele>
        <time>2021-11-14T23:53:26.029Z</time>
      </trkpt>
      <trkpt lat="47.464784" lon="7.847333">
        <ele>393.485739</ele>
        <time>2021-11-14T23:53:30.011Z</time>
      </trkpt>
      <trkpt lat="47.464784" lon="7.847333">
        <ele>393.485739</ele>
        <time>2021-11-14T23:53:30.014Z</time>
      </trkpt>
      <trkpt lat="47.464784" lon="7.847333">
        <ele>393.485739</ele>
        <time>2021-11-14T23:53:30.044Z</time>
      </trkpt>
      <trkpt lat="47.464820" lon="7.847644">
        <ele>393.731134</ele>
        <time>2021-11-14T23:53:34.316Z</time>
      </trkpt>
      <trkpt lat="47.464850" lon="7.847870">
        <ele>393.938258</ele>
        <time>2021-11-14T23:53:37.231Z</time>
      </trkpt>
      <trkpt lat="47.464909" lon="7.848219">
        <ele>394.261780</ele>
        <time>2021-11-14T23:53:42.298Z</time>
      </trkpt>
      <trkpt lat="47.464952" lon="7.848443">
        <ele>394.471188</ele>
        <time>2021-11-14T23:53:45.486Z</time>
      </trkpt>
      <trkpt lat="47.465152" lon="7.849351">
        <ele>395.330004</ele>
        <time>2021-11-14T23:53:58.745Z</time>
      </trkpt>
      <trkpt lat="47.465348" lon="7.849875">
        <ele>395.868558</ele>
        <time>2021-11-14T23:54:06.867Z</time>
      </trkpt>
      <trkpt lat="47.465558" lon="7.850405">
        <ele>396.577533</ele>
        <time>2021-11-14T23:54:15.119Z</time>
      </trkpt>
      <trkpt lat="47.465620" lon="7.850585">
        <ele>396.824005</ele>
        <time>2021-11-14T23:54:17.918Z</time>
      </trkpt>
      <trkpt lat="47.465714" lon="7.850917">
        <ele>397.263151</ele>
        <time>2021-11-14T23:54:22.405Z</time>
      </trkpt>
      <trkpt lat="47.465829" lon="7.851383">
        <ele>397.868390</ele>
        <time>2021-11-14T23:54:29.667Z</time>
      </trkpt>
      <trkpt lat="47.465804" lon="7.851399">
        <ele>397.917550</ele>
        <time>2021-11-14T23:54:30.367Z</time>
      </trkpt>
      <trkpt lat="47.465765" lon="7.851501">
        <ele>398.060520</ele>
        <time>2021-11-14T23:54:32.562Z</time>
      </trkpt>
      <trkpt lat="47.465770" lon="7.851542">
        <ele>398.111349</ele>
        <time>2021-11-14T23:54:33.272Z</time>
      </trkpt>
      <trkpt lat="47.465781" lon="7.851575">
        <ele>398.156239</ele>
        <time>2021-11-14T23:54:33.834Z</time>
      </trkpt>
      <trkpt lat="47.465821" lon="7.851619">
        <ele>398.246200</ele>
        <time>2021-11-14T23:54:34.873Z</time>
      </trkpt>
      <trkpt lat="47.465846" lon="7.851625">
        <ele>398.291908</ele>
        <time>2021-11-14T23:54:35.405Z</time>
      </trkpt>
      <trkpt lat="47.465871" lon="7.851620">
        <ele>398.337437</ele>
        <time>2021-11-14T23:54:35.908Z</time>
      </trkpt>
      <trkpt lat="47.465896" lon="7.851603">
        <ele>398.387094</ele>
        <time>2021-11-14T23:54:36.422Z</time>
      </trkpt>
      <trkpt lat="47.465931" lon="7.851497">
        <ele>398.531020</ele>
        <time>2021-11-14T23:54:38.422Z</time>
      </trkpt>
      <trkpt lat="47.465925" lon="7.851458">
        <ele>398.579818</ele>
        <time>2021-11-14T23:54:39.123Z</time>
      </trkpt>
      <trkpt lat="47.466015" lon="7.851377">
        <ele>398.769944</ele>
        <time>2021-11-14T23:54:42.062Z</time>
      </trkpt>
      <trkpt lat="47.466390" lon="7.851107">
        <ele>399.783805</ele>
        <time>2021-11-14T23:54:52.112Z</time>
      </trkpt>
      <trkpt lat="47.466513" lon="7.851046">
        <ele>400.225651</ele>
        <time>2021-11-14T23:54:54.904Z</time>
      </trkpt>
      <trkpt lat="47.466576" lon="7.851019">
        <ele>400.449048</ele>
        <time>2021-11-14T23:54:56.667Z</time>
      </trkpt>
      <trkpt lat="47.466767" lon="7.850952">
        <ele>401.117621</ele>
        <time>2021-11-14T23:55:01.749Z</time>
      </trkpt>
      <trkpt lat="47.466831" lon="7.850929">
        <ele>401.341940</ele>
        <time>2021-11-14T23:55:03.161Z</time>
      </trkpt>
      <trkpt lat="47.467007" lon="7.850894">
        <ele>401.946776</ele>
        <time>2021-11-14T23:55:08.204Z</time>
      </trkpt>
      <trkpt lat="47.468532" lon="7.850782">
        <ele>407.693839</ele>
        <time>2021-11-14T23:55:55.833Z</time>
      </trkpt>
      <trkpt lat="47.468646" lon="7.850779">
        <ele>408.200574</ele>
        <time>2021-11-14T23:55:58.367Z</time>
      </trkpt>
      <trkpt lat="47.468794" lon="7.850777">
        <ele>408.858363</ele>
        <time>2021-11-14T23:56:05.118Z</time>
      </trkpt>
      <trkpt lat="47.468807" lon="7.850777">
        <ele>408.916139</ele>
        <time>2021-11-14T23:56:05.232Z</time>
      </trkpt>
      <trkpt lat="47.468931" lon="7.850775">
        <ele>409.467270</ele>
        <time>2021-11-14T23:56:10.572Z</time>
      </trkpt>
      <trkpt lat="47.469115" lon="7.850772">
        <ele>410.285078</ele>
        <time>2021-11-14T23:56:17.090Z</time>
      </trkpt>
      <trkpt lat="47.469315" lon="7.850771">
        <ele>411.173950</ele>
        <time>2021-11-14T23:56:23.973Z</time>
      </trkpt>
      <trkpt lat="47.469352" lon="7.850770">
        <ele>411.338418</ele>
        <time>2021-11-14T23:56:24.298Z</time>
      </trkpt>
      <trkpt lat="47.469464" lon="7.850775">
        <ele>411.836410</ele>
        <time>2021-11-14T23:56:29.949Z</time>
      </trkpt>
      <trkpt lat="47.469555" lon="7.850782">
        <ele>412.241392</ele>
        <time>2021-11-14T23:56:32.388Z</time>
      </trkpt>
      <trkpt lat="47.469772" lon="7.850804">
        <ele>413.208075</ele>
        <time>2021-11-14T23:56:41.367Z</time>
      </trkpt>
      <trkpt lat="47.470145" lon="7.850841">
        <ele>414.964473</ele>
        <time>2021-11-14T23:56:56.388Z</time>
      </trkpt>
      <trkpt lat="47.470421" lon="7.850868">
        <ele>416.270497</ele>
        <time>2021-11-14T23:57:06.602Z</time>
      </trkpt>
      <trkpt lat="47.470525" lon="7.850877">
        <ele>416.762389</ele>
        <time>2021-11-14T23:57:10.843Z</time>
      </trkpt>
      <trkpt lat="47.471325" lon="7.850935">
        <ele>420.544249</ele>
        <time>2021-11-14T23:57:42.700Z</time>
      </trkpt>
      <trkpt lat="47.471670" lon="7.851035">
        <ele>422.163718</ele>
        <time>2021-11-14T23:57:55.840Z</time>
      </trkpt>
      <trkpt lat="47.471898" lon="7.851131">
        <ele>423.158391</ele>
        <time>2021-11-14T23:58:06.015Z</time>
      </trkpt>
      <trkpt lat="47.472010" lon="7.851173">
        <ele>423.643201</ele>
        <time>2021-11-14T23:58:09.956Z</time>
      </trkpt>
      <trkpt lat="47.472075" lon="7.851198">
        <ele>423.925006</ele>
        <time>2021-11-14T23:58:12.635Z</time>
      </trkpt>
      <trkpt lat="47.472223" lon="7.851237">
        <ele>424.555783</ele>
        <time>2021-11-14T23:58:18.545Z</time>
      </trkpt>
      <trkpt lat="47.472594" lon="7.851279">
        <ele>426.117037</ele>
        <time>2021-11-14T23:58:31.998Z</time>
      </trkpt>
      <trkpt lat="47.473090" lon="7.851217">
        <ele>428.205651</ele>
        <time>2021-11-14T23:58:49.350Z</time>
      </trkpt>
      <trkpt lat="47.473132" lon="7.851211">
        <ele>428.382701</ele>
        <time>2021-11-14T23:58:51.107Z</time>
      </trkpt>
      <trkpt lat="47.473275" lon="7.851189">
        <ele>428.985960</ele>
        <time>2021-11-14T23:58:56.998Z</time>
      </trkpt>
      <trkpt lat="47.473706" lon="7.851184">
        <ele>430.857327</ele>
        <time>2021-11-14T23:59:11.582Z</time>
      </trkpt>
      <trkpt lat="47.474073" lon="7.851261">
        <ele>432.482141</ele>
        <time>2021-11-14T23:59:24.198Z</time>
      </trkpt>
      <trkpt lat="47.474489" lon="7.851469">
        <ele>434.406969</ele>
        <time>2021-11-14T23:59:40.219Z</time>
      </trkpt>
      <trkpt lat="47.475005" lon="7.851847">
        <ele>436.930903</ele>
        <time>2021-11-15T00:00:03.810Z</time>
      </trkpt>
      <trkpt lat="47.475474" lon="7.852041">
        <ele>439.499107</ele>
        <time>2021-11-15T00:00:24.461Z</time>
      </trkpt>
      <trkpt lat="47.475712" lon="7.852137">
        <ele>440.841804</ele>
        <time>2021-11-15T00:00:35.810Z</time>
      </trkpt>
      <trkpt lat="47.476000" lon="7.852252">
        <ele>442.465455</ele>
        <time>2021-11-15T00:00:48.804Z</time>
      </trkpt>
      <trkpt lat="47.476190" lon="7.852326">
        <ele>443.534844</ele>
        <time>2021-11-15T00:00:56.805Z</time>
      </trkpt>
      <trkpt lat="47.476289" lon="7.852358">
        <ele>444.086403</ele>
        <time>2021-11-15T00:01:01.873Z</time>
      </trkpt>
      <trkpt lat="47.476520" lon="7.852417">
        <ele>445.362317</ele>
        <time>2021-11-15T00:01:10.907Z</time>
      </trkpt>
      <trkpt lat="47.476682" lon="7.852438">
        <ele>446.247449</ele>
        <time>2021-11-15T00:01:18.464Z</time>
      </trkpt>
      <trkpt lat="47.476792" lon="7.852449">
        <ele>446.847537</ele>
        <time>2021-11-15T00:01:22.686Z</time>
      </trkpt>
      <trkpt lat="47.476984" lon="7.852449">
        <ele>447.645873</ele>
        <time>2021-11-15T00:01:30.805Z</time>
      </trkpt>
      <trkpt lat="47.479117" lon="7.852270">
        <ele>456.053893</ele>
        <time>2021-11-15T00:02:43.745Z</time>
      </trkpt>
      <trkpt lat="47.479244" lon="7.852259">
        <ele>456.601074</ele>
        <time>2021-11-15T00:02:47.731Z</time>
      </trkpt>
      <trkpt lat="47.479485" lon="7.852237">
        <ele>457.639622</ele>
        <time>2021-11-15T00:02:58.055Z</time>
      </trkpt>
      <trkpt lat="47.480217" lon="7.852063">
        <ele>460.828436</ele>
        <time>2021-11-15T00:03:27.385Z</time>
      </trkpt>
      <trkpt lat="47.480646" lon="7.851849">
        <ele>462.558173</ele>
        <time>2021-11-15T00:03:44.076Z</time>
      </trkpt>
      <trkpt lat="47.480750" lon="7.851790">
        <ele>462.942080</ele>
        <time>2021-11-15T00:03:48.955Z</time>
      </trkpt>
      <trkpt lat="47.480852" lon="7.851729">
        <ele>463.321280</ele>
        <time>2021-11-15T00:03:53.441Z</time>
      </trkpt>
      <trkpt lat="47.481334" lon="7.851437">
        <ele>465.116470</ele>
        <time>2021-11-15T00:04:09.784Z</time>
      </trkpt>
      <trkpt lat="47.481608" lon="7.851297">
        <ele>466.115603</ele>
        <time>2021-11-15T00:04:18.287Z</time>
      </trkpt>
      <trkpt lat="47.481766" lon="7.851223">
        <ele>466.686821</ele>
        <time>2021-11-15T00:04:24.588Z</time>
      </trkpt>
      <trkpt lat="47.482358" lon="7.850933">
        <ele>468.745035</ele>
        <time>2021-11-15T00:04:45.283Z</time>
      </trkpt>
      <trkpt lat="47.482608" lon="7.850799">
        <ele>469.574103</ele>
        <time>2021-11-15T00:04:52.515Z</time>
      </trkpt>
      <trkpt lat="47.482665" lon="7.850768">
        <ele>469.763454</ele>
        <time>2021-11-15T00:04:54.691Z</time>
      </trkpt>
      <trkpt lat="47.482738" lon="7.850728">
        <ele>470.006174</ele>
        <time>2021-11-15T00:04:56.093Z</time>
      </trkpt>
      <trkpt lat="47.482794" lon="7.850696">
        <ele>470.193350</ele>
        <time>2021-11-15T00:04:57.857Z</time>
      </trkpt>
      <trkpt lat="47.482807" lon="7.850688">
        <ele>470.237250</ele>
        <time>2021-11-15T00:04:59.131Z</time>
      </trkpt>
      <trkpt lat="47.482915" lon="7.850629">
        <ele>470.596211</ele>
        <time>2021-11-15T00:05:00.606Z</time>
      </trkpt>
      <trkpt lat="47.483011" lon="7.850573">
        <ele>470.917960</ele>
        <time>2021-11-15T00:05:04.647Z</time>
      </trkpt>
      <trkpt lat="47.483128" lon="7.850517">
        <ele>471.301377</ele>
        <time>2021-11-15T00:05:08.714Z</time>
      </trkpt>
      <trkpt lat="47.484041" lon="7.850377">
        <ele>474.034158</ele>
        <time>2021-11-15T00:05:33.125Z</time>
      </trkpt>
      <trkpt lat="47.484352" lon="7.850459">
        <ele>474.830575</ele>
        <time>2021-11-15T00:05:42.003Z</time>
      </trkpt>
      <trkpt lat="47.484518" lon="7.850556">
        <ele>475.280529</ele>
        <time>2021-11-15T00:05:49.003Z</time>
      </trkpt>
      <trkpt lat="47.484548" lon="7.850572">
        <ele>475.360925</ele>
        <time>2021-11-15T00:05:50.331Z</time>
      </trkpt>
      <trkpt lat="47.484631" lon="7.850586">
        <ele>475.571533</ele>
        <time>2021-11-15T00:05:52.446Z</time>
      </trkpt>
      <trkpt lat="47.484736" lon="7.850560">
        <ele>475.839931</ele>
        <time>2021-11-15T00:05:53.828Z</time>
      </trkpt>
      <trkpt lat="47.484922" lon="7.850473">
        <ele>476.331727</ele>
        <time>2021-11-15T00:05:59.641Z</time>
      </trkpt>
      <trkpt lat="47.485140" lon="7.850236">
        <ele>477.013713</ele>
        <time>2021-11-15T00:06:04.844Z</time>
      </trkpt>
      <trkpt lat="47.485302" lon="7.850164">
        <ele>477.440157</ele>
        <time>2021-11-15T00:06:08.307Z</time>
      </trkpt>
      <trkpt lat="47.485423" lon="7.850124">
        <ele>477.752732</ele>
        <time>2021-11-15T00:06:10.016Z</time>
      </trkpt>
      <trkpt lat="47.485547" lon="7.850079">
        <ele>478.062339</ele>
        <time>2021-11-15T00:06:13.725Z</time>
      </trkpt>
      <trkpt lat="47.485834" lon="7.849993">
        <ele>478.624948</ele>
        <time>2021-11-15T00:06:18.657Z</time>
      </trkpt>
      <trkpt lat="47.485932" lon="7.849984">
        <ele>478.813599</ele>
        <time>2021-11-15T00:06:21.582Z</time>
      </trkpt>
      <trkpt lat="47.485987" lon="7.849975">
        <ele>478.919916</ele>
        <time>2021-11-15T00:06:22.780Z</time>
      </trkpt>
      <trkpt lat="47.486083" lon="7.849946">
        <ele>479.108166</ele>
        <time>2021-11-15T00:06:23.840Z</time>
      </trkpt>
      <trkpt lat="47.486240" lon="7.849728">
        <ele>479.521813</ele>
        <time>2021-11-15T00:06:28.093Z</time>
      </trkpt>
      <trkpt lat="47.486279" lon="7.849670">
        <ele>479.628047</ele>
        <time>2021-11-15T00:06:29.173Z</time>
      </trkpt>
      <trkpt lat="47.486303" lon="7.849650">
        <ele>479.680967</ele>
        <time>2021-11-15T00:06:29.799Z</time>
      </trkpt>
      <trkpt lat="47.486469" lon="7.849589">
        <ele>480.009592</ele>
        <time>2021-11-15T00:06:32.395Z</time>
      </trkpt>
      <trkpt lat="47.486773" lon="7.849704">
        <ele>480.612454</ele>
        <time>2021-11-15T00:06:39.069Z</time>
      </trkpt>
      <trkpt lat="47.486894" lon="7.849739">
        <ele>480.849333</ele>
        <time>2021-11-15T00:06:42.313Z</time>
      </trkpt>
      <trkpt lat="47.487073" lon="7.849767">
        <ele>481.195164</ele>
        <time>2021-11-15T00:06:46.769Z</time>
      </trkpt>
      <trkpt lat="47.487219" lon="7.849782">
        <ele>481.476351</ele>
        <time>2021-11-15T00:06:50.378Z</time>
      </trkpt>
      <trkpt lat="47.487361" lon="7.849792">
        <ele>482.342606</ele>
        <time>2021-11-15T00:06:54.704Z</time>
      </trkpt>
      <trkpt lat="47.488402" lon="7.849885">
        <ele>488.736496</ele>
        <time>2021-11-15T00:07:38.007Z</time>
      </trkpt>
      <trkpt lat="47.488639" lon="7.849855">
        <ele>490.194826</ele>
        <time>2021-11-15T00:07:46.491Z</time>
      </trkpt>
      <trkpt lat="47.488939" lon="7.849720">
        <ele>492.117251</ele>
        <time>2021-11-15T00:08:00.411Z</time>
      </trkpt>
      <trkpt lat="47.488993" lon="7.849683">
        <ele>492.482084</ele>
        <time>2021-11-15T00:08:03.591Z</time>
      </trkpt>
      <trkpt lat="47.489046" lon="7.849642">
        <ele>492.971649</ele>
        <time>2021-11-15T00:08:07.678Z</time>
      </trkpt>
      <trkpt lat="47.489366" lon="7.849261">
        <ele>496.392888</ele>
        <time>2021-11-15T00:08:25.058Z</time>
      </trkpt>
      <trkpt lat="47.489636" lon="7.849127">
        <ele>498.765115</ele>
        <time>2021-11-15T00:08:36.978Z</time>
      </trkpt>
      <trkpt lat="47.489714" lon="7.849112">
        <ele>499.420324</ele>
        <time>2021-11-15T00:08:42.443Z</time>
      </trkpt>
      <trkpt lat="47.489830" lon="7.849115">
        <ele>500.386761</ele>
        <time>2021-11-15T00:08:46.931Z</time>
      </trkpt>
      <trkpt lat="47.490088" lon="7.849193">
        <ele>502.580309</ele>
        <time>2021-11-15T00:09:01.462Z</time>
      </trkpt>
      <trkpt lat="47.490655" lon="7.849589">
        <ele>507.903353</ele>
        <time>2021-11-15T00:09:30.501Z</time>
      </trkpt>
      <trkpt lat="47.490721" lon="7.849614">
        <ele>508.652178</ele>
        <time>2021-11-15T00:09:34.829Z</time>
      </trkpt>
      <trkpt lat="47.490767" lon="7.849632">
        <ele>509.175164</ele>
        <time>2021-11-15T00:09:37.009Z</time>
      </trkpt>
      <trkpt lat="47.491187" lon="7.849815">
        <ele>513.987519</ele>
        <time>2021-11-15T00:10:02.903Z</time>
      </trkpt>
      <trkpt lat="47.492141" lon="7.850226">
        <ele>524.908680</ele>
        <time>2021-11-15T00:11:00.824Z</time>
      </trkpt>
      <trkpt lat="47.492293" lon="7.850293">
        <ele>526.651918</ele>
        <time>2021-11-15T00:11:13.506Z</time>
      </trkpt>
      <trkpt lat="47.492414" lon="7.850375">
        <ele>528.120741</ele>
        <time>2021-11-15T00:11:22.566Z</time>
      </trkpt>
      <trkpt lat="47.492541" lon="7.850563">
        <ele>530.109051</ele>
        <time>2021-11-15T00:11:34.021Z</time>
      </trkpt>
      <trkpt lat="47.492601" lon="7.850751">
        <ele>531.664117</ele>
        <time>2021-11-15T00:11:44.011Z</time>
      </trkpt>
      <trkpt lat="47.492659" lon="7.851591">
        <ele>537.979429</ele>
        <time>2021-11-15T00:12:17.848Z</time>
      </trkpt>
      <trkpt lat="47.492688" lon="7.851670">
        <ele>538.651860</ele>
        <time>2021-11-15T00:12:22.995Z</time>
      </trkpt>
      <trkpt lat="47.492804" lon="7.851886">
        <ele>540.715504</ele>
        <time>2021-11-15T00:12:32.733Z</time>
      </trkpt>
      <trkpt lat="47.492920" lon="7.852087">
        <ele>542.692551</ele>
        <time>2021-11-15T00:12:44.392Z</time>
      </trkpt>
      <trkpt lat="47.493033" lon="7.852285">
        <ele>544.630997</ele>
        <time>2021-11-15T00:12:53.008Z</time>
      </trkpt>
      <trkpt lat="47.493043" lon="7.852307">
        <ele>544.829307</ele>
        <time>2021-11-15T00:12:54.404Z</time>
      </trkpt>
      <trkpt lat="47.493734" lon="7.854034">
        <ele>557.055695</ele>
        <time>2021-11-15T00:13:59.609Z</time>
      </trkpt>
      <trkpt lat="47.494057" lon="7.854507">
        <ele>560.980030</ele>
        <time>2021-11-15T00:14:24.079Z</time>
      </trkpt>
      <trkpt lat="47.494198" lon="7.854677">
        <ele>562.550708</ele>
        <time>2021-11-15T00:14:31.501Z</time>
      </trkpt>
      <trkpt lat="47.494366" lon="7.854877">
        <ele>563.901469</ele>
        <time>2021-11-15T00:14:43.923Z</time>
      </trkpt>
      <trkpt lat="47.494791" lon="7.855375">
        <ele>567.183630</ele>
        <time>2021-11-15T00:15:05.524Z</time>
      </trkpt>
      <trkpt lat="47.494903" lon="7.855508">
        <ele>568.053068</ele>
        <time>2021-11-15T00:15:14.325Z</time>
      </trkpt>
      <trkpt lat="47.495162" lon="7.855728">
        <ele>569.861184</ele>
        <time>2021-11-15T00:15:24.021Z</time>
      </trkpt>
      <trkpt lat="47.495219" lon="7.855764">
        <ele>570.236420</ele>
        <time>2021-11-15T00:15:28.991Z</time>
      </trkpt>
      <trkpt lat="47.495339" lon="7.855822">
        <ele>571.000761</ele>
        <time>2021-11-15T00:15:32.476Z</time>
      </trkpt>
      <trkpt lat="47.495626" lon="7.855911">
        <ele>572.776232</ele>
        <time>2021-11-15T00:15:43.556Z</time>
      </trkpt>
      <trkpt lat="47.495682" lon="7.855928">
        <ele>573.122361</ele>
        <time>2021-11-15T00:15:44.427Z</time>
      </trkpt>
      <trkpt lat="47.495761" lon="7.855963">
        <ele>573.578814</ele>
        <time>2021-11-15T00:15:45.369Z</time>
      </trkpt>
      <trkpt lat="47.495985" lon="7.856090">
        <ele>572.875338</ele>
        <time>2021-11-15T00:15:52.775Z</time>
      </trkpt>
      <trkpt lat="47.496570" lon="7.856657">
        <ele>570.824577</ele>
        <time>2021-11-15T00:16:00.899Z</time>
      </trkpt>
      <trkpt lat="47.496867" lon="7.857284">
        <ele>569.307302</ele>
        <time>2021-11-15T00:16:05.666Z</time>
      </trkpt>
      <trkpt lat="47.497045" lon="7.858131">
        <ele>566.081517</ele>
        <time>2021-11-15T00:16:11.020Z</time>
      </trkpt>
      <trkpt lat="47.497048" lon="7.858142">
        <ele>566.013089</ele>
        <time>2021-11-15T00:16:11.088Z</time>
      </trkpt>
      <trkpt lat="47.497134" lon="7.858395">
        <ele>564.379359</ele>
        <time>2021-11-15T00:16:12.757Z</time>
      </trkpt>
      <trkpt lat="47.497149" lon="7.858438">
        <ele>564.100203</ele>
        <time>2021-11-15T00:16:13.035Z</time>
      </trkpt>
      <trkpt lat="47.497833" lon="7.859414">
        <ele>555.988347</ele>
        <time>2021-11-15T00:16:21.268Z</time>
      </trkpt>
      <trkpt lat="47.497901" lon="7.859533">
        <ele>555.089306</ele>
        <time>2021-11-15T00:16:22.179Z</time>
      </trkpt>
      <trkpt lat="47.498026" lon="7.859791">
        <ele>553.257943</ele>
        <time>2021-11-15T00:16:24.050Z</time>
      </trkpt>
      <trkpt lat="47.498262" lon="7.860571">
        <ele>548.340630</ele>
        <time>2021-11-15T00:16:29.267Z</time>
      </trkpt>
      <trkpt lat="47.498298" lon="7.860778">
        <ele>547.111007</ele>
        <time>2021-11-15T00:16:30.554Z</time>
      </trkpt>
      <trkpt lat="47.498322" lon="7.861024">
        <ele>545.681172</ele>
        <time>2021-11-15T00:16:32.213Z</time>
      </trkpt>
      <trkpt lat="47.498287" lon="7.861611">
        <ele>542.291231</ele>
        <time>2021-11-15T00:16:35.636Z</time>
      </trkpt>
      <trkpt lat="47.497995" lon="7.862394">
        <ele>536.834596</ele>
        <time>2021-11-15T00:16:40.915Z</time>
      </trkpt>
      <trkpt lat="47.497959" lon="7.862857">
        <ele>532.482070</ele>
        <time>2021-11-15T00:16:43.598Z</time>
      </trkpt>
      <trkpt lat="47.497989" lon="7.863021">
        <ele>530.895316</ele>
        <time>2021-11-15T00:16:44.547Z</time>
      </trkpt>
      <trkpt lat="47.498044" lon="7.863155">
        <ele>529.431045</ele>
        <time>2021-11-15T00:16:45.467Z</time>
      </trkpt>
      <trkpt lat="47.498094" lon="7.863239">
        <ele>528.385531</ele>
        <time>2021-11-15T00:16:46.148Z</time>
      </trkpt>
      <trkpt lat="47.498143" lon="7.863313">
        <ele>527.417865</ele>
        <time>2021-11-15T00:16:46.747Z</time>
      </trkpt>
      <trkpt lat="47.498210" lon="7.863375">
        <ele>526.325618</ele>
        <time>2021-11-15T00:16:47.409Z</time>
      </trkpt>
      <trkpt lat="47.498435" lon="7.863451">
        <ele>523.135478</ele>
        <time>2021-11-15T00:16:49.423Z</time>
      </trkpt>
      <trkpt lat="47.498580" lon="7.863425">
        <ele>521.116485</ele>
        <time>2021-11-15T00:16:50.619Z</time>
      </trkpt>
      <trkpt lat="47.498820" lon="7.863196">
        <ele>517.169377</ele>
        <time>2021-11-15T00:16:53.034Z</time>
      </trkpt>
      <trkpt lat="47.499113" lon="7.862818">
        <ele>511.757640</ele>
        <time>2021-11-15T00:16:56.223Z</time>
      </trkpt>
      <trkpt lat="47.499273" lon="7.862595">
        <ele>508.599413</ele>
        <time>2021-11-15T00:16:58.049Z</time>
      </trkpt>
      <trkpt lat="47.499376" lon="7.862501">
        <ele>506.860495</ele>
        <time>2021-11-15T00:16:59.047Z</time>
      </trkpt>
      <trkpt lat="47.499406" lon="7.862482">
        <ele>506.391566</ele>
        <time>2021-11-15T00:16:59.332Z</time>
      </trkpt>
      <trkpt lat="47.499629" lon="7.862416">
        <ele>503.123463</ele>
        <time>2021-11-15T00:17:01.247Z</time>
      </trkpt>
      <trkpt lat="47.499952" lon="7.862524">
        <ele>498.364767</ele>
        <time>2021-11-15T00:17:04.015Z</time>
      </trkpt>
      <trkpt lat="47.500468" lon="7.862843">
        <ele>490.328705</ele>
        <time>2021-11-15T00:17:08.673Z</time>
      </trkpt>
      <trkpt lat="47.501035" lon="7.863348">
        <ele>482.488264</ele>
        <time>2021-11-15T00:17:14.351Z</time>
      </trkpt>
      <trkpt lat="47.501300" lon="7.863507">
        <ele>479.500387</ele>
        <time>2021-11-15T00:17:16.836Z</time>
      </trkpt>
      <trkpt lat="47.501511" lon="7.863635">
        <ele>477.117632</ele>
        <time>2021-11-15T00:17:18.812Z</time>
      </trkpt>
      <trkpt lat="47.501653" lon="7.863755">
        <ele>475.409063</ele>
        <time>2021-11-15T00:17:20.194Z</time>
      </trkpt>
      <trkpt lat="47.501711" lon="7.863821">
        <ele>474.644623</ele>
        <time>2021-11-15T00:17:20.827Z</time>
      </trkpt>
      <trkpt lat="47.501772" lon="7.863893">
        <ele>473.829388</ele>
        <time>2021-11-15T00:17:21.520Z</time>
      </trkpt>
      <trkpt lat="47.501887" lon="7.864052">
        <ele>472.185072</ele>
        <time>2021-11-15T00:17:22.861Z</time>
      </trkpt>
      <trkpt lat="47.502040" lon="7.864236">
        <ele>470.125212</ele>
        <time>2021-11-15T00:17:24.546Z</time>
      </trkpt>
      <trkpt lat="47.502167" lon="7.864327">
        <ele>468.650861</ele>
        <time>2021-11-15T00:17:25.778Z</time>
      </trkpt>
      <trkpt lat="47.502294" lon="7.864417">
        <ele>467.333520</ele>
        <time>2021-11-15T00:17:26.960Z</time>
      </trkpt>
      <trkpt lat="47.502827" lon="7.864774">
        <ele>462.199059</ele>
        <time>2021-11-15T00:17:32.028Z</time>
      </trkpt>
      <trkpt lat="47.502843" lon="7.864785">
        <ele>462.044229</ele>
        <time>2021-11-15T00:17:32.176Z</time>
      </trkpt>
      <trkpt lat="47.502975" lon="7.864876">
        <ele>460.766257</ele>
        <time>2021-11-15T00:17:33.423Z</time>
      </trkpt>
      <trkpt lat="47.503068" lon="7.864937">
        <ele>459.873504</ele>
        <time>2021-11-15T00:17:34.391Z</time>
      </trkpt>
      <trkpt lat="47.503106" lon="7.864958">
        <ele>459.517514</ele>
        <time>2021-11-15T00:17:34.746Z</time>
      </trkpt>
      <trkpt lat="47.503152" lon="7.864980">
        <ele>459.093247</ele>
        <time>2021-11-15T00:17:35.179Z</time>
      </trkpt>
      <trkpt lat="47.503195" lon="7.864995">
        <ele>458.705521</ele>
        <time>2021-11-15T00:17:35.546Z</time>
      </trkpt>
      <trkpt lat="47.503247" lon="7.865009">
        <ele>458.241657</ele>
        <time>2021-11-15T00:17:36.010Z</time>
      </trkpt>
      <trkpt lat="47.503247" lon="7.865009">
        <ele>458.241657</ele>
        <time>2021-11-15T00:17:36.014Z</time>
      </trkpt>
      <trkpt lat="47.503302" lon="7.865016">
        <ele>457.757169</ele>
        <time>2021-11-15T00:17:36.478Z</time>
      </trkpt>
      <trkpt lat="47.503541" lon="7.864958">
        <ele>455.631588</ele>
        <time>2021-11-15T00:17:38.662Z</time>
      </trkpt>
      <trkpt lat="47.503852" lon="7.864881">
        <ele>452.864186</ele>
        <time>2021-11-15T00:17:41.491Z</time>
      </trkpt>
      <trkpt lat="47.504143" lon="7.864781">
        <ele>451.011133</ele>
        <time>2021-11-15T00:17:44.179Z</time>
      </trkpt>
      <trkpt lat="47.504308" lon="7.864735">
        <ele>450.073675</ele>
        <time>2021-11-15T00:17:45.671Z</time>
      </trkpt>
      <trkpt lat="47.504643" lon="7.864558">
        <ele>448.087662</ele>
        <time>2021-11-15T00:17:48.959Z</time>
      </trkpt>
      <trkpt lat="47.504920" lon="7.864294">
        <ele>446.248236</ele>
        <time>2021-11-15T00:17:52.050Z</time>
      </trkpt>
      <trkpt lat="47.504952" lon="7.864282">
        <ele>446.063923</ele>
        <time>2021-11-15T00:17:52.339Z</time>
      </trkpt>
      <trkpt lat="47.504995" lon="7.864288">
        <ele>445.822772</ele>
        <time>2021-11-15T00:17:52.751Z</time>
      </trkpt>
      <trkpt lat="47.505256" lon="7.864486">
        <ele>444.185290</ele>
        <time>2021-11-15T00:17:55.615Z</time>
      </trkpt>
      <trkpt lat="47.505405" lon="7.864527">
        <ele>443.339111</ele>
        <time>2021-11-15T00:17:57.001Z</time>
      </trkpt>
      <trkpt lat="47.505441" lon="7.864505">
        <ele>443.121655</ele>
        <time>2021-11-15T00:17:57.373Z</time>
      </trkpt>
      <trkpt lat="47.505465" lon="7.864478">
        <ele>442.953348</ele>
        <time>2021-11-15T00:17:57.649Z</time>
      </trkpt>
      <trkpt lat="47.505507" lon="7.864261">
        <ele>442.167778</ele>
        <time>2021-11-15T00:17:59.175Z</time>
      </trkpt>
      <trkpt lat="47.505513" lon="7.864163">
        <ele>441.912431</ele>
        <time>2021-11-15T00:17:59.798Z</time>
      </trkpt>
      <trkpt lat="47.505528" lon="7.864048">
        <ele>441.608499</ele>
        <time>2021-11-15T00:18:00.554Z</time>
      </trkpt>
      <trkpt lat="47.505633" lon="7.863539">
        <ele>440.227455</ele>
        <time>2021-11-15T00:18:04.096Z</time>
      </trkpt>
      <trkpt lat="47.505675" lon="7.863444">
        <ele>439.932833</ele>
        <time>2021-11-15T00:18:04.837Z</time>
      </trkpt>
      <trkpt lat="47.505692" lon="7.863406">
        <ele>439.814561</ele>
        <time>2021-11-15T00:18:05.186Z</time>
      </trkpt>
      <trkpt lat="47.505748" lon="7.863314">
        <ele>439.493204</ele>
        <time>2021-11-15T00:18:06.131Z</time>
      </trkpt>
      <trkpt lat="47.505782" lon="7.863270">
        <ele>439.319725</ele>
        <time>2021-11-15T00:18:06.539Z</time>
      </trkpt>
      <trkpt lat="47.506122" lon="7.863012">
        <ele>437.852049</ele>
        <time>2021-11-15T00:18:10.374Z</time>
      </trkpt>
      <trkpt lat="47.506215" lon="7.862947">
        <ele>437.456981</ele>
        <time>2021-11-15T00:18:11.345Z</time>
      </trkpt>
      <trkpt lat="47.506248" lon="7.862922">
        <ele>437.314579</ele>
        <time>2021-11-15T00:18:11.714Z</time>
      </trkpt>
      <trkpt lat="47.506544" lon="7.862713">
        <ele>436.054803</ele>
        <time>2021-11-15T00:18:14.923Z</time>
      </trkpt>
      <trkpt lat="47.506679" lon="7.862634">
        <ele>435.497164</ele>
        <time>2021-11-15T00:18:16.398Z</time>
      </trkpt>
      <trkpt lat="47.507294" lon="7.862232">
        <ele>433.419861</ele>
        <time>2021-11-15T00:18:23.112Z</time>
      </trkpt>
      <trkpt lat="47.507355" lon="7.862189">
        <ele>433.213007</ele>
        <time>2021-11-15T00:18:23.874Z</time>
      </trkpt>
      <trkpt lat="47.507509" lon="7.862078">
        <ele>432.688594</ele>
        <time>2021-11-15T00:18:25.561Z</time>
      </trkpt>
      <trkpt lat="47.507702" lon="7.861899">
        <ele>431.991307</ele>
        <time>2021-11-15T00:18:27.964Z</time>
      </trkpt>
      <trkpt lat="47.507768" lon="7.861796">
        <ele>431.697694</ele>
        <time>2021-11-15T00:18:28.944Z</time>
      </trkpt>
      <trkpt lat="47.507840" lon="7.861638">
        <ele>431.303526</ele>
        <time>2021-11-15T00:18:30.240Z</time>
      </trkpt>
      <trkpt lat="47.507928" lon="7.861309">
        <ele>430.571712</ele>
        <time>2021-11-15T00:18:32.785Z</time>
      </trkpt>
      <trkpt lat="47.508015" lon="7.860357">
        <ele>429.014885</ele>
        <time>2021-11-15T00:18:39.603Z</time>
      </trkpt>
      <trkpt lat="47.508332" lon="7.859103">
        <ele>427.153403</ele>
        <time>2021-11-15T00:18:49.239Z</time>
      </trkpt>
      <trkpt lat="47.508349" lon="7.859039">
        <ele>427.057794</ele>
        <time>2021-11-15T00:18:50.090Z</time>
      </trkpt>
      <trkpt lat="47.508381" lon="7.858911">
        <ele>426.868043</ele>
        <time>2021-11-15T00:18:51.010Z</time>
      </trkpt>
      <trkpt lat="47.508421" lon="7.858745">
        <ele>426.623015</ele>
        <time>2021-11-15T00:18:52.546Z</time>
      </trkpt>
      <trkpt lat="47.508474" lon="7.858558">
        <ele>426.341079</ele>
        <time>2021-11-15T00:18:54.222Z</time>
      </trkpt>
      <trkpt lat="47.508546" lon="7.858348">
        <ele>426.242091</ele>
        <time>2021-11-15T00:18:55.951Z</time>
      </trkpt>
      <trkpt lat="47.508916" lon="7.857621">
        <ele>426.572417</ele>
        <time>2021-11-15T00:19:04.426Z</time>
      </trkpt>
      <trkpt lat="47.509118" lon="7.857296">
        <ele>426.732689</ele>
        <time>2021-11-15T00:19:09.749Z</time>
      </trkpt>
      <trkpt lat="47.509242" lon="7.857142">
        <ele>426.819643</ele>
        <time>2021-11-15T00:19:12.520Z</time>
      </trkpt>
      <trkpt lat="47.509612" lon="7.856783">
        <ele>427.057309</ele>
        <time>2021-11-15T00:19:21.706Z</time>
      </trkpt>
      <trkpt lat="47.509866" lon="7.856623">
        <ele>427.309070</ele>
        <time>2021-11-15T00:19:28.174Z</time>
      </trkpt>
      <trkpt lat="47.510645" lon="7.856175">
        <ele>428.802020</ele>
        <time>2021-11-15T00:19:48.706Z</time>
      </trkpt>
      <trkpt lat="47.512091" lon="7.855323">
        <ele>430.672145</ele>
        <time>2021-11-15T00:20:20.222Z</time>
      </trkpt>
      <trkpt lat="47.512545" lon="7.855000">
        <ele>430.894018</ele>
        <time>2021-11-15T00:20:28.344Z</time>
      </trkpt>
      <trkpt lat="47.512998" lon="7.854574">
        <ele>431.130408</ele>
        <time>2021-11-15T00:20:36.077Z</time>
      </trkpt>
      <trkpt lat="47.513025" lon="7.854549">
        <ele>431.144436</ele>
        <time>2021-11-15T00:20:36.373Z</time>
      </trkpt>
      <trkpt lat="47.513112" lon="7.854470">
        <ele>431.072944</ele>
        <time>2021-11-15T00:20:37.877Z</time>
      </trkpt>
      <trkpt lat="47.513384" lon="7.854250">
        <ele>430.512870</ele>
        <time>2021-11-15T00:20:41.800Z</time>
      </trkpt>
      <trkpt lat="47.513406" lon="7.854237">
        <ele>430.470065</ele>
        <time>2021-11-15T00:20:42.071Z</time>
      </trkpt>
      <trkpt lat="47.513486" lon="7.854188">
        <ele>430.313621</ele>
        <time>2021-11-15T00:20:43.936Z</time>
      </trkpt>
      <trkpt lat="47.514548" lon="7.853897">
        <ele>428.361961</ele>
        <time>2021-11-15T00:20:55.987Z</time>
      </trkpt>
      <trkpt lat="47.515319" lon="7.853580">
        <ele>424.833076</ele>
        <time>2021-11-15T00:21:03.915Z</time>
      </trkpt>
      <trkpt lat="47.516157" lon="7.853414">
        <ele>420.124084</ele>
        <time>2021-11-15T00:21:11.681Z</time>
      </trkpt>
      <trkpt lat="47.517407" lon="7.852910">
        <ele>411.219604</ele>
        <time>2021-11-15T00:21:23.166Z</time>
      </trkpt>
      <trkpt lat="47.518274" lon="7.852715">
        <ele>404.682215</ele>
        <time>2021-11-15T00:21:30.999Z</time>
      </trkpt>
      <trkpt lat="47.518338" lon="7.852687">
        <ele>404.228381</ele>
        <time>2021-11-15T00:21:31.595Z</time>
      </trkpt>
      <trkpt lat="47.518404" lon="7.852651">
        <ele>403.779018</ele>
        <time>2021-11-15T00:21:32.191Z</time>
      </trkpt>
      <trkpt lat="47.519059" lon="7.852195">
        <ele>399.154886</ele>
        <time>2021-11-15T00:21:38.745Z</time>
      </trkpt>
      <trkpt lat="47.519998" lon="7.851794">
        <ele>392.926515</ele>
        <time>2021-11-15T00:21:47.732Z</time>
      </trkpt>
      <trkpt lat="47.520894" lon="7.851134">
        <ele>387.646052</ele>
        <time>2021-11-15T00:21:57.060Z</time>
      </trkpt>
      <trkpt lat="47.521382" lon="7.850770">
        <ele>384.762859</ele>
        <time>2021-11-15T00:22:02.151Z</time>
      </trkpt>
      <trkpt lat="47.521526" lon="7.850659">
        <ele>383.906250</ele>
        <time>2021-11-15T00:22:03.722Z</time>
      </trkpt>
      <trkpt lat="47.521788" lon="7.850457">
        <ele>382.631720</ele>
        <time>2021-11-15T00:22:06.526Z</time>
      </trkpt>
      <trkpt lat="47.521905" lon="7.850364">
        <ele>382.102560</ele>
        <time>2021-11-15T00:22:07.809Z</time>
      </trkpt>
      <trkpt lat="47.522016" lon="7.850249">
        <ele>381.562721</ele>
        <time>2021-11-15T00:22:09.073Z</time>
      </trkpt>
      <trkpt lat="47.522383" lon="7.849771">
        <ele>379.615049</ele>
        <time>2021-11-15T00:22:13.830Z</time>
      </trkpt>
      <trkpt lat="47.523462" lon="7.848071">
        <ele>374.276485</ele>
        <time>2021-11-15T00:22:29.690Z</time>
      </trkpt>
      <trkpt lat="47.523494" lon="7.848012">
        <ele>374.136547</ele>
        <time>2021-11-15T00:22:30.214Z</time>
      </trkpt>
      <trkpt lat="47.523555" lon="7.847886">
        <ele>373.849853</ele>
        <time>2021-11-15T00:22:31.281Z</time>
      </trkpt>
      <trkpt lat="47.523686" lon="7.847545">
        <ele>373.124371</ele>
        <time>2021-11-15T00:22:34.117Z</time>
      </trkpt>
      <trkpt lat="47.523802" lon="7.847022">
        <ele>372.106401</ele>
        <time>2021-11-15T00:22:38.067Z</time>
      </trkpt>
      <trkpt lat="47.523835" lon="7.846794">
        <ele>371.675206</ele>
        <time>2021-11-15T00:22:39.736Z</time>
      </trkpt>
      <trkpt lat="47.523853" lon="7.846641">
        <ele>371.402558</ele>
        <time>2021-11-15T00:22:40.881Z</time>
      </trkpt>
      <trkpt lat="47.524021" lon="7.844415">
        <ele>369.469572</ele>
        <time>2021-11-15T00:22:58.369Z</time>
      </trkpt>
      <trkpt lat="47.524038" lon="7.844197">
        <ele>369.280189</ele>
        <time>2021-11-15T00:23:00.326Z</time>
      </trkpt>
      <trkpt lat="47.524060" lon="7.843958">
        <ele>369.101231</ele>
        <time>2021-11-15T00:23:02.998Z</time>
      </trkpt>
      <trkpt lat="47.524194" lon="7.842950">
        <ele>368.794751</ele>
        <time>2021-11-15T00:23:12.890Z</time>
      </trkpt>
      <trkpt lat="47.524379" lon="7.841758">
        <ele>368.429881</ele>
        <time>2021-11-15T00:23:24.237Z</time>
      </trkpt>
      <trkpt lat="47.524396" lon="7.841663">
        <ele>368.400562</ele>
        <time>2021-11-15T00:23:25.103Z</time>
      </trkpt>
      <trkpt lat="47.524496" lon="7.841003">
        <ele>367.845820</ele>
        <time>2021-11-15T00:23:30.792Z</time>
      </trkpt>
      <trkpt lat="47.524543" lon="7.840592">
        <ele>367.365454</ele>
        <time>2021-11-15T00:23:34.170Z</time>
      </trkpt>
      <trkpt lat="47.524580" lon="7.840241">
        <ele>366.956076</ele>
        <time>2021-11-15T00:23:36.883Z</time>
      </trkpt>
      <trkpt lat="47.524591" lon="7.839934">
        <ele>366.601802</ele>
        <time>2021-11-15T00:23:39.264Z</time>
      </trkpt>
      <trkpt lat="47.524599" lon="7.839536">
        <ele>366.142958</ele>
        <time>2021-11-15T00:23:42.211Z</time>
      </trkpt>
      <trkpt lat="47.524607" lon="7.839320">
        <ele>365.893674</ele>
        <time>2021-11-15T00:23:43.719Z</time>
      </trkpt>
      <trkpt lat="47.524625" lon="7.839029">
        <ele>365.556932</ele>
        <time>2021-11-15T00:23:45.861Z</time>
      </trkpt>
      <trkpt lat="47.524643" lon="7.838749">
        <ele>365.218677</ele>
        <time>2021-11-15T00:23:47.812Z</time>
      </trkpt>
      <trkpt lat="47.524669" lon="7.838491">
        <ele>364.703943</ele>
        <time>2021-11-15T00:23:49.715Z</time>
      </trkpt>
      <trkpt lat="47.524759" lon="7.837961">
        <ele>363.625566</ele>
        <time>2021-11-15T00:23:53.591Z</time>
      </trkpt>
      <trkpt lat="47.525838" lon="7.833881">
        <ele>354.723728</ele>
        <time>2021-11-15T00:24:23.686Z</time>
      </trkpt>
      <trkpt lat="47.525904" lon="7.833621">
        <ele>354.229813</ele>
        <time>2021-11-15T00:24:25.664Z</time>
      </trkpt>
      <trkpt lat="47.525964" lon="7.833378">
        <ele>353.828679</ele>
        <time>2021-11-15T00:24:27.470Z</time>
      </trkpt>
      <trkpt lat="47.526147" lon="7.832235">
        <ele>352.007488</ele>
        <time>2021-11-15T00:24:35.851Z</time>
      </trkpt>
      <trkpt lat="47.526239" lon="7.831314">
        <ele>350.564071</ele>
        <time>2021-11-15T00:24:42.746Z</time>
      </trkpt>
      <trkpt lat="47.526298" lon="7.830666">
        <ele>349.847922</ele>
        <time>2021-11-15T00:24:47.877Z</time>
      </trkpt>
      <trkpt lat="47.526355" lon="7.830057">
        <ele>349.252393</ele>
        <time>2021-11-15T00:24:52.756Z</time>
      </trkpt>
      <trkpt lat="47.526430" lon="7.829316">
        <ele>348.526628</ele>
        <time>2021-11-15T00:24:58.754Z</time>
      </trkpt>
      <trkpt lat="47.526641" lon="7.828028">
        <ele>347.164505</ele>
        <time>2021-11-15T00:25:09.053Z</time>
      </trkpt>
      <trkpt lat="47.526684" lon="7.827311">
        <ele>346.362309</ele>
        <time>2021-11-15T00:25:14.691Z</time>
      </trkpt>
      <trkpt lat="47.526680" lon="7.826905">
        <ele>345.909799</ele>
        <time>2021-11-15T00:25:17.812Z</time>
      </trkpt>
      <trkpt lat="47.526676" lon="7.826583">
        <ele>345.550890</ele>
        <time>2021-11-15T00:25:20.246Z</time>
      </trkpt>
      <trkpt lat="47.526690" lon="7.825476">
        <ele>344.166571</ele>
        <time>2021-11-15T00:25:28.569Z</time>
      </trkpt>
      <trkpt lat="47.526987" lon="7.822298">
        <ele>339.575755</ele>
        <time>2021-11-15T00:25:51.837Z</time>
      </trkpt>
      <trkpt lat="47.527033" lon="7.821923">
        <ele>339.060434</ele>
        <time>2021-11-15T00:25:54.675Z</time>
      </trkpt>
      <trkpt lat="47.527110" lon="7.821342">
        <ele>338.259900</ele>
        <time>2021-11-15T00:25:59.116Z</time>
      </trkpt>
      <trkpt lat="47.527128" lon="7.821204">
        <ele>338.069867</ele>
        <time>2021-11-15T00:26:00.124Z</time>
      </trkpt>
      <trkpt lat="47.527223" lon="7.820442">
        <ele>337.051351</ele>
        <time>2021-11-15T00:26:06.161Z</time>
      </trkpt>
      <trkpt lat="47.527258" lon="7.820150">
        <ele>336.693993</ele>
        <time>2021-11-15T00:26:08.310Z</time>
      </trkpt>
      <trkpt lat="47.527283" lon="7.819942">
        <ele>336.439416</ele>
        <time>2021-11-15T00:26:10.058Z</time>
      </trkpt>
      <trkpt lat="47.527327" lon="7.819619">
        <ele>336.042363</ele>
        <time>2021-11-15T00:26:12.428Z</time>
      </trkpt>
      <trkpt lat="47.527349" lon="7.819451">
        <ele>335.836154</ele>
        <time>2021-11-15T00:26:13.938Z</time>
      </trkpt>
      <trkpt lat="47.527408" lon="7.818945">
        <ele>335.217406</ele>
        <time>2021-11-15T00:26:17.865Z</time>
      </trkpt>
      <trkpt lat="47.527455" lon="7.818544">
        <ele>334.726982</ele>
        <time>2021-11-15T00:26:20.890Z</time>
      </trkpt>
      <trkpt lat="47.527466" lon="7.818406">
        <ele>334.559539</ele>
        <time>2021-11-15T00:26:22.058Z</time>
      </trkpt>
      <trkpt lat="47.527477" lon="7.818068">
        <ele>334.151782</ele>
        <time>2021-11-15T00:26:24.482Z</time>
      </trkpt>
      <trkpt lat="47.527477" lon="7.817911">
        <ele>333.936993</ele>
        <time>2021-11-15T00:26:25.705Z</time>
      </trkpt>
      <trkpt lat="47.527471" lon="7.817746">
        <ele>333.694663</ele>
        <time>2021-11-15T00:26:26.929Z</time>
      </trkpt>
      <trkpt lat="47.527432" lon="7.817173">
        <ele>332.850079</ele>
        <time>2021-11-15T00:26:31.068Z</time>
      </trkpt>
      <trkpt lat="47.527388" lon="7.816407">
        <ele>331.722652</ele>
        <time>2021-11-15T00:26:36.630Z</time>
      </trkpt>
      <trkpt lat="47.527376" lon="7.816175">
        <ele>331.381418</ele>
        <time>2021-11-15T00:26:38.299Z</time>
      </trkpt>
      <trkpt lat="47.527366" lon="7.816038">
        <ele>331.179331</ele>
        <time>2021-11-15T00:26:39.315Z</time>
      </trkpt>
      <trkpt lat="47.527362" lon="7.815959">
        <ele>331.063149</ele>
        <time>2021-11-15T00:26:39.926Z</time>
      </trkpt>
      <trkpt lat="47.527361" lon="7.815943">
        <ele>331.039584</ele>
        <time>2021-11-15T00:26:40.051Z</time>
      </trkpt>
      <trkpt lat="47.527346" lon="7.815799">
        <ele>330.825904</ele>
        <time>2021-11-15T00:26:41.071Z</time>
      </trkpt>
      <trkpt lat="47.527320" lon="7.815661">
        <ele>330.615791</ele>
        <time>2021-11-15T00:26:42.117Z</time>
      </trkpt>
      <trkpt lat="47.527292" lon="7.815550">
        <ele>330.442017</ele>
        <time>2021-11-15T00:26:42.980Z</time>
      </trkpt>
      <trkpt lat="47.527206" lon="7.815349">
        <ele>330.121034</ele>
        <time>2021-11-15T00:26:44.704Z</time>
      </trkpt>
      <trkpt lat="47.527153" lon="7.815269">
        <ele>330.013410</ele>
        <time>2021-11-15T00:26:45.504Z</time>
      </trkpt>
      <trkpt lat="47.527105" lon="7.815211">
        <ele>329.925309</ele>
        <time>2021-11-15T00:26:46.228Z</time>
      </trkpt>
      <trkpt lat="47.526665" lon="7.814850">
        <ele>329.209960</ele>
        <time>2021-11-15T00:26:51.965Z</time>
      </trkpt>
      <trkpt lat="47.526655" lon="7.814822">
        <ele>329.179543</ele>
        <time>2021-11-15T00:26:52.229Z</time>
      </trkpt>
      <trkpt lat="47.526652" lon="7.814787">
        <ele>329.145663</ele>
        <time>2021-11-15T00:26:52.456Z</time>
      </trkpt>
      <trkpt lat="47.526961" lon="7.813898">
        <ele>328.185505</ele>
        <time>2021-11-15T00:27:00.642Z</time>
      </trkpt>
      <trkpt lat="47.526991" lon="7.813710">
        <ele>327.999999</ele>
        <time>2021-11-15T00:27:02.082Z</time>
      </trkpt>
      <trkpt lat="47.527017" lon="7.813562">
        <ele>327.853146</ele>
        <time>2021-11-15T00:27:05.826Z</time>
      </trkpt>
      <trkpt lat="47.527029" lon="7.813504">
        <ele>327.794894</ele>
        <time>2021-11-15T00:27:07.326Z</time>
      </trkpt>
      <trkpt lat="47.527062" lon="7.813419">
        <ele>327.700740</ele>
        <time>2021-11-15T00:27:09.783Z</time>
      </trkpt>
      <trkpt lat="47.527100" lon="7.813322">
        <ele>327.598558</ele>
        <time>2021-11-15T00:27:12.178Z</time>
      </trkpt>
      <trkpt lat="47.527132" lon="7.813271">
        <ele>327.547599</ele>
        <time>2021-11-15T00:27:13.653Z</time>
      </trkpt>
      <trkpt lat="47.527245" lon="7.813136">
        <ele>327.390219</ele>
        <time>2021-11-15T00:27:18.618Z</time>
      </trkpt>
      <trkpt lat="47.527344" lon="7.813003">
        <ele>327.245327</ele>
        <time>2021-11-15T00:27:23.346Z</time>
      </trkpt>
      <trkpt lat="47.527405" lon="7.812921">
        <ele>327.156026</ele>
        <time>2021-11-15T00:27:25.865Z</time>
      </trkpt>
      <trkpt lat="47.527523" lon="7.812743">
        <ele>326.973443</ele>
        <time>2021-11-15T00:27:31.626Z</time>
      </trkpt>
      <trkpt lat="47.527551" lon="7.812698">
        <ele>326.928653</ele>
        <time>2021-11-15T00:27:33.178Z</time>
      </trkpt>
      <trkpt lat="47.527992" lon="7.811882">
        <ele>326.163633</ele>
        <time>2021-11-15T00:27:56.667Z</time>
      </trkpt>
      <trkpt lat="47.528071" lon="7.811726">
        <ele>326.020904</ele>
        <time>2021-11-15T00:28:01.170Z</time>
      </trkpt>
      <trkpt lat="47.528166" lon="7.811494">
        <ele>325.822308</ele>
        <time>2021-11-15T00:28:07.281Z</time>
      </trkpt>
      <trkpt lat="47.528222" lon="7.811345">
        <ele>325.697492</ele>
        <time>2021-11-15T00:28:11.193Z</time>
      </trkpt>
      <trkpt lat="47.528485" lon="7.810633">
        <ele>325.209069</ele>
        <time>2021-11-15T00:28:29.617Z</time>
      </trkpt>
      <trkpt lat="47.528551" lon="7.810479">
        <ele>325.100604</ele>
        <time>2021-11-15T00:28:33.550Z</time>
      </trkpt>
      <trkpt lat="47.528632" lon="7.810311">
        <ele>324.977848</ele>
        <time>2021-11-15T00:28:38.337Z</time>
      </trkpt>
      <trkpt lat="47.528791" lon="7.810026">
        <ele>324.758008</ele>
        <time>2021-11-15T00:28:41.198Z</time>
      </trkpt>
      <trkpt lat="47.528913" lon="7.809814">
        <ele>324.592368</ele>
        <time>2021-11-15T00:28:43.636Z</time>
      </trkpt>
      <trkpt lat="47.529057" lon="7.809561">
        <ele>324.395602</ele>
        <time>2021-11-15T00:28:46.331Z</time>
      </trkpt>
      <trkpt lat="47.529100" lon="7.809485">
        <ele>324.336641</ele>
        <time>2021-11-15T00:28:47.327Z</time>
      </trkpt>
      <trkpt lat="47.529208" lon="7.809338">
        <ele>324.207460</ele>
        <time>2021-11-15T00:28:49.174Z</time>
      </trkpt>
      <trkpt lat="47.529274" lon="7.809267">
        <ele>324.135620</ele>
        <time>2021-11-15T00:28:50.153Z</time>
      </trkpt>
      <trkpt lat="47.529336" lon="7.809212">
        <ele>324.087102</ele>
        <time>2021-11-15T00:28:51.841Z</time>
      </trkpt>
      <trkpt lat="47.529513" lon="7.809105">
        <ele>324.161509</ele>
        <time>2021-11-15T00:28:54.395Z</time>
      </trkpt>
      <trkpt lat="47.529594" lon="7.809061">
        <ele>324.195088</ele>
        <time>2021-11-15T00:28:55.407Z</time>
      </trkpt>
      <trkpt lat="47.529966" lon="7.808858">
        <ele>324.349388</ele>
        <time>2021-11-15T00:29:02.108Z</time>
      </trkpt>
      <trkpt lat="47.530041" lon="7.808819">
        <ele>324.380325</ele>
        <time>2021-11-15T00:29:03.898Z</time>
      </trkpt>
      <trkpt lat="47.530543" lon="7.808552">
        <ele>324.587923</ele>
        <time>2021-11-15T00:29:12.646Z</time>
      </trkpt>
      <trkpt lat="47.530585" lon="7.808529">
        <ele>324.605352</ele>
        <time>2021-11-15T00:29:13.163Z</time>
      </trkpt>
      <trkpt lat="47.530684" lon="7.808469">
        <ele>324.646984</ele>
        <time>2021-11-15T00:29:15.725Z</time>
      </trkpt>
      <trkpt lat="47.531066" lon="7.808197">
        <ele>324.777262</ele>
        <time>2021-11-15T00:29:23.277Z</time>
      </trkpt>
      <trkpt lat="47.531380" lon="7.807943">
        <ele>324.752462</ele>
        <time>2021-11-15T00:29:29.581Z</time>
      </trkpt>
      <trkpt lat="47.531735" lon="7.807655">
        <ele>324.724405</ele>
        <time>2021-11-15T00:29:35.762Z</time>
      </trkpt>
      <trkpt lat="47.532412" lon="7.807037">
        <ele>324.669280</ele>
        <time>2021-11-15T00:29:46.643Z</time>
      </trkpt>
      <trkpt lat="47.532581" lon="7.806843">
        <ele>324.612075</ele>
        <time>2021-11-15T00:29:49.466Z</time>
      </trkpt>
      <trkpt lat="47.532546" lon="7.806703">
        <ele>324.517243</ele>
        <time>2021-11-15T00:29:51.107Z</time>
      </trkpt>
      <trkpt lat="47.533091" lon="7.806305">
        <ele>323.945552</ele>
        <time>2021-11-15T00:30:01.566Z</time>
      </trkpt>
      <trkpt lat="47.533723" lon="7.806018">
        <ele>323.323628</ele>
        <time>2021-11-15T00:30:12.652Z</time>
      </trkpt>
      <trkpt lat="47.534648" lon="7.805785">
        <ele>322.911310</ele>
        <time>2021-11-15T00:30:29.896Z</time>
      </trkpt>
      <trkpt lat="47.534894" lon="7.805725">
        <ele>322.887037</ele>
        <time>2021-11-15T00:30:34.637Z</time>
      </trkpt>
      <trkpt lat="47.535092" lon="7.805671">
        <ele>322.867435</ele>
        <time>2021-11-15T00:30:39.001Z</time>
      </trkpt>
      <trkpt lat="47.535828" lon="7.805308">
        <ele>322.791910</ele>
        <time>2021-11-15T00:30:55.246Z</time>
      </trkpt>
      <trkpt lat="47.536875" lon="7.804558">
        <ele>322.899988</ele>
        <time>2021-11-15T00:31:21.178Z</time>
      </trkpt>
      <trkpt lat="47.537755" lon="7.803639">
        <ele>322.576143</ele>
        <time>2021-11-15T00:31:41.316Z</time>
      </trkpt>
      <trkpt lat="47.538164" lon="7.803170">
        <ele>322.108306</ele>
        <time>2021-11-15T00:31:50.463Z</time>
      </trkpt>
      <trkpt lat="47.538256" lon="7.803059">
        <ele>322.000982</ele>
        <time>2021-11-15T00:31:52.301Z</time>
      </trkpt>
      <trkpt lat="47.540006" lon="7.800680">
        <ele>320.105274</ele>
        <time>2021-11-15T00:32:33.195Z</time>
      </trkpt>
      <trkpt lat="47.540192" lon="7.800458">
        <ele>320.063422</ele>
        <time>2021-11-15T00:32:37.741Z</time>
      </trkpt>
      <trkpt lat="47.540260" lon="7.800353">
        <ele>320.159904</ele>
        <time>2021-11-15T00:32:40.806Z</time>
      </trkpt>
      <trkpt lat="47.540644" lon="7.800163">
        <ele>320.557569</ele>
        <time>2021-11-15T00:32:50.602Z</time>
      </trkpt>
      <trkpt lat="47.540897" lon="7.800171">
        <ele>320.806133</ele>
        <time>2021-11-15T00:32:56.769Z</time>
      </trkpt>
      <trkpt lat="47.541705" lon="7.800028">
        <ele>321.605428</ele>
        <time>2021-11-15T00:33:18.541Z</time>
      </trkpt>
      <trkpt lat="47.542307" lon="7.799830">
        <ele>320.964594</ele>
        <time>2021-11-15T00:33:33.515Z</time>
      </trkpt>
      <trkpt lat="47.542998" lon="7.799859">
        <ele>319.799148</ele>
        <time>2021-11-15T00:33:45.744Z</time>
      </trkpt>
      <trkpt lat="47.544071" lon="7.799629">
        <ele>316.105732</ele>
        <time>2021-11-15T00:34:00.666Z</time>
      </trkpt>
      <trkpt lat="47.544184" lon="7.799620">
        <ele>315.439462</ele>
        <time>2021-11-15T00:34:02.055Z</time>
      </trkpt>
      <trkpt lat="47.544345" lon="7.799570">
        <ele>314.470939</ele>
        <time>2021-11-15T00:34:04.250Z</time>
      </trkpt>
      <trkpt lat="47.544568" lon="7.799371">
        <ele>312.938179</ele>
        <time>2021-11-15T00:34:07.607Z</time>
      </trkpt>
      <trkpt lat="47.544749" lon="7.799388">
        <ele>311.870367</ele>
        <time>2021-11-15T00:34:10.049Z</time>
      </trkpt>
      <trkpt lat="47.544827" lon="7.799356">
        <ele>311.393843</ele>
        <time>2021-11-15T00:34:11.031Z</time>
      </trkpt>
      <trkpt lat="47.545096" lon="7.799250">
        <ele>309.754984</ele>
        <time>2021-11-15T00:34:14.750Z</time>
      </trkpt>
      <trkpt lat="47.545182" lon="7.799205">
        <ele>309.217987</ele>
        <time>2021-11-15T00:34:15.847Z</time>
      </trkpt>
      <trkpt lat="47.545396" lon="7.798977">
        <ele>307.834512</ele>
        <time>2021-11-15T00:34:19.388Z</time>
      </trkpt>
      <trkpt lat="47.545449" lon="7.798705">
        <ele>307.117960</ele>
        <time>2021-11-15T00:34:21.790Z</time>
      </trkpt>
      <trkpt lat="47.545511" lon="7.798680">
        <ele>306.877025</ele>
        <time>2021-11-15T00:34:22.621Z</time>
      </trkpt>
      <trkpt lat="47.545581" lon="7.798713">
        <ele>306.601580</ele>
        <time>2021-11-15T00:34:23.658Z</time>
      </trkpt>
      <trkpt lat="47.545731" lon="7.798810">
        <ele>305.987885</ele>
        <time>2021-11-15T00:34:25.865Z</time>
      </trkpt>
      <trkpt lat="47.545807" lon="7.798846">
        <ele>305.688700</ele>
        <time>2021-11-15T00:34:26.973Z</time>
      </trkpt>
      <trkpt lat="47.546418" lon="7.798980">
        <ele>303.372697</ele>
        <time>2021-11-15T00:34:35.820Z</time>
      </trkpt>
      <trkpt lat="47.547540" lon="7.799538">
        <ele>300.971208</ele>
        <time>2021-11-15T00:34:55.544Z</time>
      </trkpt>
      <trkpt lat="47.547912" lon="7.799646">
        <ele>300.730809</ele>
        <time>2021-11-15T00:35:02.925Z</time>
      </trkpt>
      <trkpt lat="47.548459" lon="7.799691">
        <ele>300.383382</ele>
        <time>2021-11-15T00:35:13.853Z</time>
      </trkpt>
      <trkpt lat="47.548535" lon="7.799720">
        <ele>300.333612</ele>
        <time>2021-11-15T00:35:15.349Z</time>
      </trkpt>
      <trkpt lat="47.548514" lon="7.799795">
        <ele>300.298856</ele>
        <time>2021-11-15T00:35:16.423Z</time>
      </trkpt>
      <trkpt lat="47.548519" lon="7.799896">
        <ele>300.255508</ele>
        <time>2021-11-15T00:35:17.790Z</time>
      </trkpt>
      <trkpt lat="47.548545" lon="7.800404">
        <ele>300.216023</ele>
        <time>2021-11-15T00:35:24.578Z</time>
      </trkpt>
      <trkpt lat="47.548560" lon="7.800672">
        <ele>300.199922</ele>
        <time>2021-11-15T00:35:28.275Z</time>
      </trkpt>
      <trkpt lat="47.548569" lon="7.800838">
        <ele>300.189952</ele>
        <time>2021-11-15T00:35:30.503Z</time>
      </trkpt>
      <trkpt lat="47.548576" lon="7.800968">
        <ele>300.182143</ele>
        <time>2021-11-15T00:35:32.296Z</time>
      </trkpt>
      <trkpt lat="47.548596" lon="7.801213">
        <ele>300.167368</ele>
        <time>2021-11-15T00:35:35.672Z</time>
      </trkpt>
      <trkpt lat="47.548607" lon="7.801690">
        <ele>300.138792</ele>
        <time>2021-11-15T00:35:42.188Z</time>
      </trkpt>
      <trkpt lat="47.548613" lon="7.801827">
        <ele>300.130572</ele>
        <time>2021-11-15T00:35:43.985Z</time>
      </trkpt>
      <trkpt lat="47.548626" lon="7.802129">
        <ele>300.112454</ele>
        <time>2021-11-15T00:35:48.112Z</time>
      </trkpt>
      <trkpt lat="47.548877" lon="7.802168">
        <ele>300.090067</ele>
        <time>2021-11-15T00:35:53.084Z</time>
      </trkpt>
      <trkpt lat="47.549410" lon="7.802226">
        <ele>299.938061</ele>
        <time>2021-11-15T00:36:03.515Z</time>
      </trkpt>
      <trkpt lat="47.549481" lon="7.802234">
        <ele>299.916329</ele>
        <time>2021-11-15T00:36:04.832Z</time>
      </trkpt>
      <trkpt lat="47.549879" lon="7.802247">
        <ele>299.794830</ele>
        <time>2021-11-15T00:36:12.295Z</time>
      </trkpt>
      <trkpt lat="47.550146" lon="7.802262">
        <ele>299.713283</ele>
        <time>2021-11-15T00:36:17.398Z</time>
      </trkpt>
      <trkpt lat="47.550134" lon="7.803051">
        <ele>299.550712</ele>
        <time>2021-11-15T00:36:27.622Z</time>
      </trkpt>
      <trkpt lat="47.550196" lon="7.803120">
        <ele>299.534783</ele>
        <time>2021-11-15T00:36:29.081Z</time>
      </trkpt>
      <trkpt lat="47.550981" lon="7.803132">
        <ele>299.489834</ele>
        <time>2021-11-15T00:36:43.728Z</time>
      </trkpt>
      <trkpt lat="47.551163" lon="7.803129">
        <ele>299.479413</ele>
        <time>2021-11-15T00:36:47.131Z</time>
      </trkpt>
      <trkpt lat="47.551598" lon="7.803160">
        <ele>299.454477</ele>
        <time>2021-11-15T00:36:55.723Z</time>
      </trkpt>
      <trkpt lat="47.551666" lon="7.803144">
        <ele>299.450535</ele>
        <time>2021-11-15T00:37:00.468Z</time>
      </trkpt>
      <trkpt lat="47.551732" lon="7.803125">
        <ele>299.446685</ele>
        <time>2021-11-15T00:37:05.135Z</time>
      </trkpt>
      <trkpt lat="47.551744" lon="7.803277">
        <ele>299.440771</ele>
        <time>2021-11-15T00:37:06.829Z</time>
      </trkpt>
      <trkpt lat="47.551751" lon="7.803369">
        <ele>299.437193</ele>
        <time>2021-11-15T00:37:07.903Z</time>
      </trkpt>
      <trkpt lat="47.551692" lon="7.803510">
        <ele>299.471915</ele>
        <time>2021-11-15T00:37:10.492Z</time>
      </trkpt>
      <trkpt lat="47.551741" lon="7.804294">
        <ele>299.888047</ele>
        <time>2021-11-15T00:37:23.507Z</time>
      </trkpt>
      <trkpt lat="47.551744" lon="7.804473">
        <ele>299.982681</ele>
        <time>2021-11-15T00:37:26.031Z</time>
      </trkpt>
      <trkpt lat="47.551731" lon="7.804667">
        <ele>300.085718</ele>
        <time>2021-11-15T00:37:30.007Z</time>
      </trkpt>
      <trkpt lat="47.551709" lon="7.805000">
        <ele>300.262556</ele>
        <time>2021-11-15T00:37:34.502Z</time>
      </trkpt>
      <trkpt lat="47.551681" lon="7.805477">
        <ele>300.515612</ele>
        <time>2021-11-15T00:37:42.239Z</time>
      </trkpt>
      <trkpt lat="47.551676" lon="7.805817">
        <ele>300.695352</ele>
        <time>2021-11-15T00:37:48.130Z</time>
      </trkpt>
      <trkpt lat="47.551671" lon="7.806117">
        <ele>300.840876</ele>
        <time>2021-11-15T00:37:52.328Z</time>
      </trkpt>
      <trkpt lat="47.551651" lon="7.806246">
        <ele>300.833878</ele>
        <time>2021-11-15T00:37:55.227Z</time>
      </trkpt>
      <trkpt lat="47.551895" lon="7.806278">
        <ele>300.814691</ele>
        <time>2021-11-15T00:37:58.756Z</time>
      </trkpt>
      <trkpt lat="47.552015" lon="7.806307">
        <ele>300.805167</ele>
        <time>2021-11-15T00:38:01.622Z</time>
      </trkpt>
      <trkpt lat="47.552068" lon="7.806445">
        <ele>300.796772</ele>
        <time>2021-11-15T00:38:03.079Z</time>
      </trkpt>
      <trkpt lat="47.552398" lon="7.808880">
        <ele>300.406819</ele>
        <time>2021-11-15T00:38:25.226Z</time>
      </trkpt>
      <trkpt lat="47.552566" lon="7.810386">
        <ele>299.741519</ele>
        <time>2021-11-15T00:38:38.237Z</time>
      </trkpt>
      <trkpt lat="47.552711" lon="7.812955">
        <ele>298.691872</ele>
        <time>2021-11-15T00:39:01.022Z</time>
      </trkpt>
      <trkpt lat="47.552795" lon="7.815142">
        <ele>298.418824</ele>
        <time>2021-11-15T00:39:20.394Z</time>
      </trkpt>
      <trkpt lat="47.552844" lon="7.816432">
        <ele>298.662975</ele>
        <time>2021-11-15T00:39:35.493Z</time>
      </trkpt>
      <trkpt lat="47.552368" lon="7.816478">
        <ele>299.395135</ele>
        <time>2021-11-15T00:39:47.775Z</time>
      </trkpt>
      <trkpt lat="47.551537" lon="7.816539">
        <ele>300.672193</ele>
        <time>2021-11-15T00:40:11.363Z</time>
      </trkpt>
      <trkpt lat="47.550839" lon="7.816590">
        <ele>301.351280</ele>
        <time>2021-11-15T00:40:30.046Z</time>
      </trkpt>
      <trkpt lat="47.550457" lon="7.816559">
        <ele>301.552074</ele>
        <time>2021-11-15T00:40:39.473Z</time>
      </trkpt>
      <trkpt lat="47.550240" lon="7.817600">
        <ele>301.938031</ele>
        <time>2021-11-15T00:40:54.920Z</time>
      </trkpt>
      <trkpt lat="47.549870" lon="7.819908">
        <ele>301.400940</ele>
        <time>2021-11-15T00:41:23.597Z</time>
      </trkpt>
      <trkpt lat="47.549781" lon="7.820506">
        <ele>301.183297</ele>
        <time>2021-11-15T00:41:31.433Z</time>
      </trkpt>
      <trkpt lat="47.549636" lon="7.821487">
        <ele>301.437523</ele>
        <time>2021-11-15T00:41:44.823Z</time>
      </trkpt>
      <trkpt lat="47.549580" lon="7.821865">
        <ele>301.564911</ele>
        <time>2021-11-15T00:41:50.371Z</time>
      </trkpt>
      <trkpt lat="47.549309" lon="7.823603">
        <ele>302.540286</ele>
        <time>2021-11-15T00:42:18.792Z</time>
      </trkpt>
      <trkpt lat="47.548993" lon="7.825343">
        <ele>304.888073</ele>
        <time>2021-11-15T00:42:53.761Z</time>
      </trkpt>
      <trkpt lat="47.548679" lon="7.826710">
        <ele>306.903473</ele>
        <time>2021-11-15T00:43:22.916Z</time>
      </trkpt>
      <trkpt lat="47.548237" lon="7.826410">
        <ele>307.940464</ele>
        <time>2021-11-15T00:43:36.696Z</time>
      </trkpt>
      <trkpt lat="47.547666" lon="7.826091">
        <ele>309.242098</ele>
        <time>2021-11-15T00:43:54.061Z</time>
      </trkpt>
      <trkpt lat="47.547325" lon="7.825918">
        <ele>309.958746</ele>
        <time>2021-11-15T00:44:04.167Z</time>
      </trkpt>
      <trkpt lat="47.547233" lon="7.825872">
        <ele>310.150002</ele>
        <time>2021-11-15T00:44:06.849Z</time>
      </trkpt>
      <trkpt lat="47.546879" lon="7.825705">
        <ele>310.881778</ele>
        <time>2021-11-15T00:44:16.966Z</time>
      </trkpt>
      <trkpt lat="47.546693" lon="7.825618">
        <ele>311.265972</ele>
        <time>2021-11-15T00:44:22.215Z</time>
      </trkpt>
      <trkpt lat="47.546589" lon="7.825597">
        <ele>311.472716</ele>
        <time>2021-11-15T00:44:25.148Z</time>
      </trkpt>
      <trkpt lat="47.546574" lon="7.826239">
        <ele>312.326792</ele>
        <time>2021-11-15T00:44:37.442Z</time>
      </trkpt>
      <trkpt lat="47.546592" lon="7.826850">
        <ele>313.170725</ele>
        <time>2021-11-15T00:44:49.248Z</time>
      </trkpt>
      <trkpt lat="47.546721" lon="7.828140">
        <ele>315.104133</ele>
        <time>2021-11-15T00:45:15.545Z</time>
      </trkpt>
      <trkpt lat="47.546823" lon="7.829336">
        <ele>316.883970</ele>
        <time>2021-11-15T00:45:38.846Z</time>
      </trkpt>
      <trkpt lat="47.546946" lon="7.830852">
        <ele>318.902244</ele>
        <time>2021-11-15T00:46:08.089Z</time>
      </trkpt>
      <trkpt lat="47.547020" lon="7.831965">
        <ele>320.377234</ele>
        <time>2021-11-15T00:46:28.926Z</time>
      </trkpt>
      <trkpt lat="47.547190" lon="7.835066">
        <ele>324.131781</ele>
        <time>2021-11-15T00:47:26.018Z</time>
      </trkpt>
      <trkpt lat="47.547240" lon="7.836221">
        <ele>325.578994</ele>
        <time>2021-11-15T00:47:47.492Z</time>
      </trkpt>
      <trkpt lat="47.547276" lon="7.837287">
        <ele>326.909574</ele>
        <time>2021-11-15T00:48:07.603Z</time>
      </trkpt>
      <trkpt lat="47.547300" lon="7.838688">
        <ele>328.491567</ele>
        <time>2021-11-15T00:48:34.349Z</time>
      </trkpt>
      <trkpt lat="47.547332" lon="7.840572">
        <ele>330.135095</ele>
        <time>2021-11-15T00:49:06.977Z</time>
      </trkpt>
      <trkpt lat="47.547339" lon="7.841072">
        <ele>330.329959</ele>
        <time>2021-11-15T00:49:14.754Z</time>
      </trkpt>
      <trkpt lat="47.547362" lon="7.841665">
        <ele>330.561398</ele>
        <time>2021-11-15T00:49:23.524Z</time>
      </trkpt>
      <trkpt lat="47.547448" lon="7.842262">
        <ele>330.799253</ele>
        <time>2021-11-15T00:49:31.921Z</time>
      </trkpt>
      <trkpt lat="47.547354" lon="7.842839">
        <ele>331.006691</ele>
        <time>2021-11-15T00:49:39.802Z</time>
      </trkpt>
      <trkpt lat="47.547313" lon="7.843735">
        <ele>331.282254</ele>
        <time>2021-11-15T00:49:52.125Z</time>
      </trkpt>
      <trkpt lat="47.547295" lon="7.844722">
        <ele>331.585218</ele>
        <time>2021-11-15T00:50:06.872Z</time>
      </trkpt>
      <trkpt lat="47.547274" lon="7.845536">
        <ele>332.126627</ele>
        <time>2021-11-15T00:50:20.325Z</time>
      </trkpt>
      <trkpt lat="47.547124" lon="7.848795">
        <ele>336.180516</ele>
        <time>2021-11-15T00:51:22.478Z</time>
      </trkpt>
      <trkpt lat="47.547143" lon="7.849985">
        <ele>337.755548</ele>
        <time>2021-11-15T00:51:45.330Z</time>
      </trkpt>
      <trkpt lat="47.547141" lon="7.850355">
        <ele>338.245142</ele>
        <time>2021-11-15T00:51:52.430Z</time>
      </trkpt>
      <trkpt lat="47.546945" lon="7.851719">
        <ele>339.209218</ele>
        <time>2021-11-15T00:52:16.963Z</time>
      </trkpt>
      <trkpt lat="47.546582" lon="7.856413">
        <ele>340.681155</ele>
        <time>2021-11-15T00:53:25.274Z</time>
      </trkpt>
      <trkpt lat="47.546537" lon="7.857497">
        <ele>340.871625</ele>
        <time>2021-11-15T00:53:40.582Z</time>
      </trkpt>
      <trkpt lat="47.546487" lon="7.859119">
        <ele>341.177002</ele>
        <time>2021-11-15T00:54:04.030Z</time>
      </trkpt>
      <trkpt lat="47.546526" lon="7.861665">
        <ele>341.307124</ele>
        <time>2021-11-15T00:54:41.204Z</time>
      </trkpt>
      <trkpt lat="47.546592" lon="7.863006">
        <ele>340.593251</ele>
        <time>2021-11-15T00:54:57.671Z</time>
      </trkpt>
      <trkpt lat="47.546877" lon="7.864345">
        <ele>339.345564</ele>
        <time>2021-11-15T00:55:12.841Z</time>
      </trkpt>
      <trkpt lat="47.546885" lon="7.864500">
        <ele>339.137384</ele>
        <time>2021-11-15T00:55:14.520Z</time>
      </trkpt>
      <trkpt lat="47.546894" lon="7.864837">
        <ele>338.685727</ele>
        <time>2021-11-15T00:55:17.999Z</time>
      </trkpt>
      <trkpt lat="47.546889" lon="7.865225">
        <ele>338.166029</ele>
        <time>2021-11-15T00:55:22.120Z</time>
      </trkpt>
      <trkpt lat="47.546819" lon="7.865489">
        <ele>337.786185</ele>
        <time>2021-11-15T00:55:25.198Z</time>
      </trkpt>
      <trkpt lat="47.546510" lon="7.865766">
        <ele>337.069630</ele>
        <time>2021-11-15T00:55:30.892Z</time>
      </trkpt>
      <trkpt lat="47.546327" lon="7.865959">
        <ele>336.623954</ele>
        <time>2021-11-15T00:55:34.224Z</time>
      </trkpt>
      <trkpt lat="47.546096" lon="7.866147">
        <ele>336.397440</ele>
        <time>2021-11-15T00:55:38.290Z</time>
      </trkpt>
      <trkpt lat="47.545240" lon="7.866887">
        <ele>335.577982</ele>
        <time>2021-11-15T00:55:54.963Z</time>
      </trkpt>
      <trkpt lat="47.545160" lon="7.866985">
        <ele>335.492151</ele>
        <time>2021-11-15T00:55:56.919Z</time>
      </trkpt>
      <trkpt lat="47.545003" lon="7.867278">
        <ele>335.283361</ele>
        <time>2021-11-15T00:56:02.587Z</time>
      </trkpt>
      <trkpt lat="47.544568" lon="7.867693">
        <ele>335.551851</ele>
        <time>2021-11-15T00:56:15.378Z</time>
      </trkpt>
      <trkpt lat="47.544469" lon="7.867776">
        <ele>335.703554</ele>
        <time>2021-11-15T00:56:18.240Z</time>
      </trkpt>
      <trkpt lat="47.544410" lon="7.867825">
        <ele>335.793757</ele>
        <time>2021-11-15T00:56:20.329Z</time>
      </trkpt>
      <trkpt lat="47.544246" lon="7.867967">
        <ele>336.047084</ele>
        <time>2021-11-15T00:56:25.012Z</time>
      </trkpt>
      <trkpt lat="47.544214" lon="7.867988">
        <ele>336.093759</ele>
        <time>2021-11-15T00:56:25.860Z</time>
      </trkpt>
      <trkpt lat="47.543801" lon="7.868269">
        <ele>336.699848</ele>
        <time>2021-11-15T00:56:37.463Z</time>
      </trkpt>
      <trkpt lat="47.543657" lon="7.868359">
        <ele>336.908278</ele>
        <time>2021-11-15T00:56:41.813Z</time>
      </trkpt>
      <trkpt lat="47.543201" lon="7.868657">
        <ele>337.520715</ele>
        <time>2021-11-15T00:56:52.013Z</time>
      </trkpt>
      <trkpt lat="47.543105" lon="7.868711">
        <ele>337.520715</ele>
        <time>2021-11-15T00:56:54.597Z</time>
      </trkpt>
      <trkpt lat="47.543049" lon="7.868759">
        <ele>337.520715</ele>
        <time>2021-11-15T00:56:55.974Z</time>
      </trkpt>
      <trkpt lat="47.542722" lon="7.869201">
        <ele>337.520715</ele>
        <time>2021-11-15T00:57:05.806Z</time>
      </trkpt>
      <trkpt lat="47.542696" lon="7.869257">
        <ele>337.520715</ele>
        <time>2021-11-15T00:57:06.636Z</time>
      </trkpt>
      <trkpt lat="47.542657" lon="7.869354">
        <ele>337.520715</ele>
        <time>2021-11-15T00:57:08.072Z</time>
      </trkpt>
      <trkpt lat="47.542372" lon="7.869746">
        <ele>337.520715</ele>
        <time>2021-11-15T00:57:15.279Z</time>
      </trkpt>
      <trkpt lat="47.542329" lon="7.869820">
        <ele>337.520715</ele>
        <time>2021-11-15T00:57:16.502Z</time>
      </trkpt>
      <trkpt lat="47.542348" lon="7.869983">
        <ele>337.520715</ele>
        <time>2021-11-15T00:57:18.060Z</time>
      </trkpt>
      <trkpt lat="47.542317" lon="7.870012">
        <ele>337.520715</ele>
        <time>2021-11-15T00:57:18.765Z</time>
      </trkpt>
      <trkpt lat="47.542181" lon="7.870131">
        <ele>337.520715</ele>
        <time>2021-11-15T00:57:21.386Z</time>
      </trkpt>
      <trkpt lat="47.542118" lon="7.870135">
        <ele>337.520715</ele>
        <time>2021-11-15T00:57:22.422Z</time>
      </trkpt>
      <trkpt lat="47.542014" lon="7.870126">
        <ele>337.520715</ele>
        <time>2021-11-15T00:57:23.794Z</time>
      </trkpt>
      <trkpt lat="47.541910" lon="7.870106">
        <ele>337.520715</ele>
        <time>2021-11-15T00:57:25.458Z</time>
      </trkpt>
      <trkpt lat="47.541606" lon="7.870424">
        <ele>337.520715</ele>
        <time>2021-11-15T00:57:30.831Z</time>
      </trkpt>
      <trkpt lat="47.541521" lon="7.870517">
        <ele>337.520715</ele>
        <time>2021-11-15T00:57:32.334Z</time>
      </trkpt>
      <trkpt lat="47.541550" lon="7.870601">
        <ele>337.520715</ele>
        <time>2021-11-15T00:57:33.202Z</time>
      </trkpt>
      <trkpt lat="47.541576" lon="7.870664">
        <ele>337.520715</ele>
        <time>2021-11-15T00:57:33.874Z</time>
      </trkpt>
      <trkpt lat="47.541576" lon="7.870664">
        <ele>337.520715</ele>
        <time>2021-11-15T00:57:33.877Z</time>
      </trkpt>
      <trkpt lat="47.541576" lon="7.870664">
        <ele>337.520715</ele>
        <time>2021-11-15T00:57:33.915Z</time>
      </trkpt>
      <trkpt lat="47.541410" lon="7.870791">
        <ele>337.520715</ele>
        <time>2021-11-15T00:57:37.112Z</time>
      </trkpt>
      <trkpt lat="47.541343" lon="7.870846">
        <ele>337.520715</ele>
        <time>2021-11-15T00:57:38.192Z</time>
      </trkpt>
    </trkseg>
  </trk>
</gpx>